<?xml version="1.0" encoding="UTF-8" standalone="no" ?>
<gpx xmlns="http://www.topografix.com/GPX/1/1" xmlns:xsi="http://www.w3.org/2001/XMLSchema-instance" xsi:schemaLocation="http://www.topografix.com/GPX/1/1 http://www.topografix.com/GPX/1/1/gpx.xsd" version="1.1" creator="VisuGPX - https://www.visugpx.com">
  <metadata>
    <name>Cabane d\\\'Aygues cluses 01 04 2015</name>
    <desc><![CDATA[Super sortie vers la cabane d\\\'Aygues cluses ,si vous voulez la faire cette rando ,prenez direction Bareges et ou parking de Tournaboup on chausse et cest partie direction plein sud ,pour une journée super.]]></desc>
  </metadata>
  <trk>
    <name><![CDATA[Aygues cluses cabane]]></name>
    <trkseg>
      <trkpt lat="42.90343" lon="0.10154">
        <ele>1465.3</ele>
        <time>2015-04-01T08:17:38Z</time>
      </trkpt>
      <trkpt lat="42.9034" lon="0.10142">
        <ele>1450.5</ele>
        <time>2015-04-01T08:18:13Z</time>
      </trkpt>
      <trkpt lat="42.90338" lon="0.10137">
        <ele>1449.7</ele>
        <time>2015-04-01T08:18:30Z</time>
      </trkpt>
      <trkpt lat="42.90329" lon="0.10133">
        <ele>1450.6</ele>
        <time>2015-04-01T08:18:35Z</time>
      </trkpt>
      <trkpt lat="42.90322" lon="0.10124">
        <ele>1451.1</ele>
        <time>2015-04-01T08:18:45Z</time>
      </trkpt>
      <trkpt lat="42.90318" lon="0.10113">
        <ele>1450.6</ele>
        <time>2015-04-01T08:18:53Z</time>
      </trkpt>
      <trkpt lat="42.90316" lon="0.10103">
        <ele>1451.2</ele>
        <time>2015-04-01T08:19:03Z</time>
      </trkpt>
      <trkpt lat="42.90317" lon="0.10104">
        <ele>1451.5</ele>
        <time>2015-04-01T08:19:43Z</time>
      </trkpt>
      <trkpt lat="42.90317" lon="0.10104">
        <ele>1451.5</ele>
        <time>2015-04-01T08:20:23Z</time>
      </trkpt>
      <trkpt lat="42.90317" lon="0.10104">
        <ele>1451.5</ele>
        <time>2015-04-01T08:21:03Z</time>
      </trkpt>
      <trkpt lat="42.90308" lon="0.10102">
        <ele>1453.9</ele>
        <time>2015-04-01T08:21:18Z</time>
      </trkpt>
      <trkpt lat="42.90315" lon="0.10109">
        <ele>1453.6</ele>
        <time>2015-04-01T08:21:49Z</time>
      </trkpt>
      <trkpt lat="42.90311" lon="0.10105">
        <ele>1453.9</ele>
        <time>2015-04-01T08:22:05Z</time>
      </trkpt>
      <trkpt lat="42.90307" lon="0.10107">
        <ele>1454.1</ele>
        <time>2015-04-01T08:22:15Z</time>
      </trkpt>
      <trkpt lat="42.90306" lon="0.10111">
        <ele>1454.5</ele>
        <time>2015-04-01T08:22:55Z</time>
      </trkpt>
      <trkpt lat="42.90306" lon="0.10111">
        <ele>1454.5</ele>
        <time>2015-04-01T08:23:35Z</time>
      </trkpt>
      <trkpt lat="42.90306" lon="0.10111">
        <ele>1454.5</ele>
        <time>2015-04-01T08:24:15Z</time>
      </trkpt>
      <trkpt lat="42.90304" lon="0.10105">
        <ele>1453.1</ele>
        <time>2015-04-01T08:24:31Z</time>
      </trkpt>
      <trkpt lat="42.90306" lon="0.10095">
        <ele>1452.7</ele>
        <time>2015-04-01T08:24:41Z</time>
      </trkpt>
      <trkpt lat="42.90305" lon="0.10088">
        <ele>1451.8</ele>
        <time>2015-04-01T08:25:06Z</time>
      </trkpt>
      <trkpt lat="42.90307" lon="0.10078">
        <ele>1451.9</ele>
        <time>2015-04-01T08:25:16Z</time>
      </trkpt>
      <trkpt lat="42.90313" lon="0.10074">
        <ele>1452</ele>
        <time>2015-04-01T08:25:26Z</time>
      </trkpt>
      <trkpt lat="42.90315" lon="0.10064">
        <ele>1451.9</ele>
        <time>2015-04-01T08:25:36Z</time>
      </trkpt>
      <trkpt lat="42.90316" lon="0.10052">
        <ele>1451.5</ele>
        <time>2015-04-01T08:25:46Z</time>
      </trkpt>
      <trkpt lat="42.9032" lon="0.10041">
        <ele>1451.2</ele>
        <time>2015-04-01T08:25:56Z</time>
      </trkpt>
      <trkpt lat="42.90324" lon="0.10032">
        <ele>1451.7</ele>
        <time>2015-04-01T08:26:06Z</time>
      </trkpt>
      <trkpt lat="42.90327" lon="0.10025">
        <ele>1451.9</ele>
        <time>2015-04-01T08:26:16Z</time>
      </trkpt>
      <trkpt lat="42.9033" lon="0.1002">
        <ele>1452</ele>
        <time>2015-04-01T08:26:27Z</time>
      </trkpt>
      <trkpt lat="42.90332" lon="0.10013">
        <ele>1451.5</ele>
        <time>2015-04-01T08:26:44Z</time>
      </trkpt>
      <trkpt lat="42.90331" lon="0.10007">
        <ele>1451.4</ele>
        <time>2015-04-01T08:26:54Z</time>
      </trkpt>
      <trkpt lat="42.90324" lon="0.10015">
        <ele>1451.3</ele>
        <time>2015-04-01T08:27:04Z</time>
      </trkpt>
      <trkpt lat="42.90316" lon="0.10024">
        <ele>1451.3</ele>
        <time>2015-04-01T08:27:12Z</time>
      </trkpt>
      <trkpt lat="42.9031" lon="0.10034">
        <ele>1451.2</ele>
        <time>2015-04-01T08:27:21Z</time>
      </trkpt>
      <trkpt lat="42.90302" lon="0.10043">
        <ele>1451.3</ele>
        <time>2015-04-01T08:27:29Z</time>
      </trkpt>
      <trkpt lat="42.90294" lon="0.10049">
        <ele>1451.3</ele>
        <time>2015-04-01T08:27:36Z</time>
      </trkpt>
      <trkpt lat="42.90294" lon="0.10059">
        <ele>1451.9</ele>
        <time>2015-04-01T08:27:47Z</time>
      </trkpt>
      <trkpt lat="42.90289" lon="0.10066">
        <ele>1452</ele>
        <time>2015-04-01T08:27:57Z</time>
      </trkpt>
      <trkpt lat="42.90286" lon="0.10075">
        <ele>1452.1</ele>
        <time>2015-04-01T08:28:07Z</time>
      </trkpt>
      <trkpt lat="42.90277" lon="0.10082">
        <ele>1453.3</ele>
        <time>2015-04-01T08:28:16Z</time>
      </trkpt>
      <trkpt lat="42.90277" lon="0.10091">
        <ele>1454.2</ele>
        <time>2015-04-01T08:28:26Z</time>
      </trkpt>
      <trkpt lat="42.90271" lon="0.10098">
        <ele>1455.3</ele>
        <time>2015-04-01T08:28:36Z</time>
      </trkpt>
      <trkpt lat="42.90266" lon="0.10103">
        <ele>1456.4</ele>
        <time>2015-04-01T08:28:46Z</time>
      </trkpt>
      <trkpt lat="42.90257" lon="0.1011">
        <ele>1457.3</ele>
        <time>2015-04-01T08:28:55Z</time>
      </trkpt>
      <trkpt lat="42.90252" lon="0.10119">
        <ele>1458.4</ele>
        <time>2015-04-01T08:29:05Z</time>
      </trkpt>
      <trkpt lat="42.90256" lon="0.10129">
        <ele>1459.6</ele>
        <time>2015-04-01T08:29:15Z</time>
      </trkpt>
      <trkpt lat="42.90252" lon="0.10134">
        <ele>1461.6</ele>
        <time>2015-04-01T08:29:25Z</time>
      </trkpt>
      <trkpt lat="42.90248" lon="0.10142">
        <ele>1463</ele>
        <time>2015-04-01T08:29:35Z</time>
      </trkpt>
      <trkpt lat="42.90242" lon="0.10154">
        <ele>1465.4</ele>
        <time>2015-04-01T08:29:43Z</time>
      </trkpt>
      <trkpt lat="42.90233" lon="0.10163">
        <ele>1467.2</ele>
        <time>2015-04-01T08:29:51Z</time>
      </trkpt>
      <trkpt lat="42.90226" lon="0.10172">
        <ele>1468.6</ele>
        <time>2015-04-01T08:30:00Z</time>
      </trkpt>
      <trkpt lat="42.90225" lon="0.10183">
        <ele>1470.2</ele>
        <time>2015-04-01T08:30:10Z</time>
      </trkpt>
      <trkpt lat="42.90219" lon="0.10194">
        <ele>1472.3</ele>
        <time>2015-04-01T08:30:19Z</time>
      </trkpt>
      <trkpt lat="42.90212" lon="0.10201">
        <ele>1474.6</ele>
        <time>2015-04-01T08:30:28Z</time>
      </trkpt>
      <trkpt lat="42.90205" lon="0.1021">
        <ele>1475.5</ele>
        <time>2015-04-01T08:30:37Z</time>
      </trkpt>
      <trkpt lat="42.902" lon="0.10219">
        <ele>1477.6</ele>
        <time>2015-04-01T08:30:47Z</time>
      </trkpt>
      <trkpt lat="42.90193" lon="0.10229">
        <ele>1479.9</ele>
        <time>2015-04-01T08:30:57Z</time>
      </trkpt>
      <trkpt lat="42.90185" lon="0.10236">
        <ele>1481.2</ele>
        <time>2015-04-01T08:31:04Z</time>
      </trkpt>
      <trkpt lat="42.9018" lon="0.10243">
        <ele>1482.7</ele>
        <time>2015-04-01T08:31:14Z</time>
      </trkpt>
      <trkpt lat="42.90174" lon="0.10249">
        <ele>1484.5</ele>
        <time>2015-04-01T08:31:24Z</time>
      </trkpt>
      <trkpt lat="42.9017" lon="0.10257">
        <ele>1485.4</ele>
        <time>2015-04-01T08:31:34Z</time>
      </trkpt>
      <trkpt lat="42.90165" lon="0.10265">
        <ele>1486.5</ele>
        <time>2015-04-01T08:31:44Z</time>
      </trkpt>
      <trkpt lat="42.90157" lon="0.10272">
        <ele>1487.4</ele>
        <time>2015-04-01T08:31:53Z</time>
      </trkpt>
      <trkpt lat="42.9015" lon="0.1028">
        <ele>1488.2</ele>
        <time>2015-04-01T08:32:03Z</time>
      </trkpt>
      <trkpt lat="42.90147" lon="0.10286">
        <ele>1489.4</ele>
        <time>2015-04-01T08:32:21Z</time>
      </trkpt>
      <trkpt lat="42.90142" lon="0.1029">
        <ele>1490.1</ele>
        <time>2015-04-01T08:32:31Z</time>
      </trkpt>
      <trkpt lat="42.90134" lon="0.10297">
        <ele>1490.5</ele>
        <time>2015-04-01T08:32:36Z</time>
      </trkpt>
      <trkpt lat="42.90125" lon="0.103">
        <ele>1491</ele>
        <time>2015-04-01T08:32:43Z</time>
      </trkpt>
      <trkpt lat="42.9012" lon="0.10298">
        <ele>1492.2</ele>
        <time>2015-04-01T08:32:53Z</time>
      </trkpt>
      <trkpt lat="42.90114" lon="0.103">
        <ele>1493.9</ele>
        <time>2015-04-01T08:33:03Z</time>
      </trkpt>
      <trkpt lat="42.90104" lon="0.10302">
        <ele>1494.3</ele>
        <time>2015-04-01T08:33:11Z</time>
      </trkpt>
      <trkpt lat="42.90094" lon="0.10304">
        <ele>1494.7</ele>
        <time>2015-04-01T08:33:14Z</time>
      </trkpt>
      <trkpt lat="42.90086" lon="0.10306">
        <ele>1495.8</ele>
        <time>2015-04-01T08:33:24Z</time>
      </trkpt>
      <trkpt lat="42.90077" lon="0.10311">
        <ele>1496.7</ele>
        <time>2015-04-01T08:33:32Z</time>
      </trkpt>
      <trkpt lat="42.90069" lon="0.10315">
        <ele>1498</ele>
        <time>2015-04-01T08:33:42Z</time>
      </trkpt>
      <trkpt lat="42.90062" lon="0.10315">
        <ele>1499.4</ele>
        <time>2015-04-01T08:33:52Z</time>
      </trkpt>
      <trkpt lat="42.90054" lon="0.10317">
        <ele>1500.4</ele>
        <time>2015-04-01T08:34:02Z</time>
      </trkpt>
      <trkpt lat="42.90051" lon="0.10325">
        <ele>1500.9</ele>
        <time>2015-04-01T08:34:13Z</time>
      </trkpt>
      <trkpt lat="42.90048" lon="0.1032">
        <ele>1502.6</ele>
        <time>2015-04-01T08:34:25Z</time>
      </trkpt>
      <trkpt lat="42.90045" lon="0.10314">
        <ele>1505.5</ele>
        <time>2015-04-01T08:34:39Z</time>
      </trkpt>
      <trkpt lat="42.90036" lon="0.1032">
        <ele>1506.5</ele>
        <time>2015-04-01T08:34:46Z</time>
      </trkpt>
      <trkpt lat="42.90027" lon="0.10325">
        <ele>1507.1</ele>
        <time>2015-04-01T08:34:51Z</time>
      </trkpt>
      <trkpt lat="42.90022" lon="0.10333">
        <ele>1508.7</ele>
        <time>2015-04-01T08:35:02Z</time>
      </trkpt>
      <trkpt lat="42.90015" lon="0.10332">
        <ele>1511</ele>
        <time>2015-04-01T08:35:12Z</time>
      </trkpt>
      <trkpt lat="42.90008" lon="0.10335">
        <ele>1512.6</ele>
        <time>2015-04-01T08:35:24Z</time>
      </trkpt>
      <trkpt lat="42.89999" lon="0.10338">
        <ele>1513.7</ele>
        <time>2015-04-01T08:35:30Z</time>
      </trkpt>
      <trkpt lat="42.89988" lon="0.10339">
        <ele>1513.8</ele>
        <time>2015-04-01T08:35:38Z</time>
      </trkpt>
      <trkpt lat="42.89983" lon="0.10341">
        <ele>1516.2</ele>
        <time>2015-04-01T08:36:06Z</time>
      </trkpt>
      <trkpt lat="42.89967" lon="0.10347">
        <ele>1517.7</ele>
        <time>2015-04-01T08:36:14Z</time>
      </trkpt>
      <trkpt lat="42.89959" lon="0.10351">
        <ele>1518.1</ele>
        <time>2015-04-01T08:36:20Z</time>
      </trkpt>
      <trkpt lat="42.89947" lon="0.10353">
        <ele>1519.1</ele>
        <time>2015-04-01T08:36:27Z</time>
      </trkpt>
      <trkpt lat="42.89945" lon="0.1036">
        <ele>1520.2</ele>
        <time>2015-04-01T08:36:39Z</time>
      </trkpt>
      <trkpt lat="42.89937" lon="0.10366">
        <ele>1520.6</ele>
        <time>2015-04-01T08:36:46Z</time>
      </trkpt>
      <trkpt lat="42.89925" lon="0.10369">
        <ele>1521.3</ele>
        <time>2015-04-01T08:36:56Z</time>
      </trkpt>
      <trkpt lat="42.89915" lon="0.10374">
        <ele>1522.1</ele>
        <time>2015-04-01T08:37:04Z</time>
      </trkpt>
      <trkpt lat="42.89911" lon="0.10377">
        <ele>1523.2</ele>
        <time>2015-04-01T08:37:19Z</time>
      </trkpt>
      <trkpt lat="42.89906" lon="0.10383">
        <ele>1524.2</ele>
        <time>2015-04-01T08:37:29Z</time>
      </trkpt>
      <trkpt lat="42.89897" lon="0.10389">
        <ele>1524.2</ele>
        <time>2015-04-01T08:37:34Z</time>
      </trkpt>
      <trkpt lat="42.89888" lon="0.10393">
        <ele>1524.8</ele>
        <time>2015-04-01T08:37:41Z</time>
      </trkpt>
      <trkpt lat="42.89878" lon="0.10399">
        <ele>1525.5</ele>
        <time>2015-04-01T08:37:46Z</time>
      </trkpt>
      <trkpt lat="42.89871" lon="0.10403">
        <ele>1526.5</ele>
        <time>2015-04-01T08:37:56Z</time>
      </trkpt>
      <trkpt lat="42.89866" lon="0.10397">
        <ele>1528.9</ele>
        <time>2015-04-01T08:38:28Z</time>
      </trkpt>
      <trkpt lat="42.89865" lon="0.10404">
        <ele>1528.5</ele>
        <time>2015-04-01T08:38:38Z</time>
      </trkpt>
      <trkpt lat="42.89857" lon="0.10408">
        <ele>1528.3</ele>
        <time>2015-04-01T08:38:48Z</time>
      </trkpt>
      <trkpt lat="42.89849" lon="0.10415">
        <ele>1528.5</ele>
        <time>2015-04-01T08:38:54Z</time>
      </trkpt>
      <trkpt lat="42.89841" lon="0.10421">
        <ele>1528.3</ele>
        <time>2015-04-01T08:39:03Z</time>
      </trkpt>
      <trkpt lat="42.89832" lon="0.10425">
        <ele>1527.2</ele>
        <time>2015-04-01T08:39:10Z</time>
      </trkpt>
      <trkpt lat="42.89822" lon="0.10428">
        <ele>1524.4</ele>
        <time>2015-04-01T08:39:14Z</time>
      </trkpt>
      <trkpt lat="42.89813" lon="0.10433">
        <ele>1521.6</ele>
        <time>2015-04-01T08:39:22Z</time>
      </trkpt>
      <trkpt lat="42.89804" lon="0.10437">
        <ele>1520</ele>
        <time>2015-04-01T08:39:31Z</time>
      </trkpt>
      <trkpt lat="42.89797" lon="0.10441">
        <ele>1519.4</ele>
        <time>2015-04-01T08:39:42Z</time>
      </trkpt>
      <trkpt lat="42.89789" lon="0.10445">
        <ele>1519.8</ele>
        <time>2015-04-01T08:39:52Z</time>
      </trkpt>
      <trkpt lat="42.8978" lon="0.1045">
        <ele>1519.4</ele>
        <time>2015-04-01T08:40:02Z</time>
      </trkpt>
      <trkpt lat="42.89771" lon="0.10454">
        <ele>1519</ele>
        <time>2015-04-01T08:40:12Z</time>
      </trkpt>
      <trkpt lat="42.89764" lon="0.10455">
        <ele>1518.3</ele>
        <time>2015-04-01T08:40:22Z</time>
      </trkpt>
      <trkpt lat="42.89762" lon="0.10461">
        <ele>1517.5</ele>
        <time>2015-04-01T08:40:41Z</time>
      </trkpt>
      <trkpt lat="42.89754" lon="0.10458">
        <ele>1518.1</ele>
        <time>2015-04-01T08:40:51Z</time>
      </trkpt>
      <trkpt lat="42.89761" lon="0.10461">
        <ele>1518.4</ele>
        <time>2015-04-01T08:41:09Z</time>
      </trkpt>
      <trkpt lat="42.89758" lon="0.1046">
        <ele>1517.9</ele>
        <time>2015-04-01T08:41:49Z</time>
      </trkpt>
      <trkpt lat="42.89751" lon="0.10452">
        <ele>1517</ele>
        <time>2015-04-01T08:42:06Z</time>
      </trkpt>
      <trkpt lat="42.89752" lon="0.10453">
        <ele>1517</ele>
        <time>2015-04-01T08:42:46Z</time>
      </trkpt>
      <trkpt lat="42.89752" lon="0.10453">
        <ele>1517</ele>
        <time>2015-04-01T08:43:26Z</time>
      </trkpt>
      <trkpt lat="42.89752" lon="0.10453">
        <ele>1517</ele>
        <time>2015-04-01T08:44:07Z</time>
      </trkpt>
      <trkpt lat="42.89754" lon="0.10461">
        <ele>1518.1</ele>
        <time>2015-04-01T08:44:27Z</time>
      </trkpt>
      <trkpt lat="42.89746" lon="0.1046">
        <ele>1518</ele>
        <time>2015-04-01T08:44:37Z</time>
      </trkpt>
      <trkpt lat="42.89732" lon="0.10451">
        <ele>1518.8</ele>
        <time>2015-04-01T08:44:47Z</time>
      </trkpt>
      <trkpt lat="42.89725" lon="0.10451">
        <ele>1519.2</ele>
        <time>2015-04-01T08:44:57Z</time>
      </trkpt>
      <trkpt lat="42.89718" lon="0.10452">
        <ele>1520.1</ele>
        <time>2015-04-01T08:45:07Z</time>
      </trkpt>
      <trkpt lat="42.89712" lon="0.10458">
        <ele>1520.7</ele>
        <time>2015-04-01T08:45:17Z</time>
      </trkpt>
      <trkpt lat="42.89706" lon="0.10463">
        <ele>1521.1</ele>
        <time>2015-04-01T08:45:27Z</time>
      </trkpt>
      <trkpt lat="42.89701" lon="0.10469">
        <ele>1521.5</ele>
        <time>2015-04-01T08:45:37Z</time>
      </trkpt>
      <trkpt lat="42.89695" lon="0.10471">
        <ele>1521.9</ele>
        <time>2015-04-01T08:45:47Z</time>
      </trkpt>
      <trkpt lat="42.89687" lon="0.10475">
        <ele>1522.6</ele>
        <time>2015-04-01T08:45:57Z</time>
      </trkpt>
      <trkpt lat="42.89679" lon="0.10475">
        <ele>1523.3</ele>
        <time>2015-04-01T08:46:07Z</time>
      </trkpt>
      <trkpt lat="42.8967" lon="0.10473">
        <ele>1523.9</ele>
        <time>2015-04-01T08:46:15Z</time>
      </trkpt>
      <trkpt lat="42.89662" lon="0.10473">
        <ele>1524.2</ele>
        <time>2015-04-01T08:46:25Z</time>
      </trkpt>
      <trkpt lat="42.89653" lon="0.10474">
        <ele>1524.4</ele>
        <time>2015-04-01T08:46:33Z</time>
      </trkpt>
      <trkpt lat="42.89645" lon="0.10475">
        <ele>1525</ele>
        <time>2015-04-01T08:46:43Z</time>
      </trkpt>
      <trkpt lat="42.89637" lon="0.10476">
        <ele>1525.4</ele>
        <time>2015-04-01T08:46:53Z</time>
      </trkpt>
      <trkpt lat="42.89629" lon="0.10477">
        <ele>1525.9</ele>
        <time>2015-04-01T08:47:03Z</time>
      </trkpt>
      <trkpt lat="42.8962" lon="0.10478">
        <ele>1526.4</ele>
        <time>2015-04-01T08:47:14Z</time>
      </trkpt>
      <trkpt lat="42.89613" lon="0.10475">
        <ele>1527.1</ele>
        <time>2015-04-01T08:47:24Z</time>
      </trkpt>
      <trkpt lat="42.89607" lon="0.10473">
        <ele>1527.4</ele>
        <time>2015-04-01T08:47:34Z</time>
      </trkpt>
      <trkpt lat="42.896" lon="0.10471">
        <ele>1527.7</ele>
        <time>2015-04-01T08:47:44Z</time>
      </trkpt>
      <trkpt lat="42.89594" lon="0.10473">
        <ele>1528.5</ele>
        <time>2015-04-01T08:47:54Z</time>
      </trkpt>
      <trkpt lat="42.89586" lon="0.10467">
        <ele>1529.1</ele>
        <time>2015-04-01T08:48:01Z</time>
      </trkpt>
      <trkpt lat="42.8958" lon="0.10464">
        <ele>1529.9</ele>
        <time>2015-04-01T08:48:11Z</time>
      </trkpt>
      <trkpt lat="42.89578" lon="0.10465">
        <ele>1530.7</ele>
        <time>2015-04-01T08:48:51Z</time>
      </trkpt>
      <trkpt lat="42.89573" lon="0.10468">
        <ele>1531.4</ele>
        <time>2015-04-01T08:49:01Z</time>
      </trkpt>
      <trkpt lat="42.89564" lon="0.10462">
        <ele>1531.1</ele>
        <time>2015-04-01T08:49:08Z</time>
      </trkpt>
      <trkpt lat="42.89556" lon="0.10456">
        <ele>1531.3</ele>
        <time>2015-04-01T08:49:14Z</time>
      </trkpt>
      <trkpt lat="42.89549" lon="0.10461">
        <ele>1531.7</ele>
        <time>2015-04-01T08:49:24Z</time>
      </trkpt>
      <trkpt lat="42.89546" lon="0.10473">
        <ele>1532</ele>
        <time>2015-04-01T08:49:33Z</time>
      </trkpt>
      <trkpt lat="42.89545" lon="0.10486">
        <ele>1532.2</ele>
        <time>2015-04-01T08:49:41Z</time>
      </trkpt>
      <trkpt lat="42.89542" lon="0.10496">
        <ele>1532.5</ele>
        <time>2015-04-01T08:49:51Z</time>
      </trkpt>
      <trkpt lat="42.89537" lon="0.10507">
        <ele>1532.8</ele>
        <time>2015-04-01T08:49:58Z</time>
      </trkpt>
      <trkpt lat="42.89533" lon="0.10517">
        <ele>1533.4</ele>
        <time>2015-04-01T08:50:08Z</time>
      </trkpt>
      <trkpt lat="42.89529" lon="0.10526">
        <ele>1534.3</ele>
        <time>2015-04-01T08:50:19Z</time>
      </trkpt>
      <trkpt lat="42.89526" lon="0.10539">
        <ele>1535</ele>
        <time>2015-04-01T08:50:29Z</time>
      </trkpt>
      <trkpt lat="42.89521" lon="0.10548">
        <ele>1536.3</ele>
        <time>2015-04-01T08:50:39Z</time>
      </trkpt>
      <trkpt lat="42.89517" lon="0.10557">
        <ele>1537.1</ele>
        <time>2015-04-01T08:50:49Z</time>
      </trkpt>
      <trkpt lat="42.89513" lon="0.10566">
        <ele>1538.1</ele>
        <time>2015-04-01T08:50:59Z</time>
      </trkpt>
      <trkpt lat="42.89511" lon="0.10576">
        <ele>1539.2</ele>
        <time>2015-04-01T08:51:09Z</time>
      </trkpt>
      <trkpt lat="42.89503" lon="0.10582">
        <ele>1540.3</ele>
        <time>2015-04-01T08:51:19Z</time>
      </trkpt>
      <trkpt lat="42.89502" lon="0.10589">
        <ele>1541</ele>
        <time>2015-04-01T08:51:29Z</time>
      </trkpt>
      <trkpt lat="42.89499" lon="0.10595">
        <ele>1541.9</ele>
        <time>2015-04-01T08:51:39Z</time>
      </trkpt>
      <trkpt lat="42.89492" lon="0.10596">
        <ele>1543.1</ele>
        <time>2015-04-01T08:51:49Z</time>
      </trkpt>
      <trkpt lat="42.89489" lon="0.10597">
        <ele>1543.8</ele>
        <time>2015-04-01T08:52:29Z</time>
      </trkpt>
      <trkpt lat="42.89481" lon="0.10597">
        <ele>1545.8</ele>
        <time>2015-04-01T08:52:39Z</time>
      </trkpt>
      <trkpt lat="42.89478" lon="0.10602">
        <ele>1546.5</ele>
        <time>2015-04-01T08:52:49Z</time>
      </trkpt>
      <trkpt lat="42.89477" lon="0.10608">
        <ele>1547.1</ele>
        <time>2015-04-01T08:53:01Z</time>
      </trkpt>
      <trkpt lat="42.89474" lon="0.10615">
        <ele>1547.3</ele>
        <time>2015-04-01T08:53:11Z</time>
      </trkpt>
      <trkpt lat="42.89472" lon="0.10621">
        <ele>1547.6</ele>
        <time>2015-04-01T08:53:21Z</time>
      </trkpt>
      <trkpt lat="42.89466" lon="0.10623">
        <ele>1548</ele>
        <time>2015-04-01T08:53:31Z</time>
      </trkpt>
      <trkpt lat="42.89459" lon="0.10623">
        <ele>1548.5</ele>
        <time>2015-04-01T08:53:41Z</time>
      </trkpt>
      <trkpt lat="42.89452" lon="0.10621">
        <ele>1549.1</ele>
        <time>2015-04-01T08:53:51Z</time>
      </trkpt>
      <trkpt lat="42.89448" lon="0.10623">
        <ele>1549.8</ele>
        <time>2015-04-01T08:54:01Z</time>
      </trkpt>
      <trkpt lat="42.89442" lon="0.10624">
        <ele>1550.7</ele>
        <time>2015-04-01T08:54:11Z</time>
      </trkpt>
      <trkpt lat="42.89437" lon="0.10627">
        <ele>1551.2</ele>
        <time>2015-04-01T08:54:21Z</time>
      </trkpt>
      <trkpt lat="42.89433" lon="0.1063">
        <ele>1552.3</ele>
        <time>2015-04-01T08:54:32Z</time>
      </trkpt>
      <trkpt lat="42.8943" lon="0.10635">
        <ele>1553.5</ele>
        <time>2015-04-01T08:54:45Z</time>
      </trkpt>
      <trkpt lat="42.89427" lon="0.1064">
        <ele>1554.7</ele>
        <time>2015-04-01T08:54:56Z</time>
      </trkpt>
      <trkpt lat="42.89421" lon="0.10641">
        <ele>1555.7</ele>
        <time>2015-04-01T08:55:06Z</time>
      </trkpt>
      <trkpt lat="42.89417" lon="0.10644">
        <ele>1556.5</ele>
        <time>2015-04-01T08:55:17Z</time>
      </trkpt>
      <trkpt lat="42.89413" lon="0.10647">
        <ele>1560</ele>
        <time>2015-04-01T08:55:55Z</time>
      </trkpt>
      <trkpt lat="42.8941" lon="0.10652">
        <ele>1560.9</ele>
        <time>2015-04-01T08:56:09Z</time>
      </trkpt>
      <trkpt lat="42.89406" lon="0.10658">
        <ele>1561.6</ele>
        <time>2015-04-01T08:56:19Z</time>
      </trkpt>
      <trkpt lat="42.89405" lon="0.1066">
        <ele>1562.3</ele>
        <time>2015-04-01T08:56:59Z</time>
      </trkpt>
      <trkpt lat="42.89404" lon="0.10656">
        <ele>1564.7</ele>
        <time>2015-04-01T08:57:39Z</time>
      </trkpt>
      <trkpt lat="42.89404" lon="0.10656">
        <ele>1564.7</ele>
        <time>2015-04-01T08:58:19Z</time>
      </trkpt>
      <trkpt lat="42.89399" lon="0.10646">
        <ele>1567.8</ele>
        <time>2015-04-01T08:58:29Z</time>
      </trkpt>
      <trkpt lat="42.89395" lon="0.10644">
        <ele>1568.1</ele>
        <time>2015-04-01T08:59:09Z</time>
      </trkpt>
      <trkpt lat="42.89389" lon="0.10644">
        <ele>1568.5</ele>
        <time>2015-04-01T08:59:19Z</time>
      </trkpt>
      <trkpt lat="42.89384" lon="0.10645">
        <ele>1568.9</ele>
        <time>2015-04-01T08:59:30Z</time>
      </trkpt>
      <trkpt lat="42.8938" lon="0.10646">
        <ele>1569.3</ele>
        <time>2015-04-01T08:59:40Z</time>
      </trkpt>
      <trkpt lat="42.89375" lon="0.10648">
        <ele>1569.2</ele>
        <time>2015-04-01T08:59:51Z</time>
      </trkpt>
      <trkpt lat="42.89371" lon="0.1065">
        <ele>1569.5</ele>
        <time>2015-04-01T09:00:01Z</time>
      </trkpt>
      <trkpt lat="42.89366" lon="0.10651">
        <ele>1569.8</ele>
        <time>2015-04-01T09:00:13Z</time>
      </trkpt>
      <trkpt lat="42.89362" lon="0.10656">
        <ele>1570.6</ele>
        <time>2015-04-01T09:00:28Z</time>
      </trkpt>
      <trkpt lat="42.89359" lon="0.10661">
        <ele>1571.4</ele>
        <time>2015-04-01T09:00:42Z</time>
      </trkpt>
      <trkpt lat="42.89355" lon="0.10664">
        <ele>1572.2</ele>
        <time>2015-04-01T09:00:53Z</time>
      </trkpt>
      <trkpt lat="42.8935" lon="0.10667">
        <ele>1573.5</ele>
        <time>2015-04-01T09:01:08Z</time>
      </trkpt>
      <trkpt lat="42.89345" lon="0.10667">
        <ele>1574.7</ele>
        <time>2015-04-01T09:01:20Z</time>
      </trkpt>
      <trkpt lat="42.89339" lon="0.10666">
        <ele>1576</ele>
        <time>2015-04-01T09:01:30Z</time>
      </trkpt>
      <trkpt lat="42.89334" lon="0.10665">
        <ele>1576.7</ele>
        <time>2015-04-01T09:01:40Z</time>
      </trkpt>
      <trkpt lat="42.89328" lon="0.10667">
        <ele>1577.4</ele>
        <time>2015-04-01T09:01:50Z</time>
      </trkpt>
      <trkpt lat="42.89323" lon="0.10667">
        <ele>1578.3</ele>
        <time>2015-04-01T09:02:00Z</time>
      </trkpt>
      <trkpt lat="42.89316" lon="0.10668">
        <ele>1579.4</ele>
        <time>2015-04-01T09:02:10Z</time>
      </trkpt>
      <trkpt lat="42.89312" lon="0.1067">
        <ele>1579.9</ele>
        <time>2015-04-01T09:02:20Z</time>
      </trkpt>
      <trkpt lat="42.89306" lon="0.1067">
        <ele>1581.1</ele>
        <time>2015-04-01T09:02:30Z</time>
      </trkpt>
      <trkpt lat="42.89301" lon="0.10669">
        <ele>1582.3</ele>
        <time>2015-04-01T09:02:40Z</time>
      </trkpt>
      <trkpt lat="42.89294" lon="0.10668">
        <ele>1583.6</ele>
        <time>2015-04-01T09:02:50Z</time>
      </trkpt>
      <trkpt lat="42.89287" lon="0.10663">
        <ele>1584.7</ele>
        <time>2015-04-01T09:03:01Z</time>
      </trkpt>
      <trkpt lat="42.8928" lon="0.1066">
        <ele>1585.7</ele>
        <time>2015-04-01T09:03:11Z</time>
      </trkpt>
      <trkpt lat="42.89277" lon="0.10665">
        <ele>1587.2</ele>
        <time>2015-04-01T09:03:21Z</time>
      </trkpt>
      <trkpt lat="42.89272" lon="0.1067">
        <ele>1588.7</ele>
        <time>2015-04-01T09:03:40Z</time>
      </trkpt>
      <trkpt lat="42.89268" lon="0.10673">
        <ele>1589.4</ele>
        <time>2015-04-01T09:03:51Z</time>
      </trkpt>
      <trkpt lat="42.89264" lon="0.10676">
        <ele>1590.7</ele>
        <time>2015-04-01T09:04:06Z</time>
      </trkpt>
      <trkpt lat="42.89259" lon="0.10678">
        <ele>1591.7</ele>
        <time>2015-04-01T09:04:16Z</time>
      </trkpt>
      <trkpt lat="42.89254" lon="0.10682">
        <ele>1592.5</ele>
        <time>2015-04-01T09:04:26Z</time>
      </trkpt>
      <trkpt lat="42.89249" lon="0.10683">
        <ele>1593.4</ele>
        <time>2015-04-01T09:04:36Z</time>
      </trkpt>
      <trkpt lat="42.89245" lon="0.10685">
        <ele>1594.4</ele>
        <time>2015-04-01T09:04:47Z</time>
      </trkpt>
      <trkpt lat="42.89241" lon="0.10688">
        <ele>1595.7</ele>
        <time>2015-04-01T09:04:57Z</time>
      </trkpt>
      <trkpt lat="42.89236" lon="0.10692">
        <ele>1597.1</ele>
        <time>2015-04-01T09:05:07Z</time>
      </trkpt>
      <trkpt lat="42.8923" lon="0.10691">
        <ele>1598.5</ele>
        <time>2015-04-01T09:05:17Z</time>
      </trkpt>
      <trkpt lat="42.89225" lon="0.1069">
        <ele>1600.6</ele>
        <time>2015-04-01T09:05:27Z</time>
      </trkpt>
      <trkpt lat="42.89221" lon="0.10693">
        <ele>1602.4</ele>
        <time>2015-04-01T09:05:37Z</time>
      </trkpt>
      <trkpt lat="42.89216" lon="0.10695">
        <ele>1603.8</ele>
        <time>2015-04-01T09:05:49Z</time>
      </trkpt>
      <trkpt lat="42.89208" lon="0.10697">
        <ele>1605.6</ele>
        <time>2015-04-01T09:06:09Z</time>
      </trkpt>
      <trkpt lat="42.89207" lon="0.10696">
        <ele>1605.9</ele>
        <time>2015-04-01T09:06:49Z</time>
      </trkpt>
      <trkpt lat="42.89203" lon="0.10694">
        <ele>1607.1</ele>
        <time>2015-04-01T09:07:04Z</time>
      </trkpt>
      <trkpt lat="42.892" lon="0.10699">
        <ele>1607.5</ele>
        <time>2015-04-01T09:07:16Z</time>
      </trkpt>
      <trkpt lat="42.89192" lon="0.10703">
        <ele>1610.4</ele>
        <time>2015-04-01T09:07:47Z</time>
      </trkpt>
      <trkpt lat="42.89184" lon="0.10705">
        <ele>1612</ele>
        <time>2015-04-01T09:08:07Z</time>
      </trkpt>
      <trkpt lat="42.89178" lon="0.1071">
        <ele>1614.5</ele>
        <time>2015-04-01T09:08:30Z</time>
      </trkpt>
      <trkpt lat="42.89174" lon="0.10715">
        <ele>1615.2</ele>
        <time>2015-04-01T09:08:40Z</time>
      </trkpt>
      <trkpt lat="42.89169" lon="0.10717">
        <ele>1616</ele>
        <time>2015-04-01T09:08:51Z</time>
      </trkpt>
      <trkpt lat="42.89168" lon="0.10722">
        <ele>1618.8</ele>
        <time>2015-04-01T09:09:24Z</time>
      </trkpt>
      <trkpt lat="42.8916" lon="0.10722">
        <ele>1619.8</ele>
        <time>2015-04-01T09:09:34Z</time>
      </trkpt>
      <trkpt lat="42.89151" lon="0.10721">
        <ele>1620.3</ele>
        <time>2015-04-01T09:09:43Z</time>
      </trkpt>
      <trkpt lat="42.89143" lon="0.1072">
        <ele>1620.5</ele>
        <time>2015-04-01T09:09:53Z</time>
      </trkpt>
      <trkpt lat="42.89136" lon="0.10719">
        <ele>1621</ele>
        <time>2015-04-01T09:10:03Z</time>
      </trkpt>
      <trkpt lat="42.89131" lon="0.10724">
        <ele>1622</ele>
        <time>2015-04-01T09:10:13Z</time>
      </trkpt>
      <trkpt lat="42.89126" lon="0.10727">
        <ele>1623</ele>
        <time>2015-04-01T09:10:23Z</time>
      </trkpt>
      <trkpt lat="42.89118" lon="0.10729">
        <ele>1623.8</ele>
        <time>2015-04-01T09:10:33Z</time>
      </trkpt>
      <trkpt lat="42.8911" lon="0.10731">
        <ele>1624.6</ele>
        <time>2015-04-01T09:10:43Z</time>
      </trkpt>
      <trkpt lat="42.89105" lon="0.10733">
        <ele>1625.6</ele>
        <time>2015-04-01T09:10:53Z</time>
      </trkpt>
      <trkpt lat="42.89101" lon="0.10734">
        <ele>1626.4</ele>
        <time>2015-04-01T09:11:03Z</time>
      </trkpt>
      <trkpt lat="42.89096" lon="0.10734">
        <ele>1627.7</ele>
        <time>2015-04-01T09:11:13Z</time>
      </trkpt>
      <trkpt lat="42.89095" lon="0.10733">
        <ele>1628</ele>
        <time>2015-04-01T09:11:53Z</time>
      </trkpt>
      <trkpt lat="42.89088" lon="0.10731">
        <ele>1630.2</ele>
        <time>2015-04-01T09:12:03Z</time>
      </trkpt>
      <trkpt lat="42.89088" lon="0.10731">
        <ele>1630.5</ele>
        <time>2015-04-01T09:12:44Z</time>
      </trkpt>
      <trkpt lat="42.89088" lon="0.10731">
        <ele>1630.5</ele>
        <time>2015-04-01T09:13:24Z</time>
      </trkpt>
      <trkpt lat="42.89088" lon="0.10731">
        <ele>1630.5</ele>
        <time>2015-04-01T09:14:04Z</time>
      </trkpt>
      <trkpt lat="42.89083" lon="0.1073">
        <ele>1634.6</ele>
        <time>2015-04-01T09:14:14Z</time>
      </trkpt>
      <trkpt lat="42.89078" lon="0.10732">
        <ele>1634.8</ele>
        <time>2015-04-01T09:14:24Z</time>
      </trkpt>
      <trkpt lat="42.89075" lon="0.10736">
        <ele>1634.3</ele>
        <time>2015-04-01T09:14:41Z</time>
      </trkpt>
      <trkpt lat="42.89065" lon="0.1074">
        <ele>1634.7</ele>
        <time>2015-04-01T09:14:51Z</time>
      </trkpt>
      <trkpt lat="42.89056" lon="0.10745">
        <ele>1634.5</ele>
        <time>2015-04-01T09:15:01Z</time>
      </trkpt>
      <trkpt lat="42.89049" lon="0.10746">
        <ele>1634.9</ele>
        <time>2015-04-01T09:15:11Z</time>
      </trkpt>
      <trkpt lat="42.89039" lon="0.10744">
        <ele>1635.3</ele>
        <time>2015-04-01T09:15:19Z</time>
      </trkpt>
      <trkpt lat="42.89031" lon="0.10746">
        <ele>1636.1</ele>
        <time>2015-04-01T09:15:29Z</time>
      </trkpt>
      <trkpt lat="42.89022" lon="0.10747">
        <ele>1636.2</ele>
        <time>2015-04-01T09:15:39Z</time>
      </trkpt>
      <trkpt lat="42.89015" lon="0.10751">
        <ele>1636.5</ele>
        <time>2015-04-01T09:15:49Z</time>
      </trkpt>
      <trkpt lat="42.89009" lon="0.10752">
        <ele>1636.9</ele>
        <time>2015-04-01T09:15:59Z</time>
      </trkpt>
      <trkpt lat="42.89005" lon="0.10754">
        <ele>1637.4</ele>
        <time>2015-04-01T09:16:10Z</time>
      </trkpt>
      <trkpt lat="42.88997" lon="0.10752">
        <ele>1637.8</ele>
        <time>2015-04-01T09:16:20Z</time>
      </trkpt>
      <trkpt lat="42.88989" lon="0.10752">
        <ele>1638.2</ele>
        <time>2015-04-01T09:16:30Z</time>
      </trkpt>
      <trkpt lat="42.8898" lon="0.10751">
        <ele>1638.8</ele>
        <time>2015-04-01T09:16:40Z</time>
      </trkpt>
      <trkpt lat="42.88971" lon="0.1075">
        <ele>1639.7</ele>
        <time>2015-04-01T09:16:50Z</time>
      </trkpt>
      <trkpt lat="42.88964" lon="0.10751">
        <ele>1640.4</ele>
        <time>2015-04-01T09:17:00Z</time>
      </trkpt>
      <trkpt lat="42.88963" lon="0.10755">
        <ele>1642</ele>
        <time>2015-04-01T09:17:40Z</time>
      </trkpt>
      <trkpt lat="42.88954" lon="0.10756">
        <ele>1642.4</ele>
        <time>2015-04-01T09:17:51Z</time>
      </trkpt>
      <trkpt lat="42.88947" lon="0.10762">
        <ele>1642.7</ele>
        <time>2015-04-01T09:18:01Z</time>
      </trkpt>
      <trkpt lat="42.8894" lon="0.10768">
        <ele>1643.2</ele>
        <time>2015-04-01T09:18:11Z</time>
      </trkpt>
      <trkpt lat="42.88931" lon="0.10772">
        <ele>1643.7</ele>
        <time>2015-04-01T09:18:21Z</time>
      </trkpt>
      <trkpt lat="42.88925" lon="0.10778">
        <ele>1644</ele>
        <time>2015-04-01T09:18:31Z</time>
      </trkpt>
      <trkpt lat="42.88918" lon="0.10778">
        <ele>1644.8</ele>
        <time>2015-04-01T09:18:41Z</time>
      </trkpt>
      <trkpt lat="42.88914" lon="0.10787">
        <ele>1645.4</ele>
        <time>2015-04-01T09:18:51Z</time>
      </trkpt>
      <trkpt lat="42.88909" lon="0.10797">
        <ele>1646.7</ele>
        <time>2015-04-01T09:19:01Z</time>
      </trkpt>
      <trkpt lat="42.88902" lon="0.10806">
        <ele>1647.1</ele>
        <time>2015-04-01T09:19:10Z</time>
      </trkpt>
      <trkpt lat="42.88893" lon="0.10807">
        <ele>1647.3</ele>
        <time>2015-04-01T09:19:19Z</time>
      </trkpt>
      <trkpt lat="42.88884" lon="0.1081">
        <ele>1647.8</ele>
        <time>2015-04-01T09:19:29Z</time>
      </trkpt>
      <trkpt lat="42.88875" lon="0.10813">
        <ele>1648.1</ele>
        <time>2015-04-01T09:19:39Z</time>
      </trkpt>
      <trkpt lat="42.8887" lon="0.10816">
        <ele>1648.8</ele>
        <time>2015-04-01T09:19:50Z</time>
      </trkpt>
      <trkpt lat="42.88861" lon="0.10817">
        <ele>1649.6</ele>
        <time>2015-04-01T09:20:00Z</time>
      </trkpt>
      <trkpt lat="42.88852" lon="0.10818">
        <ele>1650</ele>
        <time>2015-04-01T09:20:08Z</time>
      </trkpt>
      <trkpt lat="42.88845" lon="0.10821">
        <ele>1650.6</ele>
        <time>2015-04-01T09:20:18Z</time>
      </trkpt>
      <trkpt lat="42.88838" lon="0.10821">
        <ele>1651.5</ele>
        <time>2015-04-01T09:20:28Z</time>
      </trkpt>
      <trkpt lat="42.88833" lon="0.10824">
        <ele>1653.2</ele>
        <time>2015-04-01T09:20:39Z</time>
      </trkpt>
      <trkpt lat="42.88826" lon="0.10828">
        <ele>1654.4</ele>
        <time>2015-04-01T09:20:49Z</time>
      </trkpt>
      <trkpt lat="42.88818" lon="0.10828">
        <ele>1655.5</ele>
        <time>2015-04-01T09:20:59Z</time>
      </trkpt>
      <trkpt lat="42.8881" lon="0.1083">
        <ele>1656.5</ele>
        <time>2015-04-01T09:21:09Z</time>
      </trkpt>
      <trkpt lat="42.88802" lon="0.10834">
        <ele>1657.6</ele>
        <time>2015-04-01T09:21:19Z</time>
      </trkpt>
      <trkpt lat="42.88795" lon="0.10838">
        <ele>1658.7</ele>
        <time>2015-04-01T09:21:29Z</time>
      </trkpt>
      <trkpt lat="42.88787" lon="0.1084">
        <ele>1659.7</ele>
        <time>2015-04-01T09:21:39Z</time>
      </trkpt>
      <trkpt lat="42.88779" lon="0.10843">
        <ele>1661.2</ele>
        <time>2015-04-01T09:21:49Z</time>
      </trkpt>
      <trkpt lat="42.88773" lon="0.10845">
        <ele>1662.4</ele>
        <time>2015-04-01T09:21:59Z</time>
      </trkpt>
      <trkpt lat="42.88766" lon="0.10847">
        <ele>1663.3</ele>
        <time>2015-04-01T09:22:09Z</time>
      </trkpt>
      <trkpt lat="42.88757" lon="0.10845">
        <ele>1664.1</ele>
        <time>2015-04-01T09:22:19Z</time>
      </trkpt>
      <trkpt lat="42.88749" lon="0.10845">
        <ele>1665.3</ele>
        <time>2015-04-01T09:22:29Z</time>
      </trkpt>
      <trkpt lat="42.88744" lon="0.10848">
        <ele>1666.5</ele>
        <time>2015-04-01T09:22:39Z</time>
      </trkpt>
      <trkpt lat="42.88736" lon="0.10847">
        <ele>1667.7</ele>
        <time>2015-04-01T09:22:49Z</time>
      </trkpt>
      <trkpt lat="42.88728" lon="0.10846">
        <ele>1669</ele>
        <time>2015-04-01T09:22:59Z</time>
      </trkpt>
      <trkpt lat="42.88721" lon="0.10844">
        <ele>1670.2</ele>
        <time>2015-04-01T09:23:09Z</time>
      </trkpt>
      <trkpt lat="42.88715" lon="0.10845">
        <ele>1671.4</ele>
        <time>2015-04-01T09:23:20Z</time>
      </trkpt>
      <trkpt lat="42.8871" lon="0.10847">
        <ele>1672.6</ele>
        <time>2015-04-01T09:23:30Z</time>
      </trkpt>
      <trkpt lat="42.88703" lon="0.10849">
        <ele>1673.6</ele>
        <time>2015-04-01T09:23:40Z</time>
      </trkpt>
      <trkpt lat="42.88695" lon="0.1085">
        <ele>1674.1</ele>
        <time>2015-04-01T09:23:50Z</time>
      </trkpt>
      <trkpt lat="42.88693" lon="0.1085">
        <ele>1674.5</ele>
        <time>2015-04-01T09:24:30Z</time>
      </trkpt>
      <trkpt lat="42.88692" lon="0.10854">
        <ele>1674.2</ele>
        <time>2015-04-01T09:25:10Z</time>
      </trkpt>
      <trkpt lat="42.88685" lon="0.10855">
        <ele>1674.2</ele>
        <time>2015-04-01T09:25:20Z</time>
      </trkpt>
      <trkpt lat="42.88684" lon="0.10862">
        <ele>1673</ele>
        <time>2015-04-01T09:25:36Z</time>
      </trkpt>
      <trkpt lat="42.88682" lon="0.10871">
        <ele>1673.4</ele>
        <time>2015-04-01T09:25:46Z</time>
      </trkpt>
      <trkpt lat="42.88674" lon="0.10863">
        <ele>1673.5</ele>
        <time>2015-04-01T09:25:53Z</time>
      </trkpt>
      <trkpt lat="42.88665" lon="0.10857">
        <ele>1674.1</ele>
        <time>2015-04-01T09:26:03Z</time>
      </trkpt>
      <trkpt lat="42.88658" lon="0.10851">
        <ele>1675.6</ele>
        <time>2015-04-01T09:26:13Z</time>
      </trkpt>
      <trkpt lat="42.88649" lon="0.10847">
        <ele>1676.2</ele>
        <time>2015-04-01T09:26:23Z</time>
      </trkpt>
      <trkpt lat="42.88644" lon="0.10838">
        <ele>1676.8</ele>
        <time>2015-04-01T09:26:33Z</time>
      </trkpt>
      <trkpt lat="42.88635" lon="0.10832">
        <ele>1676.7</ele>
        <time>2015-04-01T09:26:41Z</time>
      </trkpt>
      <trkpt lat="42.88628" lon="0.10824">
        <ele>1676.9</ele>
        <time>2015-04-01T09:26:47Z</time>
      </trkpt>
      <trkpt lat="42.88623" lon="0.10825">
        <ele>1678.3</ele>
        <time>2015-04-01T09:26:57Z</time>
      </trkpt>
      <trkpt lat="42.8862" lon="0.10834">
        <ele>1678.9</ele>
        <time>2015-04-01T09:27:07Z</time>
      </trkpt>
      <trkpt lat="42.88623" lon="0.10845">
        <ele>1679.8</ele>
        <time>2015-04-01T09:27:17Z</time>
      </trkpt>
      <trkpt lat="42.88628" lon="0.10852">
        <ele>1680.7</ele>
        <time>2015-04-01T09:27:27Z</time>
      </trkpt>
      <trkpt lat="42.88634" lon="0.10859">
        <ele>1681.5</ele>
        <time>2015-04-01T09:27:37Z</time>
      </trkpt>
      <trkpt lat="42.88639" lon="0.10867">
        <ele>1682.3</ele>
        <time>2015-04-01T09:27:47Z</time>
      </trkpt>
      <trkpt lat="42.88642" lon="0.10877">
        <ele>1683.8</ele>
        <time>2015-04-01T09:27:57Z</time>
      </trkpt>
      <trkpt lat="42.88632" lon="0.10882">
        <ele>1686.1</ele>
        <time>2015-04-01T09:28:04Z</time>
      </trkpt>
      <trkpt lat="42.88626" lon="0.10889">
        <ele>1687.4</ele>
        <time>2015-04-01T09:28:14Z</time>
      </trkpt>
      <trkpt lat="42.88626" lon="0.10898">
        <ele>1688.8</ele>
        <time>2015-04-01T09:28:29Z</time>
      </trkpt>
      <trkpt lat="42.88622" lon="0.10893">
        <ele>1689.6</ele>
        <time>2015-04-01T09:28:43Z</time>
      </trkpt>
      <trkpt lat="42.88618" lon="0.10887">
        <ele>1691.4</ele>
        <time>2015-04-01T09:28:55Z</time>
      </trkpt>
      <trkpt lat="42.88616" lon="0.10894">
        <ele>1692.4</ele>
        <time>2015-04-01T09:29:13Z</time>
      </trkpt>
      <trkpt lat="42.88609" lon="0.10897">
        <ele>1693</ele>
        <time>2015-04-01T09:29:23Z</time>
      </trkpt>
      <trkpt lat="42.88601" lon="0.10904">
        <ele>1694.3</ele>
        <time>2015-04-01T09:29:29Z</time>
      </trkpt>
      <trkpt lat="42.88593" lon="0.10912">
        <ele>1695.9</ele>
        <time>2015-04-01T09:29:37Z</time>
      </trkpt>
      <trkpt lat="42.88588" lon="0.10924">
        <ele>1697.6</ele>
        <time>2015-04-01T09:29:46Z</time>
      </trkpt>
      <trkpt lat="42.8858" lon="0.10928">
        <ele>1699.5</ele>
        <time>2015-04-01T09:29:56Z</time>
      </trkpt>
      <trkpt lat="42.88573" lon="0.10933">
        <ele>1701.8</ele>
        <time>2015-04-01T09:30:07Z</time>
      </trkpt>
      <trkpt lat="42.88568" lon="0.10937">
        <ele>1703.6</ele>
        <time>2015-04-01T09:30:17Z</time>
      </trkpt>
      <trkpt lat="42.88561" lon="0.10939">
        <ele>1705.4</ele>
        <time>2015-04-01T09:30:27Z</time>
      </trkpt>
      <trkpt lat="42.88553" lon="0.10946">
        <ele>1708.3</ele>
        <time>2015-04-01T09:30:37Z</time>
      </trkpt>
      <trkpt lat="42.88543" lon="0.10946">
        <ele>1710.9</ele>
        <time>2015-04-01T09:30:46Z</time>
      </trkpt>
      <trkpt lat="42.88535" lon="0.10948">
        <ele>1713.4</ele>
        <time>2015-04-01T09:30:56Z</time>
      </trkpt>
      <trkpt lat="42.88527" lon="0.10954">
        <ele>1715.3</ele>
        <time>2015-04-01T09:31:06Z</time>
      </trkpt>
      <trkpt lat="42.88522" lon="0.10962">
        <ele>1717.6</ele>
        <time>2015-04-01T09:31:16Z</time>
      </trkpt>
      <trkpt lat="42.88518" lon="0.10971">
        <ele>1719.1</ele>
        <time>2015-04-01T09:31:26Z</time>
      </trkpt>
      <trkpt lat="42.88514" lon="0.10978">
        <ele>1720.8</ele>
        <time>2015-04-01T09:31:36Z</time>
      </trkpt>
      <trkpt lat="42.88509" lon="0.10989">
        <ele>1722.6</ele>
        <time>2015-04-01T09:31:46Z</time>
      </trkpt>
      <trkpt lat="42.885" lon="0.10994">
        <ele>1723.9</ele>
        <time>2015-04-01T09:31:53Z</time>
      </trkpt>
      <trkpt lat="42.88494" lon="0.11006">
        <ele>1725.4</ele>
        <time>2015-04-01T09:32:00Z</time>
      </trkpt>
      <trkpt lat="42.88487" lon="0.11013">
        <ele>1727.6</ele>
        <time>2015-04-01T09:32:10Z</time>
      </trkpt>
      <trkpt lat="42.88484" lon="0.11011">
        <ele>1730.2</ele>
        <time>2015-04-01T09:32:50Z</time>
      </trkpt>
      <trkpt lat="42.88484" lon="0.11011">
        <ele>1730.2</ele>
        <time>2015-04-01T09:33:30Z</time>
      </trkpt>
      <trkpt lat="42.88484" lon="0.11011">
        <ele>1730.2</ele>
        <time>2015-04-01T09:34:10Z</time>
      </trkpt>
      <trkpt lat="42.88484" lon="0.11011">
        <ele>1730.2</ele>
        <time>2015-04-01T09:34:50Z</time>
      </trkpt>
      <trkpt lat="42.88484" lon="0.11011">
        <ele>1730.2</ele>
        <time>2015-04-01T09:35:31Z</time>
      </trkpt>
      <trkpt lat="42.88484" lon="0.11018">
        <ele>1735.7</ele>
        <time>2015-04-01T09:35:42Z</time>
      </trkpt>
      <trkpt lat="42.88482" lon="0.1102">
        <ele>1736</ele>
        <time>2015-04-01T09:36:22Z</time>
      </trkpt>
      <trkpt lat="42.88482" lon="0.1102">
        <ele>1736</ele>
        <time>2015-04-01T09:37:02Z</time>
      </trkpt>
      <trkpt lat="42.88482" lon="0.1102">
        <ele>1736</ele>
        <time>2015-04-01T09:37:42Z</time>
      </trkpt>
      <trkpt lat="42.88482" lon="0.1102">
        <ele>1736</ele>
        <time>2015-04-01T09:38:22Z</time>
      </trkpt>
      <trkpt lat="42.88482" lon="0.1102">
        <ele>1736</ele>
        <time>2015-04-01T09:39:02Z</time>
      </trkpt>
      <trkpt lat="42.88482" lon="0.1102">
        <ele>1736</ele>
        <time>2015-04-01T09:39:43Z</time>
      </trkpt>
      <trkpt lat="42.88482" lon="0.1102">
        <ele>1736</ele>
        <time>2015-04-01T09:40:23Z</time>
      </trkpt>
      <trkpt lat="42.88485" lon="0.11019">
        <ele>1736.3</ele>
        <time>2015-04-01T09:41:03Z</time>
      </trkpt>
      <trkpt lat="42.88474" lon="0.11018">
        <ele>1736.8</ele>
        <time>2015-04-01T09:41:10Z</time>
      </trkpt>
      <trkpt lat="42.8847" lon="0.11029">
        <ele>1737.2</ele>
        <time>2015-04-01T09:41:14Z</time>
      </trkpt>
      <trkpt lat="42.88467" lon="0.11038">
        <ele>1738.1</ele>
        <time>2015-04-01T09:41:24Z</time>
      </trkpt>
      <trkpt lat="42.88459" lon="0.1104">
        <ele>1739.2</ele>
        <time>2015-04-01T09:41:34Z</time>
      </trkpt>
      <trkpt lat="42.88454" lon="0.11044">
        <ele>1740.3</ele>
        <time>2015-04-01T09:41:44Z</time>
      </trkpt>
      <trkpt lat="42.8845" lon="0.11052">
        <ele>1741.4</ele>
        <time>2015-04-01T09:41:54Z</time>
      </trkpt>
      <trkpt lat="42.88442" lon="0.11059">
        <ele>1742.5</ele>
        <time>2015-04-01T09:42:03Z</time>
      </trkpt>
      <trkpt lat="42.88439" lon="0.11067">
        <ele>1743.6</ele>
        <time>2015-04-01T09:42:13Z</time>
      </trkpt>
      <trkpt lat="42.88436" lon="0.11075">
        <ele>1744.4</ele>
        <time>2015-04-01T09:42:23Z</time>
      </trkpt>
      <trkpt lat="42.8843" lon="0.11085">
        <ele>1745</ele>
        <time>2015-04-01T09:42:33Z</time>
      </trkpt>
      <trkpt lat="42.88425" lon="0.11093">
        <ele>1746.1</ele>
        <time>2015-04-01T09:42:43Z</time>
      </trkpt>
      <trkpt lat="42.88423" lon="0.11105">
        <ele>1747.2</ele>
        <time>2015-04-01T09:42:50Z</time>
      </trkpt>
      <trkpt lat="42.88416" lon="0.11113">
        <ele>1748.3</ele>
        <time>2015-04-01T09:43:00Z</time>
      </trkpt>
      <trkpt lat="42.88411" lon="0.1112">
        <ele>1748.9</ele>
        <time>2015-04-01T09:43:10Z</time>
      </trkpt>
      <trkpt lat="42.88407" lon="0.11126">
        <ele>1749.3</ele>
        <time>2015-04-01T09:43:20Z</time>
      </trkpt>
      <trkpt lat="42.88402" lon="0.11129">
        <ele>1749.5</ele>
        <time>2015-04-01T09:43:30Z</time>
      </trkpt>
      <trkpt lat="42.88397" lon="0.11136">
        <ele>1749.6</ele>
        <time>2015-04-01T09:43:40Z</time>
      </trkpt>
      <trkpt lat="42.88392" lon="0.11145">
        <ele>1749.7</ele>
        <time>2015-04-01T09:43:50Z</time>
      </trkpt>
      <trkpt lat="42.88388" lon="0.11155">
        <ele>1750.6</ele>
        <time>2015-04-01T09:44:00Z</time>
      </trkpt>
      <trkpt lat="42.88385" lon="0.11164">
        <ele>1751.8</ele>
        <time>2015-04-01T09:44:10Z</time>
      </trkpt>
      <trkpt lat="42.88381" lon="0.11171">
        <ele>1753.7</ele>
        <time>2015-04-01T09:44:20Z</time>
      </trkpt>
      <trkpt lat="42.88377" lon="0.11167">
        <ele>1755.5</ele>
        <time>2015-04-01T09:44:39Z</time>
      </trkpt>
      <trkpt lat="42.88368" lon="0.11167">
        <ele>1756.2</ele>
        <time>2015-04-01T09:44:48Z</time>
      </trkpt>
      <trkpt lat="42.8836" lon="0.11174">
        <ele>1757.5</ele>
        <time>2015-04-01T09:44:57Z</time>
      </trkpt>
      <trkpt lat="42.88354" lon="0.1118">
        <ele>1758.3</ele>
        <time>2015-04-01T09:45:07Z</time>
      </trkpt>
      <trkpt lat="42.8835" lon="0.11187">
        <ele>1758.9</ele>
        <time>2015-04-01T09:45:17Z</time>
      </trkpt>
      <trkpt lat="42.88342" lon="0.11189">
        <ele>1759.5</ele>
        <time>2015-04-01T09:45:27Z</time>
      </trkpt>
      <trkpt lat="42.88334" lon="0.11197">
        <ele>1759.9</ele>
        <time>2015-04-01T09:45:36Z</time>
      </trkpt>
      <trkpt lat="42.8833" lon="0.11206">
        <ele>1760.2</ele>
        <time>2015-04-01T09:45:46Z</time>
      </trkpt>
      <trkpt lat="42.88323" lon="0.11215">
        <ele>1761.4</ele>
        <time>2015-04-01T09:45:55Z</time>
      </trkpt>
      <trkpt lat="42.88318" lon="0.11207">
        <ele>1762.3</ele>
        <time>2015-04-01T09:46:07Z</time>
      </trkpt>
      <trkpt lat="42.88316" lon="0.11214">
        <ele>1761.8</ele>
        <time>2015-04-01T09:46:17Z</time>
      </trkpt>
      <trkpt lat="42.88311" lon="0.11215">
        <ele>1762.8</ele>
        <time>2015-04-01T09:46:27Z</time>
      </trkpt>
      <trkpt lat="42.88314" lon="0.11221">
        <ele>1763.2</ele>
        <time>2015-04-01T09:46:39Z</time>
      </trkpt>
      <trkpt lat="42.88308" lon="0.11228">
        <ele>1763.4</ele>
        <time>2015-04-01T09:46:49Z</time>
      </trkpt>
      <trkpt lat="42.88302" lon="0.11237">
        <ele>1764.4</ele>
        <time>2015-04-01T09:46:58Z</time>
      </trkpt>
      <trkpt lat="42.88296" lon="0.1124">
        <ele>1765.1</ele>
        <time>2015-04-01T09:47:08Z</time>
      </trkpt>
      <trkpt lat="42.88295" lon="0.1125">
        <ele>1765.5</ele>
        <time>2015-04-01T09:47:18Z</time>
      </trkpt>
      <trkpt lat="42.88291" lon="0.11261">
        <ele>1765.1</ele>
        <time>2015-04-01T09:47:28Z</time>
      </trkpt>
      <trkpt lat="42.88289" lon="0.11273">
        <ele>1764.9</ele>
        <time>2015-04-01T09:47:37Z</time>
      </trkpt>
      <trkpt lat="42.88282" lon="0.11282">
        <ele>1765.3</ele>
        <time>2015-04-01T09:47:47Z</time>
      </trkpt>
      <trkpt lat="42.88277" lon="0.11291">
        <ele>1765.9</ele>
        <time>2015-04-01T09:47:57Z</time>
      </trkpt>
      <trkpt lat="42.88271" lon="0.11295">
        <ele>1767.2</ele>
        <time>2015-04-01T09:48:07Z</time>
      </trkpt>
      <trkpt lat="42.88271" lon="0.11305">
        <ele>1767.8</ele>
        <time>2015-04-01T09:48:17Z</time>
      </trkpt>
      <trkpt lat="42.88272" lon="0.11312">
        <ele>1768.4</ele>
        <time>2015-04-01T09:48:27Z</time>
      </trkpt>
      <trkpt lat="42.8827" lon="0.11318">
        <ele>1768.6</ele>
        <time>2015-04-01T09:48:43Z</time>
      </trkpt>
      <trkpt lat="42.88275" lon="0.11329">
        <ele>1768.2</ele>
        <time>2015-04-01T09:48:53Z</time>
      </trkpt>
      <trkpt lat="42.88278" lon="0.11336">
        <ele>1768.8</ele>
        <time>2015-04-01T09:49:03Z</time>
      </trkpt>
      <trkpt lat="42.88279" lon="0.11347">
        <ele>1769</ele>
        <time>2015-04-01T09:49:13Z</time>
      </trkpt>
      <trkpt lat="42.88279" lon="0.11356">
        <ele>1769.4</ele>
        <time>2015-04-01T09:49:23Z</time>
      </trkpt>
      <trkpt lat="42.88279" lon="0.11367">
        <ele>1769.5</ele>
        <time>2015-04-01T09:49:33Z</time>
      </trkpt>
      <trkpt lat="42.88274" lon="0.11374">
        <ele>1768.7</ele>
        <time>2015-04-01T09:49:43Z</time>
      </trkpt>
      <trkpt lat="42.88273" lon="0.11382">
        <ele>1769.3</ele>
        <time>2015-04-01T09:49:53Z</time>
      </trkpt>
      <trkpt lat="42.88277" lon="0.11392">
        <ele>1769.7</ele>
        <time>2015-04-01T09:50:04Z</time>
      </trkpt>
      <trkpt lat="42.8828" lon="0.11402">
        <ele>1770</ele>
        <time>2015-04-01T09:50:14Z</time>
      </trkpt>
      <trkpt lat="42.88278" lon="0.11412">
        <ele>1770</ele>
        <time>2015-04-01T09:50:24Z</time>
      </trkpt>
      <trkpt lat="42.88278" lon="0.11418">
        <ele>1769.7</ele>
        <time>2015-04-01T09:50:34Z</time>
      </trkpt>
      <trkpt lat="42.88281" lon="0.11425">
        <ele>1770</ele>
        <time>2015-04-01T09:50:47Z</time>
      </trkpt>
      <trkpt lat="42.88276" lon="0.11432">
        <ele>1770.1</ele>
        <time>2015-04-01T09:50:57Z</time>
      </trkpt>
      <trkpt lat="42.88274" lon="0.11437">
        <ele>1770.3</ele>
        <time>2015-04-01T09:51:07Z</time>
      </trkpt>
      <trkpt lat="42.88272" lon="0.11444">
        <ele>1772.8</ele>
        <time>2015-04-01T09:51:31Z</time>
      </trkpt>
      <trkpt lat="42.8827" lon="0.11456">
        <ele>1774.1</ele>
        <time>2015-04-01T09:51:40Z</time>
      </trkpt>
      <trkpt lat="42.8827" lon="0.11468">
        <ele>1775.2</ele>
        <time>2015-04-01T09:51:50Z</time>
      </trkpt>
      <trkpt lat="42.88268" lon="0.1148">
        <ele>1775.2</ele>
        <time>2015-04-01T09:51:58Z</time>
      </trkpt>
      <trkpt lat="42.88264" lon="0.11484">
        <ele>1774.8</ele>
        <time>2015-04-01T09:52:08Z</time>
      </trkpt>
      <trkpt lat="42.88262" lon="0.1149">
        <ele>1774</ele>
        <time>2015-04-01T09:52:22Z</time>
      </trkpt>
      <trkpt lat="42.88262" lon="0.11499">
        <ele>1774.6</ele>
        <time>2015-04-01T09:52:32Z</time>
      </trkpt>
      <trkpt lat="42.88259" lon="0.11511">
        <ele>1774.8</ele>
        <time>2015-04-01T09:52:40Z</time>
      </trkpt>
      <trkpt lat="42.88254" lon="0.1152">
        <ele>1774.9</ele>
        <time>2015-04-01T09:52:50Z</time>
      </trkpt>
      <trkpt lat="42.88252" lon="0.1153">
        <ele>1775.1</ele>
        <time>2015-04-01T09:53:00Z</time>
      </trkpt>
      <trkpt lat="42.8825" lon="0.11536">
        <ele>1774.9</ele>
        <time>2015-04-01T09:53:10Z</time>
      </trkpt>
      <trkpt lat="42.88251" lon="0.11544">
        <ele>1775.2</ele>
        <time>2015-04-01T09:53:20Z</time>
      </trkpt>
      <trkpt lat="42.88251" lon="0.1155">
        <ele>1774.9</ele>
        <time>2015-04-01T09:53:32Z</time>
      </trkpt>
      <trkpt lat="42.8825" lon="0.11558">
        <ele>1774.9</ele>
        <time>2015-04-01T09:53:48Z</time>
      </trkpt>
      <trkpt lat="42.88249" lon="0.11569">
        <ele>1775.3</ele>
        <time>2015-04-01T09:53:58Z</time>
      </trkpt>
      <trkpt lat="42.88251" lon="0.11582">
        <ele>1775.4</ele>
        <time>2015-04-01T09:54:07Z</time>
      </trkpt>
      <trkpt lat="42.88252" lon="0.11591">
        <ele>1775.8</ele>
        <time>2015-04-01T09:54:17Z</time>
      </trkpt>
      <trkpt lat="42.88254" lon="0.11598">
        <ele>1776.5</ele>
        <time>2015-04-01T09:54:29Z</time>
      </trkpt>
      <trkpt lat="42.88255" lon="0.11604">
        <ele>1777.1</ele>
        <time>2015-04-01T09:54:41Z</time>
      </trkpt>
      <trkpt lat="42.88256" lon="0.11614">
        <ele>1777.6</ele>
        <time>2015-04-01T09:54:51Z</time>
      </trkpt>
      <trkpt lat="42.88251" lon="0.11624">
        <ele>1778.2</ele>
        <time>2015-04-01T09:55:01Z</time>
      </trkpt>
      <trkpt lat="42.88253" lon="0.11632">
        <ele>1778.6</ele>
        <time>2015-04-01T09:55:11Z</time>
      </trkpt>
      <trkpt lat="42.88255" lon="0.11641">
        <ele>1778.9</ele>
        <time>2015-04-01T09:55:21Z</time>
      </trkpt>
      <trkpt lat="42.88253" lon="0.11652">
        <ele>1779.9</ele>
        <time>2015-04-01T09:55:32Z</time>
      </trkpt>
      <trkpt lat="42.88251" lon="0.11663">
        <ele>1780.8</ele>
        <time>2015-04-01T09:55:42Z</time>
      </trkpt>
      <trkpt lat="42.88247" lon="0.11672">
        <ele>1781.3</ele>
        <time>2015-04-01T09:55:52Z</time>
      </trkpt>
      <trkpt lat="42.88249" lon="0.11679">
        <ele>1781.4</ele>
        <time>2015-04-01T09:56:02Z</time>
      </trkpt>
      <trkpt lat="42.88252" lon="0.11685">
        <ele>1781.4</ele>
        <time>2015-04-01T09:56:12Z</time>
      </trkpt>
      <trkpt lat="42.8825" lon="0.11691">
        <ele>1782.6</ele>
        <time>2015-04-01T09:56:23Z</time>
      </trkpt>
      <trkpt lat="42.88247" lon="0.11701">
        <ele>1783.6</ele>
        <time>2015-04-01T09:56:33Z</time>
      </trkpt>
      <trkpt lat="42.88245" lon="0.11713">
        <ele>1784</ele>
        <time>2015-04-01T09:56:42Z</time>
      </trkpt>
      <trkpt lat="42.88244" lon="0.11719">
        <ele>1784.4</ele>
        <time>2015-04-01T09:56:53Z</time>
      </trkpt>
      <trkpt lat="42.88243" lon="0.11725">
        <ele>1784.9</ele>
        <time>2015-04-01T09:57:05Z</time>
      </trkpt>
      <trkpt lat="42.88243" lon="0.11734">
        <ele>1785.4</ele>
        <time>2015-04-01T09:57:15Z</time>
      </trkpt>
      <trkpt lat="42.8824" lon="0.11739">
        <ele>1785.8</ele>
        <time>2015-04-01T09:57:44Z</time>
      </trkpt>
      <trkpt lat="42.88234" lon="0.1174">
        <ele>1786.8</ele>
        <time>2015-04-01T09:57:54Z</time>
      </trkpt>
      <trkpt lat="42.88235" lon="0.11745">
        <ele>1786.7</ele>
        <time>2015-04-01T09:58:04Z</time>
      </trkpt>
      <trkpt lat="42.88231" lon="0.11748">
        <ele>1787.5</ele>
        <time>2015-04-01T09:58:27Z</time>
      </trkpt>
      <trkpt lat="42.88228" lon="0.11754">
        <ele>1787.9</ele>
        <time>2015-04-01T09:58:41Z</time>
      </trkpt>
      <trkpt lat="42.88228" lon="0.11761">
        <ele>1789</ele>
        <time>2015-04-01T09:58:58Z</time>
      </trkpt>
      <trkpt lat="42.88228" lon="0.11768">
        <ele>1788.9</ele>
        <time>2015-04-01T09:59:09Z</time>
      </trkpt>
      <trkpt lat="42.88229" lon="0.11774">
        <ele>1790.8</ele>
        <time>2015-04-01T09:59:24Z</time>
      </trkpt>
      <trkpt lat="42.88229" lon="0.1178">
        <ele>1791.2</ele>
        <time>2015-04-01T09:59:36Z</time>
      </trkpt>
      <trkpt lat="42.88224" lon="0.1179">
        <ele>1792.1</ele>
        <time>2015-04-01T09:59:52Z</time>
      </trkpt>
      <trkpt lat="42.88224" lon="0.11797">
        <ele>1794.5</ele>
        <time>2015-04-01T10:00:02Z</time>
      </trkpt>
      <trkpt lat="42.88224" lon="0.11803">
        <ele>1796.4</ele>
        <time>2015-04-01T10:00:15Z</time>
      </trkpt>
      <trkpt lat="42.88223" lon="0.11811">
        <ele>1798</ele>
        <time>2015-04-01T10:00:25Z</time>
      </trkpt>
      <trkpt lat="42.8822" lon="0.11816">
        <ele>1800.1</ele>
        <time>2015-04-01T10:00:37Z</time>
      </trkpt>
      <trkpt lat="42.88219" lon="0.11823">
        <ele>1801.7</ele>
        <time>2015-04-01T10:00:47Z</time>
      </trkpt>
      <trkpt lat="42.88217" lon="0.11831">
        <ele>1803.2</ele>
        <time>2015-04-01T10:00:57Z</time>
      </trkpt>
      <trkpt lat="42.88217" lon="0.11838">
        <ele>1804.3</ele>
        <time>2015-04-01T10:01:09Z</time>
      </trkpt>
      <trkpt lat="42.88219" lon="0.11844">
        <ele>1806.6</ele>
        <time>2015-04-01T10:01:28Z</time>
      </trkpt>
      <trkpt lat="42.88218" lon="0.11853">
        <ele>1807.9</ele>
        <time>2015-04-01T10:01:38Z</time>
      </trkpt>
      <trkpt lat="42.88218" lon="0.11861">
        <ele>1809.1</ele>
        <time>2015-04-01T10:01:49Z</time>
      </trkpt>
      <trkpt lat="42.88219" lon="0.11867">
        <ele>1811</ele>
        <time>2015-04-01T10:02:04Z</time>
      </trkpt>
      <trkpt lat="42.88218" lon="0.11877">
        <ele>1813.2</ele>
        <time>2015-04-01T10:02:19Z</time>
      </trkpt>
      <trkpt lat="42.88218" lon="0.11887">
        <ele>1815.1</ele>
        <time>2015-04-01T10:02:29Z</time>
      </trkpt>
      <trkpt lat="42.8822" lon="0.11893">
        <ele>1816</ele>
        <time>2015-04-01T10:02:39Z</time>
      </trkpt>
      <trkpt lat="42.88221" lon="0.11905">
        <ele>1817.9</ele>
        <time>2015-04-01T10:02:49Z</time>
      </trkpt>
      <trkpt lat="42.88217" lon="0.11908">
        <ele>1819.4</ele>
        <time>2015-04-01T10:03:02Z</time>
      </trkpt>
      <trkpt lat="42.88221" lon="0.11912">
        <ele>1824.7</ele>
        <time>2015-04-01T10:03:37Z</time>
      </trkpt>
      <trkpt lat="42.88223" lon="0.11914">
        <ele>1826.1</ele>
        <time>2015-04-01T10:04:17Z</time>
      </trkpt>
      <trkpt lat="42.88223" lon="0.11914">
        <ele>1826.1</ele>
        <time>2015-04-01T10:04:58Z</time>
      </trkpt>
      <trkpt lat="42.88225" lon="0.11919">
        <ele>1832.2</ele>
        <time>2015-04-01T10:05:37Z</time>
      </trkpt>
      <trkpt lat="42.88229" lon="0.11921">
        <ele>1833.1</ele>
        <time>2015-04-01T10:05:51Z</time>
      </trkpt>
      <trkpt lat="42.88234" lon="0.11924">
        <ele>1834.7</ele>
        <time>2015-04-01T10:06:03Z</time>
      </trkpt>
      <trkpt lat="42.88238" lon="0.11928">
        <ele>1836.2</ele>
        <time>2015-04-01T10:06:13Z</time>
      </trkpt>
      <trkpt lat="42.88237" lon="0.11935">
        <ele>1838.9</ele>
        <time>2015-04-01T10:06:23Z</time>
      </trkpt>
      <trkpt lat="42.88243" lon="0.11933">
        <ele>1839.9</ele>
        <time>2015-04-01T10:06:33Z</time>
      </trkpt>
      <trkpt lat="42.88235" lon="0.11934">
        <ele>1842.9</ele>
        <time>2015-04-01T10:07:12Z</time>
      </trkpt>
      <trkpt lat="42.88237" lon="0.11934">
        <ele>1843.3</ele>
        <time>2015-04-01T10:07:52Z</time>
      </trkpt>
      <trkpt lat="42.88231" lon="0.1193">
        <ele>1845.1</ele>
        <time>2015-04-01T10:08:06Z</time>
      </trkpt>
      <trkpt lat="42.8824" lon="0.11934">
        <ele>1845.5</ele>
        <time>2015-04-01T10:08:30Z</time>
      </trkpt>
      <trkpt lat="42.88239" lon="0.11946">
        <ele>1843.9</ele>
        <time>2015-04-01T10:08:40Z</time>
      </trkpt>
      <trkpt lat="42.88237" lon="0.11957">
        <ele>1844.1</ele>
        <time>2015-04-01T10:08:50Z</time>
      </trkpt>
      <trkpt lat="42.88241" lon="0.11965">
        <ele>1844.6</ele>
        <time>2015-04-01T10:09:00Z</time>
      </trkpt>
      <trkpt lat="42.88242" lon="0.11973">
        <ele>1845</ele>
        <time>2015-04-01T10:09:10Z</time>
      </trkpt>
      <trkpt lat="42.88241" lon="0.11981">
        <ele>1845.2</ele>
        <time>2015-04-01T10:09:20Z</time>
      </trkpt>
      <trkpt lat="42.8824" lon="0.11993">
        <ele>1845.3</ele>
        <time>2015-04-01T10:09:30Z</time>
      </trkpt>
      <trkpt lat="42.88239" lon="0.11999">
        <ele>1846.2</ele>
        <time>2015-04-01T10:09:41Z</time>
      </trkpt>
      <trkpt lat="42.88238" lon="0.12007">
        <ele>1846.9</ele>
        <time>2015-04-01T10:09:51Z</time>
      </trkpt>
      <trkpt lat="42.88238" lon="0.12014">
        <ele>1847.1</ele>
        <time>2015-04-01T10:10:01Z</time>
      </trkpt>
      <trkpt lat="42.88237" lon="0.12024">
        <ele>1848</ele>
        <time>2015-04-01T10:10:11Z</time>
      </trkpt>
      <trkpt lat="42.88235" lon="0.12031">
        <ele>1848.7</ele>
        <time>2015-04-01T10:10:25Z</time>
      </trkpt>
      <trkpt lat="42.88233" lon="0.12038">
        <ele>1849</ele>
        <time>2015-04-01T10:10:35Z</time>
      </trkpt>
      <trkpt lat="42.88232" lon="0.12046">
        <ele>1850.2</ele>
        <time>2015-04-01T10:10:58Z</time>
      </trkpt>
      <trkpt lat="42.8823" lon="0.12054">
        <ele>1850.5</ele>
        <time>2015-04-01T10:11:08Z</time>
      </trkpt>
      <trkpt lat="42.88227" lon="0.12062">
        <ele>1851.8</ele>
        <time>2015-04-01T10:11:18Z</time>
      </trkpt>
      <trkpt lat="42.88227" lon="0.12069">
        <ele>1853.1</ele>
        <time>2015-04-01T10:11:28Z</time>
      </trkpt>
      <trkpt lat="42.88227" lon="0.12075">
        <ele>1854.7</ele>
        <time>2015-04-01T10:11:41Z</time>
      </trkpt>
      <trkpt lat="42.88222" lon="0.12081">
        <ele>1856.5</ele>
        <time>2015-04-01T10:11:51Z</time>
      </trkpt>
      <trkpt lat="42.8822" lon="0.12089">
        <ele>1858.9</ele>
        <time>2015-04-01T10:12:01Z</time>
      </trkpt>
      <trkpt lat="42.88221" lon="0.12096">
        <ele>1860.4</ele>
        <time>2015-04-01T10:12:11Z</time>
      </trkpt>
      <trkpt lat="42.88226" lon="0.12098">
        <ele>1862.3</ele>
        <time>2015-04-01T10:12:21Z</time>
      </trkpt>
      <trkpt lat="42.88229" lon="0.12103">
        <ele>1863.6</ele>
        <time>2015-04-01T10:12:31Z</time>
      </trkpt>
      <trkpt lat="42.88232" lon="0.12115">
        <ele>1864.6</ele>
        <time>2015-04-01T10:12:41Z</time>
      </trkpt>
      <trkpt lat="42.88235" lon="0.12124">
        <ele>1866.7</ele>
        <time>2015-04-01T10:12:51Z</time>
      </trkpt>
      <trkpt lat="42.88236" lon="0.12135">
        <ele>1868.1</ele>
        <time>2015-04-01T10:13:01Z</time>
      </trkpt>
      <trkpt lat="42.88238" lon="0.12143">
        <ele>1869.1</ele>
        <time>2015-04-01T10:13:11Z</time>
      </trkpt>
      <trkpt lat="42.88237" lon="0.12156">
        <ele>1870.7</ele>
        <time>2015-04-01T10:13:20Z</time>
      </trkpt>
      <trkpt lat="42.8824" lon="0.12167">
        <ele>1872.6</ele>
        <time>2015-04-01T10:13:30Z</time>
      </trkpt>
      <trkpt lat="42.88243" lon="0.12175">
        <ele>1873.8</ele>
        <time>2015-04-01T10:13:40Z</time>
      </trkpt>
      <trkpt lat="42.88236" lon="0.12177">
        <ele>1874.3</ele>
        <time>2015-04-01T10:13:55Z</time>
      </trkpt>
      <trkpt lat="42.88236" lon="0.12184">
        <ele>1874.8</ele>
        <time>2015-04-01T10:14:05Z</time>
      </trkpt>
      <trkpt lat="42.88239" lon="0.12186">
        <ele>1874.9</ele>
        <time>2015-04-01T10:14:45Z</time>
      </trkpt>
      <trkpt lat="42.88236" lon="0.12196">
        <ele>1876.5</ele>
        <time>2015-04-01T10:15:01Z</time>
      </trkpt>
      <trkpt lat="42.88237" lon="0.12189">
        <ele>1878.8</ele>
        <time>2015-04-01T10:15:29Z</time>
      </trkpt>
      <trkpt lat="42.88244" lon="0.12182">
        <ele>1880.1</ele>
        <time>2015-04-01T10:15:51Z</time>
      </trkpt>
      <trkpt lat="42.88244" lon="0.12189">
        <ele>1882.6</ele>
        <time>2015-04-01T10:16:11Z</time>
      </trkpt>
      <trkpt lat="42.88244" lon="0.12197">
        <ele>1884.1</ele>
        <time>2015-04-01T10:16:21Z</time>
      </trkpt>
      <trkpt lat="42.88244" lon="0.12197">
        <ele>1884.1</ele>
        <time>2015-04-01T10:17:01Z</time>
      </trkpt>
      <trkpt lat="42.88242" lon="0.12203">
        <ele>1889.5</ele>
        <time>2015-04-01T10:17:13Z</time>
      </trkpt>
      <trkpt lat="42.88245" lon="0.12198">
        <ele>1890.6</ele>
        <time>2015-04-01T10:17:29Z</time>
      </trkpt>
      <trkpt lat="42.88243" lon="0.12192">
        <ele>1891</ele>
        <time>2015-04-01T10:17:55Z</time>
      </trkpt>
      <trkpt lat="42.88242" lon="0.122">
        <ele>1890</ele>
        <time>2015-04-01T10:18:33Z</time>
      </trkpt>
      <trkpt lat="42.88242" lon="0.12207">
        <ele>1890.4</ele>
        <time>2015-04-01T10:18:43Z</time>
      </trkpt>
      <trkpt lat="42.88243" lon="0.12213">
        <ele>1890.1</ele>
        <time>2015-04-01T10:18:56Z</time>
      </trkpt>
      <trkpt lat="42.88246" lon="0.12222">
        <ele>1889.5</ele>
        <time>2015-04-01T10:19:06Z</time>
      </trkpt>
      <trkpt lat="42.88245" lon="0.12232">
        <ele>1888.9</ele>
        <time>2015-04-01T10:19:16Z</time>
      </trkpt>
      <trkpt lat="42.88241" lon="0.12244">
        <ele>1888.9</ele>
        <time>2015-04-01T10:19:24Z</time>
      </trkpt>
      <trkpt lat="42.88242" lon="0.12256">
        <ele>1888.6</ele>
        <time>2015-04-01T10:19:33Z</time>
      </trkpt>
      <trkpt lat="42.88239" lon="0.12268">
        <ele>1888.3</ele>
        <time>2015-04-01T10:19:43Z</time>
      </trkpt>
      <trkpt lat="42.88234" lon="0.12278">
        <ele>1888.1</ele>
        <time>2015-04-01T10:19:53Z</time>
      </trkpt>
      <trkpt lat="42.88232" lon="0.12284">
        <ele>1887.6</ele>
        <time>2015-04-01T10:20:03Z</time>
      </trkpt>
      <trkpt lat="42.8823" lon="0.12297">
        <ele>1887.7</ele>
        <time>2015-04-01T10:20:13Z</time>
      </trkpt>
      <trkpt lat="42.88226" lon="0.1231">
        <ele>1887.8</ele>
        <time>2015-04-01T10:20:23Z</time>
      </trkpt>
      <trkpt lat="42.88226" lon="0.1232">
        <ele>1887.8</ele>
        <time>2015-04-01T10:20:33Z</time>
      </trkpt>
      <trkpt lat="42.88223" lon="0.12332">
        <ele>1887.5</ele>
        <time>2015-04-01T10:20:40Z</time>
      </trkpt>
      <trkpt lat="42.8822" lon="0.12344">
        <ele>1887.4</ele>
        <time>2015-04-01T10:20:49Z</time>
      </trkpt>
      <trkpt lat="42.88217" lon="0.12355">
        <ele>1887.6</ele>
        <time>2015-04-01T10:20:59Z</time>
      </trkpt>
      <trkpt lat="42.88215" lon="0.12368">
        <ele>1887.4</ele>
        <time>2015-04-01T10:21:08Z</time>
      </trkpt>
      <trkpt lat="42.88212" lon="0.1238">
        <ele>1887.2</ele>
        <time>2015-04-01T10:21:18Z</time>
      </trkpt>
      <trkpt lat="42.8821" lon="0.12392">
        <ele>1887.3</ele>
        <time>2015-04-01T10:21:27Z</time>
      </trkpt>
      <trkpt lat="42.88207" lon="0.12402">
        <ele>1887.1</ele>
        <time>2015-04-01T10:21:37Z</time>
      </trkpt>
      <trkpt lat="42.88206" lon="0.12414">
        <ele>1886.5</ele>
        <time>2015-04-01T10:21:46Z</time>
      </trkpt>
      <trkpt lat="42.88209" lon="0.12426">
        <ele>1887.1</ele>
        <time>2015-04-01T10:21:56Z</time>
      </trkpt>
      <trkpt lat="42.88212" lon="0.12435">
        <ele>1887.7</ele>
        <time>2015-04-01T10:22:06Z</time>
      </trkpt>
      <trkpt lat="42.88212" lon="0.12445">
        <ele>1887.7</ele>
        <time>2015-04-01T10:22:16Z</time>
      </trkpt>
      <trkpt lat="42.88214" lon="0.12456">
        <ele>1888.8</ele>
        <time>2015-04-01T10:22:26Z</time>
      </trkpt>
      <trkpt lat="42.88211" lon="0.12468">
        <ele>1888.3</ele>
        <time>2015-04-01T10:22:35Z</time>
      </trkpt>
      <trkpt lat="42.88208" lon="0.1248">
        <ele>1888.5</ele>
        <time>2015-04-01T10:22:45Z</time>
      </trkpt>
      <trkpt lat="42.8821" lon="0.12488">
        <ele>1889.3</ele>
        <time>2015-04-01T10:22:55Z</time>
      </trkpt>
      <trkpt lat="42.88208" lon="0.12497">
        <ele>1889.9</ele>
        <time>2015-04-01T10:23:05Z</time>
      </trkpt>
      <trkpt lat="42.88208" lon="0.12505">
        <ele>1890.3</ele>
        <time>2015-04-01T10:23:15Z</time>
      </trkpt>
      <trkpt lat="42.88206" lon="0.12517">
        <ele>1890.7</ele>
        <time>2015-04-01T10:23:24Z</time>
      </trkpt>
      <trkpt lat="42.88204" lon="0.12526">
        <ele>1890.5</ele>
        <time>2015-04-01T10:23:34Z</time>
      </trkpt>
      <trkpt lat="42.88204" lon="0.12537">
        <ele>1890.7</ele>
        <time>2015-04-01T10:23:44Z</time>
      </trkpt>
      <trkpt lat="42.88202" lon="0.12549">
        <ele>1891.3</ele>
        <time>2015-04-01T10:23:54Z</time>
      </trkpt>
      <trkpt lat="42.88201" lon="0.12559">
        <ele>1891.5</ele>
        <time>2015-04-01T10:24:04Z</time>
      </trkpt>
      <trkpt lat="42.88202" lon="0.12566">
        <ele>1892.5</ele>
        <time>2015-04-01T10:24:15Z</time>
      </trkpt>
      <trkpt lat="42.882" lon="0.12577">
        <ele>1893.2</ele>
        <time>2015-04-01T10:24:25Z</time>
      </trkpt>
      <trkpt lat="42.88199" lon="0.12589">
        <ele>1893.7</ele>
        <time>2015-04-01T10:24:35Z</time>
      </trkpt>
      <trkpt lat="42.88198" lon="0.12601">
        <ele>1894.6</ele>
        <time>2015-04-01T10:24:44Z</time>
      </trkpt>
      <trkpt lat="42.882" lon="0.12611">
        <ele>1894.3</ele>
        <time>2015-04-01T10:24:54Z</time>
      </trkpt>
      <trkpt lat="42.88203" lon="0.12624">
        <ele>1894.7</ele>
        <time>2015-04-01T10:25:04Z</time>
      </trkpt>
      <trkpt lat="42.88204" lon="0.12635">
        <ele>1894.8</ele>
        <time>2015-04-01T10:25:15Z</time>
      </trkpt>
      <trkpt lat="42.88203" lon="0.12645">
        <ele>1895.6</ele>
        <time>2015-04-01T10:25:25Z</time>
      </trkpt>
      <trkpt lat="42.88204" lon="0.12652">
        <ele>1895.8</ele>
        <time>2015-04-01T10:25:39Z</time>
      </trkpt>
      <trkpt lat="42.88206" lon="0.12663">
        <ele>1895.8</ele>
        <time>2015-04-01T10:25:49Z</time>
      </trkpt>
      <trkpt lat="42.88207" lon="0.1267">
        <ele>1896</ele>
        <time>2015-04-01T10:25:59Z</time>
      </trkpt>
      <trkpt lat="42.88207" lon="0.12682">
        <ele>1896.9</ele>
        <time>2015-04-01T10:26:07Z</time>
      </trkpt>
      <trkpt lat="42.88208" lon="0.12689">
        <ele>1897.9</ele>
        <time>2015-04-01T10:26:17Z</time>
      </trkpt>
      <trkpt lat="42.88209" lon="0.12696">
        <ele>1901</ele>
        <time>2015-04-01T10:26:37Z</time>
      </trkpt>
      <trkpt lat="42.88204" lon="0.127">
        <ele>1899.2</ele>
        <time>2015-04-01T10:27:05Z</time>
      </trkpt>
      <trkpt lat="42.88208" lon="0.12708">
        <ele>1898.2</ele>
        <time>2015-04-01T10:27:15Z</time>
      </trkpt>
      <trkpt lat="42.88208" lon="0.12722">
        <ele>1898.5</ele>
        <time>2015-04-01T10:27:22Z</time>
      </trkpt>
      <trkpt lat="42.88205" lon="0.12733">
        <ele>1899.5</ele>
        <time>2015-04-01T10:27:32Z</time>
      </trkpt>
      <trkpt lat="42.88201" lon="0.12744">
        <ele>1900.6</ele>
        <time>2015-04-01T10:27:40Z</time>
      </trkpt>
      <trkpt lat="42.88197" lon="0.12753">
        <ele>1901.4</ele>
        <time>2015-04-01T10:27:50Z</time>
      </trkpt>
      <trkpt lat="42.88191" lon="0.12765">
        <ele>1902.2</ele>
        <time>2015-04-01T10:27:59Z</time>
      </trkpt>
      <trkpt lat="42.88188" lon="0.12777">
        <ele>1903.6</ele>
        <time>2015-04-01T10:28:09Z</time>
      </trkpt>
      <trkpt lat="42.88185" lon="0.12783">
        <ele>1904.4</ele>
        <time>2015-04-01T10:28:24Z</time>
      </trkpt>
      <trkpt lat="42.88182" lon="0.12795">
        <ele>1904.5</ele>
        <time>2015-04-01T10:28:32Z</time>
      </trkpt>
      <trkpt lat="42.8818" lon="0.12807">
        <ele>1904.5</ele>
        <time>2015-04-01T10:28:40Z</time>
      </trkpt>
      <trkpt lat="42.88178" lon="0.1282">
        <ele>1904.6</ele>
        <time>2015-04-01T10:28:46Z</time>
      </trkpt>
      <trkpt lat="42.88179" lon="0.12831">
        <ele>1905.2</ele>
        <time>2015-04-01T10:28:56Z</time>
      </trkpt>
      <trkpt lat="42.88179" lon="0.12844">
        <ele>1905.2</ele>
        <time>2015-04-01T10:29:05Z</time>
      </trkpt>
      <trkpt lat="42.88182" lon="0.12849">
        <ele>1905.5</ele>
        <time>2015-04-01T10:29:15Z</time>
      </trkpt>
      <trkpt lat="42.88182" lon="0.12861">
        <ele>1906.2</ele>
        <time>2015-04-01T10:29:25Z</time>
      </trkpt>
      <trkpt lat="42.88187" lon="0.1287">
        <ele>1907.1</ele>
        <time>2015-04-01T10:29:35Z</time>
      </trkpt>
      <trkpt lat="42.88185" lon="0.12883">
        <ele>1907.6</ele>
        <time>2015-04-01T10:29:44Z</time>
      </trkpt>
      <trkpt lat="42.88182" lon="0.12895">
        <ele>1908.1</ele>
        <time>2015-04-01T10:29:51Z</time>
      </trkpt>
      <trkpt lat="42.88181" lon="0.12903">
        <ele>1909.1</ele>
        <time>2015-04-01T10:30:01Z</time>
      </trkpt>
      <trkpt lat="42.88181" lon="0.12915">
        <ele>1909.8</ele>
        <time>2015-04-01T10:30:11Z</time>
      </trkpt>
      <trkpt lat="42.8818" lon="0.12927">
        <ele>1910.4</ele>
        <time>2015-04-01T10:30:21Z</time>
      </trkpt>
      <trkpt lat="42.88179" lon="0.12939">
        <ele>1912.1</ele>
        <time>2015-04-01T10:30:31Z</time>
      </trkpt>
      <trkpt lat="42.88178" lon="0.12951">
        <ele>1912.8</ele>
        <time>2015-04-01T10:30:39Z</time>
      </trkpt>
      <trkpt lat="42.88174" lon="0.12961">
        <ele>1914.8</ele>
        <time>2015-04-01T10:30:49Z</time>
      </trkpt>
      <trkpt lat="42.88172" lon="0.12971">
        <ele>1916.3</ele>
        <time>2015-04-01T10:30:59Z</time>
      </trkpt>
      <trkpt lat="42.88169" lon="0.12981">
        <ele>1917.5</ele>
        <time>2015-04-01T10:31:09Z</time>
      </trkpt>
      <trkpt lat="42.88168" lon="0.12994">
        <ele>1917.9</ele>
        <time>2015-04-01T10:31:18Z</time>
      </trkpt>
      <trkpt lat="42.88169" lon="0.13004">
        <ele>1917.6</ele>
        <time>2015-04-01T10:31:28Z</time>
      </trkpt>
      <trkpt lat="42.88166" lon="0.13014">
        <ele>1917.9</ele>
        <time>2015-04-01T10:31:38Z</time>
      </trkpt>
      <trkpt lat="42.88167" lon="0.13022">
        <ele>1918.5</ele>
        <time>2015-04-01T10:31:50Z</time>
      </trkpt>
      <trkpt lat="42.88169" lon="0.13031">
        <ele>1919.2</ele>
        <time>2015-04-01T10:32:00Z</time>
      </trkpt>
      <trkpt lat="42.88169" lon="0.13043">
        <ele>1919.9</ele>
        <time>2015-04-01T10:32:10Z</time>
      </trkpt>
      <trkpt lat="42.88169" lon="0.13057">
        <ele>1920.5</ele>
        <time>2015-04-01T10:32:18Z</time>
      </trkpt>
      <trkpt lat="42.88167" lon="0.13066">
        <ele>1920.6</ele>
        <time>2015-04-01T10:32:28Z</time>
      </trkpt>
      <trkpt lat="42.88166" lon="0.13079">
        <ele>1920.9</ele>
        <time>2015-04-01T10:32:37Z</time>
      </trkpt>
      <trkpt lat="42.88163" lon="0.13091">
        <ele>1921.1</ele>
        <time>2015-04-01T10:32:46Z</time>
      </trkpt>
      <trkpt lat="42.88158" lon="0.131">
        <ele>1921.3</ele>
        <time>2015-04-01T10:32:56Z</time>
      </trkpt>
      <trkpt lat="42.88154" lon="0.13104">
        <ele>1921.5</ele>
        <time>2015-04-01T10:33:06Z</time>
      </trkpt>
      <trkpt lat="42.88147" lon="0.1311">
        <ele>1922</ele>
        <time>2015-04-01T10:33:16Z</time>
      </trkpt>
      <trkpt lat="42.88144" lon="0.1312">
        <ele>1922.6</ele>
        <time>2015-04-01T10:33:26Z</time>
      </trkpt>
      <trkpt lat="42.88143" lon="0.13127">
        <ele>1922.9</ele>
        <time>2015-04-01T10:33:44Z</time>
      </trkpt>
      <trkpt lat="42.8814" lon="0.13134">
        <ele>1924.4</ele>
        <time>2015-04-01T10:33:58Z</time>
      </trkpt>
      <trkpt lat="42.88135" lon="0.13145">
        <ele>1924.9</ele>
        <time>2015-04-01T10:34:08Z</time>
      </trkpt>
      <trkpt lat="42.88133" lon="0.13157">
        <ele>1925.3</ele>
        <time>2015-04-01T10:34:18Z</time>
      </trkpt>
      <trkpt lat="42.8813" lon="0.13168">
        <ele>1925.9</ele>
        <time>2015-04-01T10:34:28Z</time>
      </trkpt>
      <trkpt lat="42.88128" lon="0.13178">
        <ele>1926.4</ele>
        <time>2015-04-01T10:34:38Z</time>
      </trkpt>
      <trkpt lat="42.88128" lon="0.13184">
        <ele>1926.9</ele>
        <time>2015-04-01T10:34:48Z</time>
      </trkpt>
      <trkpt lat="42.8813" lon="0.1319">
        <ele>1928</ele>
        <time>2015-04-01T10:34:58Z</time>
      </trkpt>
      <trkpt lat="42.88132" lon="0.13196">
        <ele>1929</ele>
        <time>2015-04-01T10:35:08Z</time>
      </trkpt>
      <trkpt lat="42.88137" lon="0.13206">
        <ele>1929.1</ele>
        <time>2015-04-01T10:35:18Z</time>
      </trkpt>
      <trkpt lat="42.88137" lon="0.13219">
        <ele>1929.1</ele>
        <time>2015-04-01T10:35:28Z</time>
      </trkpt>
      <trkpt lat="42.88136" lon="0.13228">
        <ele>1929.6</ele>
        <time>2015-04-01T10:35:38Z</time>
      </trkpt>
      <trkpt lat="42.88134" lon="0.13238">
        <ele>1930</ele>
        <time>2015-04-01T10:35:49Z</time>
      </trkpt>
      <trkpt lat="42.88136" lon="0.13247">
        <ele>1930.9</ele>
        <time>2015-04-01T10:35:59Z</time>
      </trkpt>
      <trkpt lat="42.88133" lon="0.13253">
        <ele>1932.2</ele>
        <time>2015-04-01T10:36:17Z</time>
      </trkpt>
      <trkpt lat="42.88131" lon="0.13263">
        <ele>1932.7</ele>
        <time>2015-04-01T10:36:27Z</time>
      </trkpt>
      <trkpt lat="42.88125" lon="0.13273">
        <ele>1933.2</ele>
        <time>2015-04-01T10:36:36Z</time>
      </trkpt>
      <trkpt lat="42.88123" lon="0.13287">
        <ele>1933.8</ele>
        <time>2015-04-01T10:36:46Z</time>
      </trkpt>
      <trkpt lat="42.88123" lon="0.133">
        <ele>1934.7</ele>
        <time>2015-04-01T10:36:56Z</time>
      </trkpt>
      <trkpt lat="42.8812" lon="0.13313">
        <ele>1935.3</ele>
        <time>2015-04-01T10:37:04Z</time>
      </trkpt>
      <trkpt lat="42.88118" lon="0.13323">
        <ele>1936.3</ele>
        <time>2015-04-01T10:37:14Z</time>
      </trkpt>
      <trkpt lat="42.88116" lon="0.13335">
        <ele>1937.1</ele>
        <time>2015-04-01T10:37:24Z</time>
      </trkpt>
      <trkpt lat="42.88113" lon="0.1334">
        <ele>1938.2</ele>
        <time>2015-04-01T10:37:41Z</time>
      </trkpt>
      <trkpt lat="42.8811" lon="0.13345">
        <ele>1939.1</ele>
        <time>2015-04-01T10:37:51Z</time>
      </trkpt>
      <trkpt lat="42.8811" lon="0.13354">
        <ele>1939.6</ele>
        <time>2015-04-01T10:38:01Z</time>
      </trkpt>
      <trkpt lat="42.8811" lon="0.13366">
        <ele>1939.8</ele>
        <time>2015-04-01T10:38:08Z</time>
      </trkpt>
      <trkpt lat="42.88112" lon="0.13379">
        <ele>1940.6</ele>
        <time>2015-04-01T10:38:17Z</time>
      </trkpt>
      <trkpt lat="42.88112" lon="0.13389">
        <ele>1941.9</ele>
        <time>2015-04-01T10:38:27Z</time>
      </trkpt>
      <trkpt lat="42.8811" lon="0.13401">
        <ele>1942.8</ele>
        <time>2015-04-01T10:38:36Z</time>
      </trkpt>
      <trkpt lat="42.88107" lon="0.13413">
        <ele>1943.7</ele>
        <time>2015-04-01T10:38:45Z</time>
      </trkpt>
      <trkpt lat="42.88104" lon="0.13425">
        <ele>1944.7</ele>
        <time>2015-04-01T10:38:54Z</time>
      </trkpt>
      <trkpt lat="42.88102" lon="0.13431">
        <ele>1945.6</ele>
        <time>2015-04-01T10:39:04Z</time>
      </trkpt>
      <trkpt lat="42.88102" lon="0.13442">
        <ele>1946.5</ele>
        <time>2015-04-01T10:39:14Z</time>
      </trkpt>
      <trkpt lat="42.88099" lon="0.13451">
        <ele>1947.1</ele>
        <time>2015-04-01T10:39:24Z</time>
      </trkpt>
      <trkpt lat="42.88097" lon="0.13459">
        <ele>1948</ele>
        <time>2015-04-01T10:39:34Z</time>
      </trkpt>
      <trkpt lat="42.88097" lon="0.13471">
        <ele>1949.5</ele>
        <time>2015-04-01T10:39:44Z</time>
      </trkpt>
      <trkpt lat="42.88096" lon="0.13479">
        <ele>1951.2</ele>
        <time>2015-04-01T10:39:54Z</time>
      </trkpt>
      <trkpt lat="42.88095" lon="0.13491">
        <ele>1952.6</ele>
        <time>2015-04-01T10:40:03Z</time>
      </trkpt>
      <trkpt lat="42.88095" lon="0.13498">
        <ele>1953.6</ele>
        <time>2015-04-01T10:40:13Z</time>
      </trkpt>
      <trkpt lat="42.88093" lon="0.13504">
        <ele>1955.5</ele>
        <time>2015-04-01T10:40:30Z</time>
      </trkpt>
      <trkpt lat="42.88093" lon="0.1351">
        <ele>1956.2</ele>
        <time>2015-04-01T10:40:47Z</time>
      </trkpt>
      <trkpt lat="42.8809" lon="0.13521">
        <ele>1957.3</ele>
        <time>2015-04-01T10:40:57Z</time>
      </trkpt>
      <trkpt lat="42.88087" lon="0.13531">
        <ele>1958.3</ele>
        <time>2015-04-01T10:41:07Z</time>
      </trkpt>
      <trkpt lat="42.88082" lon="0.13538">
        <ele>1958.6</ele>
        <time>2015-04-01T10:41:17Z</time>
      </trkpt>
      <trkpt lat="42.88077" lon="0.13543">
        <ele>1958.4</ele>
        <time>2015-04-01T10:41:28Z</time>
      </trkpt>
      <trkpt lat="42.88072" lon="0.13545">
        <ele>1959.4</ele>
        <time>2015-04-01T10:41:46Z</time>
      </trkpt>
      <trkpt lat="42.88066" lon="0.13552">
        <ele>1959.9</ele>
        <time>2015-04-01T10:41:56Z</time>
      </trkpt>
      <trkpt lat="42.8806" lon="0.13554">
        <ele>1960.2</ele>
        <time>2015-04-01T10:42:06Z</time>
      </trkpt>
      <trkpt lat="42.88056" lon="0.13556">
        <ele>1963.4</ele>
        <time>2015-04-01T10:42:16Z</time>
      </trkpt>
      <trkpt lat="42.88053" lon="0.13553">
        <ele>1969.8</ele>
        <time>2015-04-01T10:42:56Z</time>
      </trkpt>
      <trkpt lat="42.88048" lon="0.13561">
        <ele>1970.9</ele>
        <time>2015-04-01T10:43:06Z</time>
      </trkpt>
      <trkpt lat="42.88044" lon="0.13565">
        <ele>1971.1</ele>
        <time>2015-04-01T10:43:16Z</time>
      </trkpt>
      <trkpt lat="42.88041" lon="0.1357">
        <ele>1971.8</ele>
        <time>2015-04-01T10:43:26Z</time>
      </trkpt>
      <trkpt lat="42.88041" lon="0.13577">
        <ele>1972.4</ele>
        <time>2015-04-01T10:43:36Z</time>
      </trkpt>
      <trkpt lat="42.88036" lon="0.13586">
        <ele>1976.5</ele>
        <time>2015-04-01T10:44:08Z</time>
      </trkpt>
      <trkpt lat="42.88038" lon="0.13593">
        <ele>1977</ele>
        <time>2015-04-01T10:44:18Z</time>
      </trkpt>
      <trkpt lat="42.88039" lon="0.136">
        <ele>1977.3</ele>
        <time>2015-04-01T10:44:28Z</time>
      </trkpt>
      <trkpt lat="42.88035" lon="0.1361">
        <ele>1977.9</ele>
        <time>2015-04-01T10:44:38Z</time>
      </trkpt>
      <trkpt lat="42.88032" lon="0.13619">
        <ele>1978.4</ele>
        <time>2015-04-01T10:44:48Z</time>
      </trkpt>
      <trkpt lat="42.88029" lon="0.13632">
        <ele>1979.4</ele>
        <time>2015-04-01T10:44:57Z</time>
      </trkpt>
      <trkpt lat="42.88027" lon="0.13641">
        <ele>1980.8</ele>
        <time>2015-04-01T10:45:07Z</time>
      </trkpt>
      <trkpt lat="42.88021" lon="0.13646">
        <ele>1982</ele>
        <time>2015-04-01T10:45:17Z</time>
      </trkpt>
      <trkpt lat="42.88016" lon="0.13654">
        <ele>1983.1</ele>
        <time>2015-04-01T10:45:27Z</time>
      </trkpt>
      <trkpt lat="42.88012" lon="0.13656">
        <ele>1984.3</ele>
        <time>2015-04-01T10:45:37Z</time>
      </trkpt>
      <trkpt lat="42.88006" lon="0.13667">
        <ele>1985.6</ele>
        <time>2015-04-01T10:45:46Z</time>
      </trkpt>
      <trkpt lat="42.88001" lon="0.13677">
        <ele>1986.9</ele>
        <time>2015-04-01T10:45:56Z</time>
      </trkpt>
      <trkpt lat="42.87999" lon="0.13688">
        <ele>1987.9</ele>
        <time>2015-04-01T10:46:06Z</time>
      </trkpt>
      <trkpt lat="42.87999" lon="0.13696">
        <ele>1989.1</ele>
        <time>2015-04-01T10:46:16Z</time>
      </trkpt>
      <trkpt lat="42.87993" lon="0.13707">
        <ele>1990.4</ele>
        <time>2015-04-01T10:46:26Z</time>
      </trkpt>
      <trkpt lat="42.87988" lon="0.13713">
        <ele>1991.9</ele>
        <time>2015-04-01T10:46:36Z</time>
      </trkpt>
      <trkpt lat="42.87985" lon="0.13725">
        <ele>1993.4</ele>
        <time>2015-04-01T10:46:47Z</time>
      </trkpt>
      <trkpt lat="42.8798" lon="0.13731">
        <ele>1995.8</ele>
        <time>2015-04-01T10:47:05Z</time>
      </trkpt>
      <trkpt lat="42.87977" lon="0.13742">
        <ele>1996.2</ele>
        <time>2015-04-01T10:47:15Z</time>
      </trkpt>
      <trkpt lat="42.87971" lon="0.13751">
        <ele>1996.9</ele>
        <time>2015-04-01T10:47:25Z</time>
      </trkpt>
      <trkpt lat="42.87968" lon="0.13761">
        <ele>1997.3</ele>
        <time>2015-04-01T10:47:35Z</time>
      </trkpt>
      <trkpt lat="42.87966" lon="0.1377">
        <ele>1997.3</ele>
        <time>2015-04-01T10:47:45Z</time>
      </trkpt>
      <trkpt lat="42.87963" lon="0.13783">
        <ele>1997.2</ele>
        <time>2015-04-01T10:47:54Z</time>
      </trkpt>
      <trkpt lat="42.87961" lon="0.13793">
        <ele>1997.2</ele>
        <time>2015-04-01T10:48:04Z</time>
      </trkpt>
      <trkpt lat="42.87957" lon="0.13805">
        <ele>1997</ele>
        <time>2015-04-01T10:48:13Z</time>
      </trkpt>
      <trkpt lat="42.87955" lon="0.13817">
        <ele>1997.3</ele>
        <time>2015-04-01T10:48:22Z</time>
      </trkpt>
      <trkpt lat="42.87952" lon="0.13826">
        <ele>1998.2</ele>
        <time>2015-04-01T10:48:32Z</time>
      </trkpt>
      <trkpt lat="42.87951" lon="0.13836">
        <ele>1999.5</ele>
        <time>2015-04-01T10:48:42Z</time>
      </trkpt>
      <trkpt lat="42.87948" lon="0.13847">
        <ele>2000.2</ele>
        <time>2015-04-01T10:48:52Z</time>
      </trkpt>
      <trkpt lat="42.87946" lon="0.13856">
        <ele>2001.3</ele>
        <time>2015-04-01T10:49:02Z</time>
      </trkpt>
      <trkpt lat="42.8794" lon="0.13867">
        <ele>2001.7</ele>
        <time>2015-04-01T10:49:12Z</time>
      </trkpt>
      <trkpt lat="42.87937" lon="0.13876">
        <ele>2002.8</ele>
        <time>2015-04-01T10:49:22Z</time>
      </trkpt>
      <trkpt lat="42.87936" lon="0.13885">
        <ele>2003.1</ele>
        <time>2015-04-01T10:49:32Z</time>
      </trkpt>
      <trkpt lat="42.87935" lon="0.13893">
        <ele>2004.2</ele>
        <time>2015-04-01T10:49:42Z</time>
      </trkpt>
      <trkpt lat="42.87936" lon="0.13905">
        <ele>2004.9</ele>
        <time>2015-04-01T10:49:52Z</time>
      </trkpt>
      <trkpt lat="42.87933" lon="0.13917">
        <ele>2005.5</ele>
        <time>2015-04-01T10:50:02Z</time>
      </trkpt>
      <trkpt lat="42.87931" lon="0.13926">
        <ele>2006.6</ele>
        <time>2015-04-01T10:50:12Z</time>
      </trkpt>
      <trkpt lat="42.8793" lon="0.13932">
        <ele>2007.4</ele>
        <time>2015-04-01T10:50:22Z</time>
      </trkpt>
      <trkpt lat="42.87931" lon="0.13942">
        <ele>2007.2</ele>
        <time>2015-04-01T10:50:32Z</time>
      </trkpt>
      <trkpt lat="42.87927" lon="0.13951">
        <ele>2007.7</ele>
        <time>2015-04-01T10:50:42Z</time>
      </trkpt>
      <trkpt lat="42.87922" lon="0.13958">
        <ele>2008.7</ele>
        <time>2015-04-01T10:50:52Z</time>
      </trkpt>
      <trkpt lat="42.87917" lon="0.13969">
        <ele>2009.4</ele>
        <time>2015-04-01T10:51:01Z</time>
      </trkpt>
      <trkpt lat="42.87916" lon="0.13977">
        <ele>2010</ele>
        <time>2015-04-01T10:51:11Z</time>
      </trkpt>
      <trkpt lat="42.87916" lon="0.13988">
        <ele>2010.4</ele>
        <time>2015-04-01T10:51:21Z</time>
      </trkpt>
      <trkpt lat="42.87915" lon="0.14">
        <ele>2010.9</ele>
        <time>2015-04-01T10:51:31Z</time>
      </trkpt>
      <trkpt lat="42.87918" lon="0.14008">
        <ele>2012.3</ele>
        <time>2015-04-01T10:51:41Z</time>
      </trkpt>
      <trkpt lat="42.87918" lon="0.14019">
        <ele>2013.2</ele>
        <time>2015-04-01T10:51:51Z</time>
      </trkpt>
      <trkpt lat="42.87921" lon="0.14023">
        <ele>2013.6</ele>
        <time>2015-04-01T10:52:08Z</time>
      </trkpt>
      <trkpt lat="42.87917" lon="0.14019">
        <ele>2013.7</ele>
        <time>2015-04-01T10:52:24Z</time>
      </trkpt>
      <trkpt lat="42.87911" lon="0.1401">
        <ele>2017.1</ele>
        <time>2015-04-01T10:52:52Z</time>
      </trkpt>
      <trkpt lat="42.87915" lon="0.14013">
        <ele>2019.3</ele>
        <time>2015-04-01T10:53:32Z</time>
      </trkpt>
      <trkpt lat="42.87911" lon="0.14021">
        <ele>2020.1</ele>
        <time>2015-04-01T10:53:42Z</time>
      </trkpt>
      <trkpt lat="42.87905" lon="0.14028">
        <ele>2021.1</ele>
        <time>2015-04-01T10:53:52Z</time>
      </trkpt>
      <trkpt lat="42.87905" lon="0.14035">
        <ele>2021.1</ele>
        <time>2015-04-01T10:54:02Z</time>
      </trkpt>
      <trkpt lat="42.87905" lon="0.1404">
        <ele>2021.2</ele>
        <time>2015-04-01T10:54:42Z</time>
      </trkpt>
      <trkpt lat="42.87905" lon="0.14046">
        <ele>2023.5</ele>
        <time>2015-04-01T10:54:54Z</time>
      </trkpt>
      <trkpt lat="42.87904" lon="0.14044">
        <ele>2023.9</ele>
        <time>2015-04-01T10:55:34Z</time>
      </trkpt>
      <trkpt lat="42.87897" lon="0.14036">
        <ele>2022.6</ele>
        <time>2015-04-01T10:55:42Z</time>
      </trkpt>
      <trkpt lat="42.87898" lon="0.14043">
        <ele>2023.2</ele>
        <time>2015-04-01T10:55:52Z</time>
      </trkpt>
      <trkpt lat="42.87895" lon="0.14048">
        <ele>2023.5</ele>
        <time>2015-04-01T10:56:06Z</time>
      </trkpt>
      <trkpt lat="42.87894" lon="0.14056">
        <ele>2024</ele>
        <time>2015-04-01T10:56:16Z</time>
      </trkpt>
      <trkpt lat="42.8789" lon="0.14067">
        <ele>2024.2</ele>
        <time>2015-04-01T10:56:24Z</time>
      </trkpt>
      <trkpt lat="42.87885" lon="0.14075">
        <ele>2024.4</ele>
        <time>2015-04-01T10:56:34Z</time>
      </trkpt>
      <trkpt lat="42.87883" lon="0.14082">
        <ele>2025.8</ele>
        <time>2015-04-01T10:56:52Z</time>
      </trkpt>
      <trkpt lat="42.87885" lon="0.14091">
        <ele>2027.6</ele>
        <time>2015-04-01T10:57:02Z</time>
      </trkpt>
      <trkpt lat="42.87881" lon="0.14099">
        <ele>2028.8</ele>
        <time>2015-04-01T10:57:12Z</time>
      </trkpt>
      <trkpt lat="42.87876" lon="0.14101">
        <ele>2030.4</ele>
        <time>2015-04-01T10:57:24Z</time>
      </trkpt>
      <trkpt lat="42.87871" lon="0.14106">
        <ele>2030.8</ele>
        <time>2015-04-01T10:57:35Z</time>
      </trkpt>
      <trkpt lat="42.87866" lon="0.14107">
        <ele>2030.6</ele>
        <time>2015-04-01T10:57:45Z</time>
      </trkpt>
      <trkpt lat="42.87866" lon="0.14113">
        <ele>2031.4</ele>
        <time>2015-04-01T10:57:57Z</time>
      </trkpt>
      <trkpt lat="42.87861" lon="0.14114">
        <ele>2031</ele>
        <time>2015-04-01T10:58:16Z</time>
      </trkpt>
      <trkpt lat="42.87857" lon="0.14114">
        <ele>2030.9</ele>
        <time>2015-04-01T10:58:26Z</time>
      </trkpt>
      <trkpt lat="42.87854" lon="0.14119">
        <ele>2030.9</ele>
        <time>2015-04-01T10:58:36Z</time>
      </trkpt>
      <trkpt lat="42.87858" lon="0.14128">
        <ele>2031.9</ele>
        <time>2015-04-01T10:58:46Z</time>
      </trkpt>
      <trkpt lat="42.87853" lon="0.14137">
        <ele>2032.3</ele>
        <time>2015-04-01T10:58:56Z</time>
      </trkpt>
      <trkpt lat="42.87847" lon="0.1414">
        <ele>2033.2</ele>
        <time>2015-04-01T10:59:06Z</time>
      </trkpt>
      <trkpt lat="42.87846" lon="0.1415">
        <ele>2034.7</ele>
        <time>2015-04-01T10:59:16Z</time>
      </trkpt>
      <trkpt lat="42.87843" lon="0.14155">
        <ele>2036.5</ele>
        <time>2015-04-01T10:59:27Z</time>
      </trkpt>
      <trkpt lat="42.8784" lon="0.1416">
        <ele>2037.6</ele>
        <time>2015-04-01T10:59:37Z</time>
      </trkpt>
      <trkpt lat="42.87833" lon="0.14165">
        <ele>2038.8</ele>
        <time>2015-04-01T10:59:47Z</time>
      </trkpt>
      <trkpt lat="42.87832" lon="0.14171">
        <ele>2040.3</ele>
        <time>2015-04-01T10:59:57Z</time>
      </trkpt>
      <trkpt lat="42.87827" lon="0.14176">
        <ele>2041</ele>
        <time>2015-04-01T11:00:07Z</time>
      </trkpt>
      <trkpt lat="42.87822" lon="0.14173">
        <ele>2042.2</ele>
        <time>2015-04-01T11:00:19Z</time>
      </trkpt>
      <trkpt lat="42.87814" lon="0.14171">
        <ele>2043.7</ele>
        <time>2015-04-01T11:00:33Z</time>
      </trkpt>
      <trkpt lat="42.87811" lon="0.14177">
        <ele>2044.7</ele>
        <time>2015-04-01T11:00:43Z</time>
      </trkpt>
      <trkpt lat="42.87811" lon="0.14186">
        <ele>2045</ele>
        <time>2015-04-01T11:00:53Z</time>
      </trkpt>
      <trkpt lat="42.87812" lon="0.14192">
        <ele>2045.1</ele>
        <time>2015-04-01T11:01:04Z</time>
      </trkpt>
      <trkpt lat="42.87815" lon="0.14198">
        <ele>2045.1</ele>
        <time>2015-04-01T11:01:17Z</time>
      </trkpt>
      <trkpt lat="42.87815" lon="0.14208">
        <ele>2045.5</ele>
        <time>2015-04-01T11:01:27Z</time>
      </trkpt>
      <trkpt lat="42.87816" lon="0.14217">
        <ele>2046.9</ele>
        <time>2015-04-01T11:01:37Z</time>
      </trkpt>
      <trkpt lat="42.87816" lon="0.14224">
        <ele>2050.8</ele>
        <time>2015-04-01T11:01:55Z</time>
      </trkpt>
      <trkpt lat="42.87813" lon="0.14228">
        <ele>2051</ele>
        <time>2015-04-01T11:02:05Z</time>
      </trkpt>
      <trkpt lat="42.87806" lon="0.14226">
        <ele>2052.8</ele>
        <time>2015-04-01T11:02:15Z</time>
      </trkpt>
      <trkpt lat="42.87802" lon="0.14219">
        <ele>2053.9</ele>
        <time>2015-04-01T11:02:25Z</time>
      </trkpt>
      <trkpt lat="42.87804" lon="0.14226">
        <ele>2054.7</ele>
        <time>2015-04-01T11:02:51Z</time>
      </trkpt>
      <trkpt lat="42.87799" lon="0.14225">
        <ele>2056</ele>
        <time>2015-04-01T11:03:01Z</time>
      </trkpt>
      <trkpt lat="42.87794" lon="0.14223">
        <ele>2057.5</ele>
        <time>2015-04-01T11:03:11Z</time>
      </trkpt>
      <trkpt lat="42.8779" lon="0.14226">
        <ele>2060.4</ele>
        <time>2015-04-01T11:03:25Z</time>
      </trkpt>
      <trkpt lat="42.87784" lon="0.14229">
        <ele>2061.7</ele>
        <time>2015-04-01T11:03:35Z</time>
      </trkpt>
      <trkpt lat="42.87779" lon="0.14231">
        <ele>2064.2</ele>
        <time>2015-04-01T11:03:45Z</time>
      </trkpt>
      <trkpt lat="42.87776" lon="0.14237">
        <ele>2065.9</ele>
        <time>2015-04-01T11:03:59Z</time>
      </trkpt>
      <trkpt lat="42.87773" lon="0.14242">
        <ele>2065.5</ele>
        <time>2015-04-01T11:04:13Z</time>
      </trkpt>
      <trkpt lat="42.87772" lon="0.14248">
        <ele>2065.6</ele>
        <time>2015-04-01T11:04:23Z</time>
      </trkpt>
      <trkpt lat="42.87771" lon="0.14249">
        <ele>2065.1</ele>
        <time>2015-04-01T11:05:03Z</time>
      </trkpt>
      <trkpt lat="42.87771" lon="0.14249">
        <ele>2065.1</ele>
        <time>2015-04-01T11:05:43Z</time>
      </trkpt>
      <trkpt lat="42.87763" lon="0.1425">
        <ele>2068.3</ele>
        <time>2015-04-01T11:05:53Z</time>
      </trkpt>
      <trkpt lat="42.87765" lon="0.14256">
        <ele>2069.4</ele>
        <time>2015-04-01T11:06:29Z</time>
      </trkpt>
      <trkpt lat="42.87765" lon="0.14257">
        <ele>2069.5</ele>
        <time>2015-04-01T11:07:10Z</time>
      </trkpt>
      <trkpt lat="42.87765" lon="0.14257">
        <ele>2069.5</ele>
        <time>2015-04-01T11:07:50Z</time>
      </trkpt>
      <trkpt lat="42.8776" lon="0.14249">
        <ele>2072</ele>
        <time>2015-04-01T11:08:30Z</time>
      </trkpt>
      <trkpt lat="42.87754" lon="0.14258">
        <ele>2072.1</ele>
        <time>2015-04-01T11:08:40Z</time>
      </trkpt>
      <trkpt lat="42.87753" lon="0.14259">
        <ele>2072.1</ele>
        <time>2015-04-01T11:09:20Z</time>
      </trkpt>
      <trkpt lat="42.87751" lon="0.14273">
        <ele>2073</ele>
        <time>2015-04-01T11:09:27Z</time>
      </trkpt>
      <trkpt lat="42.87746" lon="0.14285">
        <ele>2072.9</ele>
        <time>2015-04-01T11:09:37Z</time>
      </trkpt>
      <trkpt lat="42.8774" lon="0.14293">
        <ele>2073.2</ele>
        <time>2015-04-01T11:09:47Z</time>
      </trkpt>
      <trkpt lat="42.87736" lon="0.14306">
        <ele>2073.7</ele>
        <time>2015-04-01T11:09:55Z</time>
      </trkpt>
      <trkpt lat="42.87734" lon="0.14319">
        <ele>2073.9</ele>
        <time>2015-04-01T11:10:02Z</time>
      </trkpt>
      <trkpt lat="42.87729" lon="0.1433">
        <ele>2074</ele>
        <time>2015-04-01T11:10:10Z</time>
      </trkpt>
      <trkpt lat="42.87725" lon="0.14342">
        <ele>2074.2</ele>
        <time>2015-04-01T11:10:19Z</time>
      </trkpt>
      <trkpt lat="42.87721" lon="0.14353">
        <ele>2073.9</ele>
        <time>2015-04-01T11:10:25Z</time>
      </trkpt>
      <trkpt lat="42.8772" lon="0.1436">
        <ele>2074.5</ele>
        <time>2015-04-01T11:10:39Z</time>
      </trkpt>
      <trkpt lat="42.87717" lon="0.14373">
        <ele>2075.5</ele>
        <time>2015-04-01T11:10:49Z</time>
      </trkpt>
      <trkpt lat="42.87712" lon="0.14388">
        <ele>2075.7</ele>
        <time>2015-04-01T11:10:55Z</time>
      </trkpt>
      <trkpt lat="42.87717" lon="0.14391">
        <ele>2076.2</ele>
        <time>2015-04-01T11:11:05Z</time>
      </trkpt>
      <trkpt lat="42.8772" lon="0.14385">
        <ele>2076.4</ele>
        <time>2015-04-01T11:11:19Z</time>
      </trkpt>
      <trkpt lat="42.87723" lon="0.14394">
        <ele>2076.7</ele>
        <time>2015-04-01T11:11:30Z</time>
      </trkpt>
      <trkpt lat="42.87723" lon="0.14405">
        <ele>2076.7</ele>
        <time>2015-04-01T11:11:40Z</time>
      </trkpt>
      <trkpt lat="42.87723" lon="0.14412">
        <ele>2076.8</ele>
        <time>2015-04-01T11:11:50Z</time>
      </trkpt>
      <trkpt lat="42.87718" lon="0.14422">
        <ele>2076.7</ele>
        <time>2015-04-01T11:12:00Z</time>
      </trkpt>
      <trkpt lat="42.87712" lon="0.14434">
        <ele>2077.1</ele>
        <time>2015-04-01T11:12:09Z</time>
      </trkpt>
      <trkpt lat="42.87708" lon="0.14442">
        <ele>2078.2</ele>
        <time>2015-04-01T11:12:19Z</time>
      </trkpt>
      <trkpt lat="42.87706" lon="0.14453">
        <ele>2079.5</ele>
        <time>2015-04-01T11:12:29Z</time>
      </trkpt>
      <trkpt lat="42.87701" lon="0.14458">
        <ele>2079.7</ele>
        <time>2015-04-01T11:12:39Z</time>
      </trkpt>
      <trkpt lat="42.87696" lon="0.14461">
        <ele>2080.5</ele>
        <time>2015-04-01T11:12:49Z</time>
      </trkpt>
      <trkpt lat="42.8769" lon="0.14468">
        <ele>2081.6</ele>
        <time>2015-04-01T11:12:59Z</time>
      </trkpt>
      <trkpt lat="42.87685" lon="0.14474">
        <ele>2082.7</ele>
        <time>2015-04-01T11:13:09Z</time>
      </trkpt>
      <trkpt lat="42.87682" lon="0.1448">
        <ele>2085.2</ele>
        <time>2015-04-01T11:13:23Z</time>
      </trkpt>
      <trkpt lat="42.87677" lon="0.14487">
        <ele>2086.2</ele>
        <time>2015-04-01T11:13:33Z</time>
      </trkpt>
      <trkpt lat="42.87672" lon="0.1449">
        <ele>2088</ele>
        <time>2015-04-01T11:13:43Z</time>
      </trkpt>
      <trkpt lat="42.87667" lon="0.14497">
        <ele>2089.1</ele>
        <time>2015-04-01T11:13:53Z</time>
      </trkpt>
      <trkpt lat="42.87662" lon="0.14505">
        <ele>2090.4</ele>
        <time>2015-04-01T11:14:03Z</time>
      </trkpt>
      <trkpt lat="42.8766" lon="0.14517">
        <ele>2091.6</ele>
        <time>2015-04-01T11:14:13Z</time>
      </trkpt>
      <trkpt lat="42.87658" lon="0.14528">
        <ele>2092.1</ele>
        <time>2015-04-01T11:14:23Z</time>
      </trkpt>
      <trkpt lat="42.87653" lon="0.14537">
        <ele>2092.6</ele>
        <time>2015-04-01T11:14:33Z</time>
      </trkpt>
      <trkpt lat="42.8765" lon="0.14548">
        <ele>2093.4</ele>
        <time>2015-04-01T11:14:43Z</time>
      </trkpt>
      <trkpt lat="42.87649" lon="0.14554">
        <ele>2095.4</ele>
        <time>2015-04-01T11:14:58Z</time>
      </trkpt>
      <trkpt lat="42.8765" lon="0.14563">
        <ele>2095.9</ele>
        <time>2015-04-01T11:15:08Z</time>
      </trkpt>
      <trkpt lat="42.87647" lon="0.14573">
        <ele>2096.9</ele>
        <time>2015-04-01T11:15:18Z</time>
      </trkpt>
      <trkpt lat="42.87648" lon="0.1458">
        <ele>2098.6</ele>
        <time>2015-04-01T11:15:28Z</time>
      </trkpt>
      <trkpt lat="42.87649" lon="0.14587">
        <ele>2100.4</ele>
        <time>2015-04-01T11:15:38Z</time>
      </trkpt>
      <trkpt lat="42.8765" lon="0.14594">
        <ele>2101.5</ele>
        <time>2015-04-01T11:15:48Z</time>
      </trkpt>
      <trkpt lat="42.87652" lon="0.146">
        <ele>2102.4</ele>
        <time>2015-04-01T11:15:58Z</time>
      </trkpt>
      <trkpt lat="42.87655" lon="0.14606">
        <ele>2104.7</ele>
        <time>2015-04-01T11:16:08Z</time>
      </trkpt>
      <trkpt lat="42.87656" lon="0.14612">
        <ele>2106.4</ele>
        <time>2015-04-01T11:16:22Z</time>
      </trkpt>
      <trkpt lat="42.87655" lon="0.14624">
        <ele>2106.4</ele>
        <time>2015-04-01T11:16:32Z</time>
      </trkpt>
      <trkpt lat="42.87653" lon="0.14632">
        <ele>2106.3</ele>
        <time>2015-04-01T11:16:42Z</time>
      </trkpt>
      <trkpt lat="42.87654" lon="0.14641">
        <ele>2107.2</ele>
        <time>2015-04-01T11:16:52Z</time>
      </trkpt>
      <trkpt lat="42.87653" lon="0.1465">
        <ele>2107.9</ele>
        <time>2015-04-01T11:17:02Z</time>
      </trkpt>
      <trkpt lat="42.87654" lon="0.14662">
        <ele>2108.5</ele>
        <time>2015-04-01T11:17:12Z</time>
      </trkpt>
      <trkpt lat="42.87654" lon="0.14669">
        <ele>2108.8</ele>
        <time>2015-04-01T11:17:22Z</time>
      </trkpt>
      <trkpt lat="42.87649" lon="0.14681">
        <ele>2110.3</ele>
        <time>2015-04-01T11:17:42Z</time>
      </trkpt>
      <trkpt lat="42.87648" lon="0.14688">
        <ele>2114.6</ele>
        <time>2015-04-01T11:18:05Z</time>
      </trkpt>
      <trkpt lat="42.87647" lon="0.14698">
        <ele>2116.5</ele>
        <time>2015-04-01T11:18:27Z</time>
      </trkpt>
      <trkpt lat="42.87643" lon="0.14701">
        <ele>2118.1</ele>
        <time>2015-04-01T11:18:59Z</time>
      </trkpt>
      <trkpt lat="42.87641" lon="0.14708">
        <ele>2118.2</ele>
        <time>2015-04-01T11:19:09Z</time>
      </trkpt>
      <trkpt lat="42.87637" lon="0.14716">
        <ele>2118.6</ele>
        <time>2015-04-01T11:19:19Z</time>
      </trkpt>
      <trkpt lat="42.87634" lon="0.14725">
        <ele>2118.7</ele>
        <time>2015-04-01T11:19:30Z</time>
      </trkpt>
      <trkpt lat="42.87633" lon="0.14734">
        <ele>2118.4</ele>
        <time>2015-04-01T11:19:40Z</time>
      </trkpt>
      <trkpt lat="42.87629" lon="0.14744">
        <ele>2118.4</ele>
        <time>2015-04-01T11:19:50Z</time>
      </trkpt>
      <trkpt lat="42.87626" lon="0.14755">
        <ele>2118.7</ele>
        <time>2015-04-01T11:20:00Z</time>
      </trkpt>
      <trkpt lat="42.87623" lon="0.14764">
        <ele>2119</ele>
        <time>2015-04-01T11:20:10Z</time>
      </trkpt>
      <trkpt lat="42.87619" lon="0.14774">
        <ele>2119.3</ele>
        <time>2015-04-01T11:20:20Z</time>
      </trkpt>
      <trkpt lat="42.87616" lon="0.14781">
        <ele>2119.3</ele>
        <time>2015-04-01T11:20:30Z</time>
      </trkpt>
      <trkpt lat="42.87611" lon="0.14792">
        <ele>2119.4</ele>
        <time>2015-04-01T11:20:38Z</time>
      </trkpt>
      <trkpt lat="42.87607" lon="0.14803">
        <ele>2119.6</ele>
        <time>2015-04-01T11:20:47Z</time>
      </trkpt>
      <trkpt lat="42.87605" lon="0.14812">
        <ele>2119.8</ele>
        <time>2015-04-01T11:20:57Z</time>
      </trkpt>
      <trkpt lat="42.87602" lon="0.14819">
        <ele>2120.1</ele>
        <time>2015-04-01T11:21:07Z</time>
      </trkpt>
      <trkpt lat="42.87599" lon="0.14829">
        <ele>2120.4</ele>
        <time>2015-04-01T11:21:17Z</time>
      </trkpt>
      <trkpt lat="42.87597" lon="0.14835">
        <ele>2121</ele>
        <time>2015-04-01T11:21:27Z</time>
      </trkpt>
      <trkpt lat="42.87593" lon="0.14843">
        <ele>2121.8</ele>
        <time>2015-04-01T11:21:37Z</time>
      </trkpt>
      <trkpt lat="42.87591" lon="0.14851">
        <ele>2122.7</ele>
        <time>2015-04-01T11:21:47Z</time>
      </trkpt>
      <trkpt lat="42.87588" lon="0.1486">
        <ele>2123.3</ele>
        <time>2015-04-01T11:21:57Z</time>
      </trkpt>
      <trkpt lat="42.87585" lon="0.14866">
        <ele>2123.9</ele>
        <time>2015-04-01T11:22:07Z</time>
      </trkpt>
      <trkpt lat="42.87581" lon="0.14875">
        <ele>2124.7</ele>
        <time>2015-04-01T11:22:17Z</time>
      </trkpt>
      <trkpt lat="42.87578" lon="0.14885">
        <ele>2126.1</ele>
        <time>2015-04-01T11:22:27Z</time>
      </trkpt>
      <trkpt lat="42.87574" lon="0.1489">
        <ele>2127.4</ele>
        <time>2015-04-01T11:22:37Z</time>
      </trkpt>
      <trkpt lat="42.8757" lon="0.14898">
        <ele>2128.7</ele>
        <time>2015-04-01T11:22:47Z</time>
      </trkpt>
      <trkpt lat="42.87566" lon="0.14906">
        <ele>2129.8</ele>
        <time>2015-04-01T11:22:57Z</time>
      </trkpt>
      <trkpt lat="42.87564" lon="0.14914">
        <ele>2130.9</ele>
        <time>2015-04-01T11:23:07Z</time>
      </trkpt>
      <trkpt lat="42.8756" lon="0.14922">
        <ele>2132</ele>
        <time>2015-04-01T11:23:17Z</time>
      </trkpt>
      <trkpt lat="42.87558" lon="0.1493">
        <ele>2133.4</ele>
        <time>2015-04-01T11:23:27Z</time>
      </trkpt>
      <trkpt lat="42.87556" lon="0.1494">
        <ele>2135</ele>
        <time>2015-04-01T11:23:37Z</time>
      </trkpt>
      <trkpt lat="42.87555" lon="0.1495">
        <ele>2136.4</ele>
        <time>2015-04-01T11:23:47Z</time>
      </trkpt>
      <trkpt lat="42.87555" lon="0.1496">
        <ele>2137.7</ele>
        <time>2015-04-01T11:23:57Z</time>
      </trkpt>
      <trkpt lat="42.87557" lon="0.14972">
        <ele>2138.7</ele>
        <time>2015-04-01T11:24:07Z</time>
      </trkpt>
      <trkpt lat="42.87556" lon="0.14981">
        <ele>2139.9</ele>
        <time>2015-04-01T11:24:17Z</time>
      </trkpt>
      <trkpt lat="42.87555" lon="0.14994">
        <ele>2141.2</ele>
        <time>2015-04-01T11:24:28Z</time>
      </trkpt>
      <trkpt lat="42.87554" lon="0.15005">
        <ele>2142.1</ele>
        <time>2015-04-01T11:24:38Z</time>
      </trkpt>
      <trkpt lat="42.87554" lon="0.15016">
        <ele>2143</ele>
        <time>2015-04-01T11:24:48Z</time>
      </trkpt>
      <trkpt lat="42.87552" lon="0.15027">
        <ele>2144.3</ele>
        <time>2015-04-01T11:24:58Z</time>
      </trkpt>
      <trkpt lat="42.87553" lon="0.15032">
        <ele>2145</ele>
        <time>2015-04-01T11:25:38Z</time>
      </trkpt>
      <trkpt lat="42.87553" lon="0.15032">
        <ele>2145</ele>
        <time>2015-04-01T11:26:18Z</time>
      </trkpt>
      <trkpt lat="42.87548" lon="0.15036">
        <ele>2145.5</ele>
        <time>2015-04-01T11:26:40Z</time>
      </trkpt>
      <trkpt lat="42.87548" lon="0.15046">
        <ele>2145.4</ele>
        <time>2015-04-01T11:26:50Z</time>
      </trkpt>
      <trkpt lat="42.87545" lon="0.15058">
        <ele>2145.6</ele>
        <time>2015-04-01T11:27:00Z</time>
      </trkpt>
      <trkpt lat="42.87543" lon="0.1507">
        <ele>2145.4</ele>
        <time>2015-04-01T11:27:09Z</time>
      </trkpt>
      <trkpt lat="42.87541" lon="0.15082">
        <ele>2145.2</ele>
        <time>2015-04-01T11:27:19Z</time>
      </trkpt>
      <trkpt lat="42.87538" lon="0.15093">
        <ele>2145.1</ele>
        <time>2015-04-01T11:27:29Z</time>
      </trkpt>
      <trkpt lat="42.87535" lon="0.15105">
        <ele>2144.9</ele>
        <time>2015-04-01T11:27:39Z</time>
      </trkpt>
      <trkpt lat="42.87534" lon="0.15117">
        <ele>2145</ele>
        <time>2015-04-01T11:27:49Z</time>
      </trkpt>
      <trkpt lat="42.87533" lon="0.15129">
        <ele>2145.2</ele>
        <time>2015-04-01T11:27:59Z</time>
      </trkpt>
      <trkpt lat="42.87531" lon="0.15141">
        <ele>2145.5</ele>
        <time>2015-04-01T11:28:09Z</time>
      </trkpt>
      <trkpt lat="42.87529" lon="0.15153">
        <ele>2145.9</ele>
        <time>2015-04-01T11:28:19Z</time>
      </trkpt>
      <trkpt lat="42.8753" lon="0.15162">
        <ele>2146.4</ele>
        <time>2015-04-01T11:28:29Z</time>
      </trkpt>
      <trkpt lat="42.87528" lon="0.15174">
        <ele>2146.9</ele>
        <time>2015-04-01T11:28:39Z</time>
      </trkpt>
      <trkpt lat="42.87525" lon="0.15187">
        <ele>2147.5</ele>
        <time>2015-04-01T11:28:49Z</time>
      </trkpt>
      <trkpt lat="42.87523" lon="0.15193">
        <ele>2148.3</ele>
        <time>2015-04-01T11:28:59Z</time>
      </trkpt>
      <trkpt lat="42.87524" lon="0.152">
        <ele>2149.1</ele>
        <time>2015-04-01T11:29:18Z</time>
      </trkpt>
      <trkpt lat="42.87524" lon="0.1521">
        <ele>2149.7</ele>
        <time>2015-04-01T11:29:28Z</time>
      </trkpt>
      <trkpt lat="42.87524" lon="0.15213">
        <ele>2150</ele>
        <time>2015-04-01T11:30:09Z</time>
      </trkpt>
      <trkpt lat="42.87518" lon="0.15225">
        <ele>2148.1</ele>
        <time>2015-04-01T12:42:23Z</time>
      </trkpt>
      <trkpt lat="42.87523" lon="0.15225">
        <ele>2149.9</ele>
        <time>2015-04-01T12:43:02Z</time>
      </trkpt>
      <trkpt lat="42.87526" lon="0.15221">
        <ele>2150.1</ele>
        <time>2015-04-01T12:43:12Z</time>
      </trkpt>
      <trkpt lat="42.87529" lon="0.15215">
        <ele>2150.1</ele>
        <time>2015-04-01T12:43:36Z</time>
      </trkpt>
      <trkpt lat="42.87531" lon="0.15206">
        <ele>2150.1</ele>
        <time>2015-04-01T12:43:46Z</time>
      </trkpt>
      <trkpt lat="42.87535" lon="0.15197">
        <ele>2150.3</ele>
        <time>2015-04-01T12:43:56Z</time>
      </trkpt>
      <trkpt lat="42.87539" lon="0.15186">
        <ele>2150.1</ele>
        <time>2015-04-01T12:44:06Z</time>
      </trkpt>
      <trkpt lat="42.87544" lon="0.15175">
        <ele>2149.8</ele>
        <time>2015-04-01T12:44:15Z</time>
      </trkpt>
      <trkpt lat="42.87548" lon="0.15163">
        <ele>2149.5</ele>
        <time>2015-04-01T12:44:23Z</time>
      </trkpt>
      <trkpt lat="42.87553" lon="0.15153">
        <ele>2149.1</ele>
        <time>2015-04-01T12:44:33Z</time>
      </trkpt>
      <trkpt lat="42.8756" lon="0.15144">
        <ele>2148.3</ele>
        <time>2015-04-01T12:44:42Z</time>
      </trkpt>
      <trkpt lat="42.87567" lon="0.15137">
        <ele>2147.5</ele>
        <time>2015-04-01T12:44:52Z</time>
      </trkpt>
      <trkpt lat="42.87571" lon="0.15132">
        <ele>2146.5</ele>
        <time>2015-04-01T12:45:27Z</time>
      </trkpt>
      <trkpt lat="42.8757" lon="0.15132">
        <ele>2146.3</ele>
        <time>2015-04-01T12:46:08Z</time>
      </trkpt>
      <trkpt lat="42.87573" lon="0.15126">
        <ele>2146.4</ele>
        <time>2015-04-01T12:46:44Z</time>
      </trkpt>
      <trkpt lat="42.87577" lon="0.15117">
        <ele>2145.8</ele>
        <time>2015-04-01T12:46:54Z</time>
      </trkpt>
      <trkpt lat="42.87582" lon="0.1511">
        <ele>2145.3</ele>
        <time>2015-04-01T12:47:04Z</time>
      </trkpt>
      <trkpt lat="42.87586" lon="0.151">
        <ele>2145.3</ele>
        <time>2015-04-01T12:47:14Z</time>
      </trkpt>
      <trkpt lat="42.87592" lon="0.15094">
        <ele>2144.8</ele>
        <time>2015-04-01T12:47:24Z</time>
      </trkpt>
      <trkpt lat="42.87598" lon="0.15088">
        <ele>2144.2</ele>
        <time>2015-04-01T12:47:34Z</time>
      </trkpt>
      <trkpt lat="42.87604" lon="0.15083">
        <ele>2143.7</ele>
        <time>2015-04-01T12:47:44Z</time>
      </trkpt>
      <trkpt lat="42.87613" lon="0.15077">
        <ele>2143.3</ele>
        <time>2015-04-01T12:47:54Z</time>
      </trkpt>
      <trkpt lat="42.87617" lon="0.1507">
        <ele>2142.8</ele>
        <time>2015-04-01T12:48:04Z</time>
      </trkpt>
      <trkpt lat="42.8762" lon="0.15065">
        <ele>2142</ele>
        <time>2015-04-01T12:48:16Z</time>
      </trkpt>
      <trkpt lat="42.87624" lon="0.15059">
        <ele>2141.5</ele>
        <time>2015-04-01T12:48:26Z</time>
      </trkpt>
      <trkpt lat="42.87629" lon="0.15052">
        <ele>2140.7</ele>
        <time>2015-04-01T12:48:36Z</time>
      </trkpt>
      <trkpt lat="42.87635" lon="0.15044">
        <ele>2139.7</ele>
        <time>2015-04-01T12:48:46Z</time>
      </trkpt>
      <trkpt lat="42.87642" lon="0.15039">
        <ele>2138.8</ele>
        <time>2015-04-01T12:48:56Z</time>
      </trkpt>
      <trkpt lat="42.87647" lon="0.15036">
        <ele>2137.4</ele>
        <time>2015-04-01T12:49:06Z</time>
      </trkpt>
      <trkpt lat="42.87651" lon="0.15032">
        <ele>2136.7</ele>
        <time>2015-04-01T12:49:16Z</time>
      </trkpt>
      <trkpt lat="42.87658" lon="0.15025">
        <ele>2135.6</ele>
        <time>2015-04-01T12:49:26Z</time>
      </trkpt>
      <trkpt lat="42.87664" lon="0.15019">
        <ele>2134.5</ele>
        <time>2015-04-01T12:49:36Z</time>
      </trkpt>
      <trkpt lat="42.87668" lon="0.15012">
        <ele>2133.6</ele>
        <time>2015-04-01T12:49:46Z</time>
      </trkpt>
      <trkpt lat="42.87672" lon="0.15003">
        <ele>2132.9</ele>
        <time>2015-04-01T12:49:56Z</time>
      </trkpt>
      <trkpt lat="42.87678" lon="0.14998">
        <ele>2132.1</ele>
        <time>2015-04-01T12:50:06Z</time>
      </trkpt>
      <trkpt lat="42.87682" lon="0.14996">
        <ele>2131</ele>
        <time>2015-04-01T12:50:16Z</time>
      </trkpt>
      <trkpt lat="42.87687" lon="0.1499">
        <ele>2130.2</ele>
        <time>2015-04-01T12:50:26Z</time>
      </trkpt>
      <trkpt lat="42.87691" lon="0.14983">
        <ele>2129.4</ele>
        <time>2015-04-01T12:50:36Z</time>
      </trkpt>
      <trkpt lat="42.87691" lon="0.14977">
        <ele>2128.3</ele>
        <time>2015-04-01T12:50:55Z</time>
      </trkpt>
      <trkpt lat="42.87685" lon="0.14969">
        <ele>2128.1</ele>
        <time>2015-04-01T12:51:06Z</time>
      </trkpt>
      <trkpt lat="42.87683" lon="0.1496">
        <ele>2127.3</ele>
        <time>2015-04-01T12:51:16Z</time>
      </trkpt>
      <trkpt lat="42.87684" lon="0.14954">
        <ele>2126.3</ele>
        <time>2015-04-01T12:51:26Z</time>
      </trkpt>
      <trkpt lat="42.87686" lon="0.14945">
        <ele>2125.1</ele>
        <time>2015-04-01T12:51:36Z</time>
      </trkpt>
      <trkpt lat="42.87688" lon="0.14934">
        <ele>2123.9</ele>
        <time>2015-04-01T12:51:46Z</time>
      </trkpt>
      <trkpt lat="42.8769" lon="0.14925">
        <ele>2122.7</ele>
        <time>2015-04-01T12:51:56Z</time>
      </trkpt>
      <trkpt lat="42.87692" lon="0.14913">
        <ele>2121.1</ele>
        <time>2015-04-01T12:52:06Z</time>
      </trkpt>
      <trkpt lat="42.87691" lon="0.14903">
        <ele>2119.5</ele>
        <time>2015-04-01T12:52:16Z</time>
      </trkpt>
      <trkpt lat="42.87693" lon="0.14895">
        <ele>2118.3</ele>
        <time>2015-04-01T12:52:26Z</time>
      </trkpt>
      <trkpt lat="42.87696" lon="0.14884">
        <ele>2117.2</ele>
        <time>2015-04-01T12:52:36Z</time>
      </trkpt>
      <trkpt lat="42.87699" lon="0.14873">
        <ele>2116.1</ele>
        <time>2015-04-01T12:52:46Z</time>
      </trkpt>
      <trkpt lat="42.877" lon="0.14864">
        <ele>2114.6</ele>
        <time>2015-04-01T12:52:56Z</time>
      </trkpt>
      <trkpt lat="42.87703" lon="0.14858">
        <ele>2113.5</ele>
        <time>2015-04-01T12:53:06Z</time>
      </trkpt>
      <trkpt lat="42.87701" lon="0.1485">
        <ele>2112.8</ele>
        <time>2015-04-01T12:53:30Z</time>
      </trkpt>
      <trkpt lat="42.87702" lon="0.14842">
        <ele>2111.8</ele>
        <time>2015-04-01T12:53:40Z</time>
      </trkpt>
      <trkpt lat="42.87703" lon="0.14833">
        <ele>2110.8</ele>
        <time>2015-04-01T12:53:50Z</time>
      </trkpt>
      <trkpt lat="42.87703" lon="0.14826">
        <ele>2109.3</ele>
        <time>2015-04-01T12:54:00Z</time>
      </trkpt>
      <trkpt lat="42.87701" lon="0.1482">
        <ele>2107.5</ele>
        <time>2015-04-01T12:54:14Z</time>
      </trkpt>
      <trkpt lat="42.87701" lon="0.14811">
        <ele>2106.1</ele>
        <time>2015-04-01T12:54:24Z</time>
      </trkpt>
      <trkpt lat="42.87702" lon="0.14801">
        <ele>2105</ele>
        <time>2015-04-01T12:54:34Z</time>
      </trkpt>
      <trkpt lat="42.87702" lon="0.14791">
        <ele>2103.9</ele>
        <time>2015-04-01T12:54:44Z</time>
      </trkpt>
      <trkpt lat="42.87703" lon="0.1478">
        <ele>2102.8</ele>
        <time>2015-04-01T12:54:54Z</time>
      </trkpt>
      <trkpt lat="42.87703" lon="0.14772">
        <ele>2102</ele>
        <time>2015-04-01T12:55:04Z</time>
      </trkpt>
      <trkpt lat="42.87703" lon="0.14763">
        <ele>2101.2</ele>
        <time>2015-04-01T12:55:14Z</time>
      </trkpt>
      <trkpt lat="42.87701" lon="0.14754">
        <ele>2100.3</ele>
        <time>2015-04-01T12:55:24Z</time>
      </trkpt>
      <trkpt lat="42.87702" lon="0.14742">
        <ele>2099.1</ele>
        <time>2015-04-01T12:55:34Z</time>
      </trkpt>
      <trkpt lat="42.87705" lon="0.14733">
        <ele>2098.4</ele>
        <time>2015-04-01T12:55:44Z</time>
      </trkpt>
      <trkpt lat="42.87707" lon="0.14723">
        <ele>2097.3</ele>
        <time>2015-04-01T12:55:54Z</time>
      </trkpt>
      <trkpt lat="42.87712" lon="0.14713">
        <ele>2096.3</ele>
        <time>2015-04-01T12:56:04Z</time>
      </trkpt>
      <trkpt lat="42.87713" lon="0.14706">
        <ele>2095.6</ele>
        <time>2015-04-01T12:56:21Z</time>
      </trkpt>
      <trkpt lat="42.87717" lon="0.14699">
        <ele>2094.9</ele>
        <time>2015-04-01T12:56:31Z</time>
      </trkpt>
      <trkpt lat="42.87722" lon="0.14692">
        <ele>2094.1</ele>
        <time>2015-04-01T12:56:42Z</time>
      </trkpt>
      <trkpt lat="42.87729" lon="0.14686">
        <ele>2093.5</ele>
        <time>2015-04-01T12:56:52Z</time>
      </trkpt>
      <trkpt lat="42.87735" lon="0.14679">
        <ele>2092.8</ele>
        <time>2015-04-01T12:57:02Z</time>
      </trkpt>
      <trkpt lat="42.87738" lon="0.14674">
        <ele>2093.1</ele>
        <time>2015-04-01T12:57:24Z</time>
      </trkpt>
      <trkpt lat="42.87741" lon="0.14668">
        <ele>2092.7</ele>
        <time>2015-04-01T12:57:34Z</time>
      </trkpt>
      <trkpt lat="42.87742" lon="0.14659">
        <ele>2092.8</ele>
        <time>2015-04-01T12:57:44Z</time>
      </trkpt>
      <trkpt lat="42.87748" lon="0.14652">
        <ele>2093.4</ele>
        <time>2015-04-01T12:57:54Z</time>
      </trkpt>
      <trkpt lat="42.87751" lon="0.14652">
        <ele>2093.7</ele>
        <time>2015-04-01T12:58:34Z</time>
      </trkpt>
      <trkpt lat="42.87751" lon="0.14652">
        <ele>2093.7</ele>
        <time>2015-04-01T12:59:14Z</time>
      </trkpt>
      <trkpt lat="42.87751" lon="0.14652">
        <ele>2093.7</ele>
        <time>2015-04-01T12:59:54Z</time>
      </trkpt>
      <trkpt lat="42.87744" lon="0.1465">
        <ele>2092.5</ele>
        <time>2015-04-01T13:00:04Z</time>
      </trkpt>
      <trkpt lat="42.87745" lon="0.14644">
        <ele>2092.9</ele>
        <time>2015-04-01T13:00:15Z</time>
      </trkpt>
      <trkpt lat="42.87748" lon="0.14634">
        <ele>2093</ele>
        <time>2015-04-01T13:00:25Z</time>
      </trkpt>
      <trkpt lat="42.87752" lon="0.14622">
        <ele>2093</ele>
        <time>2015-04-01T13:00:35Z</time>
      </trkpt>
      <trkpt lat="42.87756" lon="0.14611">
        <ele>2092.7</ele>
        <time>2015-04-01T13:00:45Z</time>
      </trkpt>
      <trkpt lat="42.8776" lon="0.146">
        <ele>2092.6</ele>
        <time>2015-04-01T13:00:55Z</time>
      </trkpt>
      <trkpt lat="42.87766" lon="0.14593">
        <ele>2092.3</ele>
        <time>2015-04-01T13:01:05Z</time>
      </trkpt>
      <trkpt lat="42.87773" lon="0.14586">
        <ele>2092.2</ele>
        <time>2015-04-01T13:01:15Z</time>
      </trkpt>
      <trkpt lat="42.87779" lon="0.14578">
        <ele>2091.6</ele>
        <time>2015-04-01T13:01:25Z</time>
      </trkpt>
      <trkpt lat="42.87783" lon="0.14569">
        <ele>2091.1</ele>
        <time>2015-04-01T13:01:35Z</time>
      </trkpt>
      <trkpt lat="42.87788" lon="0.1456">
        <ele>2090.6</ele>
        <time>2015-04-01T13:01:45Z</time>
      </trkpt>
      <trkpt lat="42.87793" lon="0.14552">
        <ele>2089.7</ele>
        <time>2015-04-01T13:01:56Z</time>
      </trkpt>
      <trkpt lat="42.87798" lon="0.14545">
        <ele>2089</ele>
        <time>2015-04-01T13:02:06Z</time>
      </trkpt>
      <trkpt lat="42.87802" lon="0.14539">
        <ele>2088.6</ele>
        <time>2015-04-01T13:02:16Z</time>
      </trkpt>
      <trkpt lat="42.87804" lon="0.1453">
        <ele>2088.5</ele>
        <time>2015-04-01T13:02:26Z</time>
      </trkpt>
      <trkpt lat="42.87806" lon="0.14526">
        <ele>2088.4</ele>
        <time>2015-04-01T13:03:06Z</time>
      </trkpt>
      <trkpt lat="42.87806" lon="0.14526">
        <ele>2088.4</ele>
        <time>2015-04-01T13:03:46Z</time>
      </trkpt>
      <trkpt lat="42.87806" lon="0.14526">
        <ele>2088.4</ele>
        <time>2015-04-01T13:04:26Z</time>
      </trkpt>
      <trkpt lat="42.87806" lon="0.14526">
        <ele>2088.4</ele>
        <time>2015-04-01T13:05:06Z</time>
      </trkpt>
      <trkpt lat="42.87806" lon="0.14526">
        <ele>2088.4</ele>
        <time>2015-04-01T13:05:46Z</time>
      </trkpt>
      <trkpt lat="42.87806" lon="0.14526">
        <ele>2088.4</ele>
        <time>2015-04-01T13:06:26Z</time>
      </trkpt>
      <trkpt lat="42.87808" lon="0.1452">
        <ele>2089.6</ele>
        <time>2015-04-01T13:06:39Z</time>
      </trkpt>
      <trkpt lat="42.87809" lon="0.14513">
        <ele>2089.8</ele>
        <time>2015-04-01T13:06:57Z</time>
      </trkpt>
      <trkpt lat="42.87809" lon="0.14507">
        <ele>2088.5</ele>
        <time>2015-04-01T13:07:10Z</time>
      </trkpt>
      <trkpt lat="42.87807" lon="0.14499">
        <ele>2088</ele>
        <time>2015-04-01T13:07:20Z</time>
      </trkpt>
      <trkpt lat="42.87803" lon="0.1449">
        <ele>2086.4</ele>
        <time>2015-04-01T13:07:30Z</time>
      </trkpt>
      <trkpt lat="42.87801" lon="0.14481">
        <ele>2085</ele>
        <time>2015-04-01T13:07:40Z</time>
      </trkpt>
      <trkpt lat="42.87799" lon="0.14469">
        <ele>2083.7</ele>
        <time>2015-04-01T13:07:50Z</time>
      </trkpt>
      <trkpt lat="42.87799" lon="0.14465">
        <ele>2082.4</ele>
        <time>2015-04-01T13:08:30Z</time>
      </trkpt>
      <trkpt lat="42.878" lon="0.14456">
        <ele>2083</ele>
        <time>2015-04-01T13:08:40Z</time>
      </trkpt>
      <trkpt lat="42.87799" lon="0.14445">
        <ele>2082.9</ele>
        <time>2015-04-01T13:08:50Z</time>
      </trkpt>
      <trkpt lat="42.87797" lon="0.14435">
        <ele>2082.7</ele>
        <time>2015-04-01T13:09:00Z</time>
      </trkpt>
      <trkpt lat="42.87795" lon="0.14426">
        <ele>2081.9</ele>
        <time>2015-04-01T13:09:10Z</time>
      </trkpt>
      <trkpt lat="42.87796" lon="0.14417">
        <ele>2081.6</ele>
        <time>2015-04-01T13:09:20Z</time>
      </trkpt>
      <trkpt lat="42.87796" lon="0.14409">
        <ele>2081.9</ele>
        <time>2015-04-01T13:09:30Z</time>
      </trkpt>
      <trkpt lat="42.87794" lon="0.144">
        <ele>2081.4</ele>
        <time>2015-04-01T13:09:40Z</time>
      </trkpt>
      <trkpt lat="42.87796" lon="0.14389">
        <ele>2081.1</ele>
        <time>2015-04-01T13:09:50Z</time>
      </trkpt>
      <trkpt lat="42.87801" lon="0.14379">
        <ele>2080.5</ele>
        <time>2015-04-01T13:10:00Z</time>
      </trkpt>
      <trkpt lat="42.87807" lon="0.14372">
        <ele>2079.7</ele>
        <time>2015-04-01T13:10:10Z</time>
      </trkpt>
      <trkpt lat="42.87814" lon="0.14366">
        <ele>2078.9</ele>
        <time>2015-04-01T13:10:20Z</time>
      </trkpt>
      <trkpt lat="42.87821" lon="0.14359">
        <ele>2077.9</ele>
        <time>2015-04-01T13:10:30Z</time>
      </trkpt>
      <trkpt lat="42.87826" lon="0.14352">
        <ele>2077</ele>
        <time>2015-04-01T13:10:40Z</time>
      </trkpt>
      <trkpt lat="42.87829" lon="0.14345">
        <ele>2076.3</ele>
        <time>2015-04-01T13:10:50Z</time>
      </trkpt>
      <trkpt lat="42.87831" lon="0.14339">
        <ele>2075.2</ele>
        <time>2015-04-01T13:11:00Z</time>
      </trkpt>
      <trkpt lat="42.87834" lon="0.14332">
        <ele>2074.2</ele>
        <time>2015-04-01T13:11:10Z</time>
      </trkpt>
      <trkpt lat="42.87836" lon="0.14325">
        <ele>2073.5</ele>
        <time>2015-04-01T13:11:20Z</time>
      </trkpt>
      <trkpt lat="42.87838" lon="0.14318">
        <ele>2072.6</ele>
        <time>2015-04-01T13:11:30Z</time>
      </trkpt>
      <trkpt lat="42.8784" lon="0.14309">
        <ele>2071.8</ele>
        <time>2015-04-01T13:11:40Z</time>
      </trkpt>
      <trkpt lat="42.87843" lon="0.14303">
        <ele>2071.1</ele>
        <time>2015-04-01T13:11:50Z</time>
      </trkpt>
      <trkpt lat="42.87846" lon="0.14297">
        <ele>2070.1</ele>
        <time>2015-04-01T13:12:00Z</time>
      </trkpt>
      <trkpt lat="42.87848" lon="0.14287">
        <ele>2069.3</ele>
        <time>2015-04-01T13:12:10Z</time>
      </trkpt>
      <trkpt lat="42.8785" lon="0.14281">
        <ele>2068.8</ele>
        <time>2015-04-01T13:12:30Z</time>
      </trkpt>
      <trkpt lat="42.87852" lon="0.14272">
        <ele>2068.4</ele>
        <time>2015-04-01T13:12:40Z</time>
      </trkpt>
      <trkpt lat="42.87857" lon="0.14269">
        <ele>2067.6</ele>
        <time>2015-04-01T13:13:18Z</time>
      </trkpt>
      <trkpt lat="42.87862" lon="0.14268">
        <ele>2067.3</ele>
        <time>2015-04-01T13:13:28Z</time>
      </trkpt>
      <trkpt lat="42.87867" lon="0.14267">
        <ele>2067</ele>
        <time>2015-04-01T13:13:38Z</time>
      </trkpt>
      <trkpt lat="42.87865" lon="0.14256">
        <ele>2066.3</ele>
        <time>2015-04-01T13:13:48Z</time>
      </trkpt>
      <trkpt lat="42.8787" lon="0.14251">
        <ele>2065.9</ele>
        <time>2015-04-01T13:13:58Z</time>
      </trkpt>
      <trkpt lat="42.87876" lon="0.14245">
        <ele>2065.6</ele>
        <time>2015-04-01T13:14:08Z</time>
      </trkpt>
      <trkpt lat="42.87876" lon="0.14239">
        <ele>2065.6</ele>
        <time>2015-04-01T13:14:20Z</time>
      </trkpt>
      <trkpt lat="42.87873" lon="0.14231">
        <ele>2065.6</ele>
        <time>2015-04-01T13:14:30Z</time>
      </trkpt>
      <trkpt lat="42.87873" lon="0.1423">
        <ele>2065.7</ele>
        <time>2015-04-01T13:15:10Z</time>
      </trkpt>
      <trkpt lat="42.87868" lon="0.14219">
        <ele>2064.5</ele>
        <time>2015-04-01T13:15:16Z</time>
      </trkpt>
      <trkpt lat="42.87865" lon="0.14211">
        <ele>2064.3</ele>
        <time>2015-04-01T13:15:31Z</time>
      </trkpt>
      <trkpt lat="42.87868" lon="0.14204">
        <ele>2064.3</ele>
        <time>2015-04-01T13:15:45Z</time>
      </trkpt>
      <trkpt lat="42.87867" lon="0.14194">
        <ele>2063.3</ele>
        <time>2015-04-01T13:16:12Z</time>
      </trkpt>
      <trkpt lat="42.87867" lon="0.14184">
        <ele>2062.9</ele>
        <time>2015-04-01T13:16:22Z</time>
      </trkpt>
      <trkpt lat="42.87864" lon="0.14175">
        <ele>2062.4</ele>
        <time>2015-04-01T13:16:33Z</time>
      </trkpt>
      <trkpt lat="42.87863" lon="0.14167">
        <ele>2062.1</ele>
        <time>2015-04-01T13:16:43Z</time>
      </trkpt>
      <trkpt lat="42.87864" lon="0.14159">
        <ele>2061.8</ele>
        <time>2015-04-01T13:16:53Z</time>
      </trkpt>
      <trkpt lat="42.87856" lon="0.1415">
        <ele>2061.3</ele>
        <time>2015-04-01T13:17:02Z</time>
      </trkpt>
      <trkpt lat="42.87848" lon="0.14145">
        <ele>2060.8</ele>
        <time>2015-04-01T13:17:09Z</time>
      </trkpt>
      <trkpt lat="42.87841" lon="0.14143">
        <ele>2060.2</ele>
        <time>2015-04-01T13:17:19Z</time>
      </trkpt>
      <trkpt lat="42.87836" lon="0.14142">
        <ele>2059.6</ele>
        <time>2015-04-01T13:17:37Z</time>
      </trkpt>
      <trkpt lat="42.87842" lon="0.14137">
        <ele>2058.4</ele>
        <time>2015-04-01T13:17:55Z</time>
      </trkpt>
      <trkpt lat="42.87847" lon="0.14132">
        <ele>2058.1</ele>
        <time>2015-04-01T13:18:05Z</time>
      </trkpt>
      <trkpt lat="42.87848" lon="0.14133">
        <ele>2057.7</ele>
        <time>2015-04-01T13:18:46Z</time>
      </trkpt>
      <trkpt lat="42.87852" lon="0.14129">
        <ele>2056.5</ele>
        <time>2015-04-01T13:19:12Z</time>
      </trkpt>
      <trkpt lat="42.87853" lon="0.14123">
        <ele>2055.5</ele>
        <time>2015-04-01T13:19:24Z</time>
      </trkpt>
      <trkpt lat="42.87856" lon="0.14116">
        <ele>2054.8</ele>
        <time>2015-04-01T13:19:34Z</time>
      </trkpt>
      <trkpt lat="42.87859" lon="0.14111">
        <ele>2053.2</ele>
        <time>2015-04-01T13:19:53Z</time>
      </trkpt>
      <trkpt lat="42.87863" lon="0.14103">
        <ele>2052.1</ele>
        <time>2015-04-01T13:20:03Z</time>
      </trkpt>
      <trkpt lat="42.8787" lon="0.14097">
        <ele>2050.4</ele>
        <time>2015-04-01T13:20:20Z</time>
      </trkpt>
      <trkpt lat="42.87878" lon="0.14093">
        <ele>2049.2</ele>
        <time>2015-04-01T13:20:30Z</time>
      </trkpt>
      <trkpt lat="42.87883" lon="0.14085">
        <ele>2048.1</ele>
        <time>2015-04-01T13:20:40Z</time>
      </trkpt>
      <trkpt lat="42.87884" lon="0.14078">
        <ele>2046.9</ele>
        <time>2015-04-01T13:20:50Z</time>
      </trkpt>
      <trkpt lat="42.8789" lon="0.1407">
        <ele>2045.8</ele>
        <time>2015-04-01T13:21:00Z</time>
      </trkpt>
      <trkpt lat="42.87893" lon="0.14064">
        <ele>2044.6</ele>
        <time>2015-04-01T13:21:10Z</time>
      </trkpt>
      <trkpt lat="42.87892" lon="0.14065">
        <ele>2044.4</ele>
        <time>2015-04-01T13:21:50Z</time>
      </trkpt>
      <trkpt lat="42.87892" lon="0.14065">
        <ele>2044.4</ele>
        <time>2015-04-01T13:22:30Z</time>
      </trkpt>
      <trkpt lat="42.87892" lon="0.14058">
        <ele>2038.4</ele>
        <time>2015-04-01T13:23:02Z</time>
      </trkpt>
      <trkpt lat="42.87896" lon="0.14047">
        <ele>2037.2</ele>
        <time>2015-04-01T13:23:12Z</time>
      </trkpt>
      <trkpt lat="42.879" lon="0.14038">
        <ele>2036.7</ele>
        <time>2015-04-01T13:23:22Z</time>
      </trkpt>
      <trkpt lat="42.87904" lon="0.14028">
        <ele>2036.2</ele>
        <time>2015-04-01T13:23:33Z</time>
      </trkpt>
      <trkpt lat="42.87908" lon="0.14022">
        <ele>2035.5</ele>
        <time>2015-04-01T13:23:43Z</time>
      </trkpt>
      <trkpt lat="42.87911" lon="0.14017">
        <ele>2034.7</ele>
        <time>2015-04-01T13:23:53Z</time>
      </trkpt>
      <trkpt lat="42.87913" lon="0.14006">
        <ele>2033.7</ele>
        <time>2015-04-01T13:24:03Z</time>
      </trkpt>
      <trkpt lat="42.87914" lon="0.13999">
        <ele>2032.7</ele>
        <time>2015-04-01T13:24:13Z</time>
      </trkpt>
      <trkpt lat="42.87913" lon="0.13989">
        <ele>2032</ele>
        <time>2015-04-01T13:24:23Z</time>
      </trkpt>
      <trkpt lat="42.87911" lon="0.13976">
        <ele>2031.3</ele>
        <time>2015-04-01T13:24:32Z</time>
      </trkpt>
      <trkpt lat="42.87912" lon="0.13966">
        <ele>2030.8</ele>
        <time>2015-04-01T13:24:42Z</time>
      </trkpt>
      <trkpt lat="42.87915" lon="0.13957">
        <ele>2030.2</ele>
        <time>2015-04-01T13:24:52Z</time>
      </trkpt>
      <trkpt lat="42.8792" lon="0.13948">
        <ele>2029.5</ele>
        <time>2015-04-01T13:25:02Z</time>
      </trkpt>
      <trkpt lat="42.87925" lon="0.13939">
        <ele>2028.7</ele>
        <time>2015-04-01T13:25:12Z</time>
      </trkpt>
      <trkpt lat="42.87928" lon="0.13932">
        <ele>2027.9</ele>
        <time>2015-04-01T13:25:22Z</time>
      </trkpt>
      <trkpt lat="42.87929" lon="0.13924">
        <ele>2026.6</ele>
        <time>2015-04-01T13:25:32Z</time>
      </trkpt>
      <trkpt lat="42.87934" lon="0.13918">
        <ele>2025</ele>
        <time>2015-04-01T13:25:42Z</time>
      </trkpt>
      <trkpt lat="42.87938" lon="0.13911">
        <ele>2023.5</ele>
        <time>2015-04-01T13:25:52Z</time>
      </trkpt>
      <trkpt lat="42.8794" lon="0.13901">
        <ele>2022.3</ele>
        <time>2015-04-01T13:26:02Z</time>
      </trkpt>
      <trkpt lat="42.87944" lon="0.13891">
        <ele>2021.3</ele>
        <time>2015-04-01T13:26:12Z</time>
      </trkpt>
      <trkpt lat="42.87947" lon="0.13884">
        <ele>2020.3</ele>
        <time>2015-04-01T13:26:22Z</time>
      </trkpt>
      <trkpt lat="42.87947" lon="0.13877">
        <ele>2019.4</ele>
        <time>2015-04-01T13:26:32Z</time>
      </trkpt>
      <trkpt lat="42.87943" lon="0.13868">
        <ele>2018.8</ele>
        <time>2015-04-01T13:26:48Z</time>
      </trkpt>
      <trkpt lat="42.87945" lon="0.13861">
        <ele>2018.4</ele>
        <time>2015-04-01T13:26:58Z</time>
      </trkpt>
      <trkpt lat="42.87944" lon="0.13851">
        <ele>2018.1</ele>
        <time>2015-04-01T13:27:08Z</time>
      </trkpt>
      <trkpt lat="42.87944" lon="0.13848">
        <ele>2017.5</ele>
        <time>2015-04-01T13:27:48Z</time>
      </trkpt>
      <trkpt lat="42.87944" lon="0.13848">
        <ele>2017.5</ele>
        <time>2015-04-01T13:28:29Z</time>
      </trkpt>
      <trkpt lat="42.87944" lon="0.13848">
        <ele>2017.5</ele>
        <time>2015-04-01T13:29:09Z</time>
      </trkpt>
      <trkpt lat="42.87949" lon="0.13837">
        <ele>2014.1</ele>
        <time>2015-04-01T13:29:19Z</time>
      </trkpt>
      <trkpt lat="42.8795" lon="0.13826">
        <ele>2013.6</ele>
        <time>2015-04-01T13:29:29Z</time>
      </trkpt>
      <trkpt lat="42.87951" lon="0.13816">
        <ele>2013.4</ele>
        <time>2015-04-01T13:29:39Z</time>
      </trkpt>
      <trkpt lat="42.87952" lon="0.13806">
        <ele>2012.9</ele>
        <time>2015-04-01T13:29:49Z</time>
      </trkpt>
      <trkpt lat="42.87957" lon="0.13798">
        <ele>2012.5</ele>
        <time>2015-04-01T13:29:59Z</time>
      </trkpt>
      <trkpt lat="42.87963" lon="0.13787">
        <ele>2011.7</ele>
        <time>2015-04-01T13:30:09Z</time>
      </trkpt>
      <trkpt lat="42.87963" lon="0.13774">
        <ele>2011.1</ele>
        <time>2015-04-01T13:30:18Z</time>
      </trkpt>
      <trkpt lat="42.87965" lon="0.13763">
        <ele>2010.3</ele>
        <time>2015-04-01T13:30:28Z</time>
      </trkpt>
      <trkpt lat="42.87966" lon="0.13752">
        <ele>2009.3</ele>
        <time>2015-04-01T13:30:38Z</time>
      </trkpt>
      <trkpt lat="42.87967" lon="0.13742">
        <ele>2008.6</ele>
        <time>2015-04-01T13:30:48Z</time>
      </trkpt>
      <trkpt lat="42.87972" lon="0.13733">
        <ele>2007.9</ele>
        <time>2015-04-01T13:30:58Z</time>
      </trkpt>
      <trkpt lat="42.87978" lon="0.13724">
        <ele>2007.3</ele>
        <time>2015-04-01T13:31:08Z</time>
      </trkpt>
      <trkpt lat="42.87986" lon="0.13715">
        <ele>2006.9</ele>
        <time>2015-04-01T13:31:16Z</time>
      </trkpt>
      <trkpt lat="42.87987" lon="0.13709">
        <ele>2006.4</ele>
        <time>2015-04-01T13:31:29Z</time>
      </trkpt>
      <trkpt lat="42.8799" lon="0.13699">
        <ele>2006.2</ele>
        <time>2015-04-01T13:31:39Z</time>
      </trkpt>
      <trkpt lat="42.87994" lon="0.13689">
        <ele>2005.9</ele>
        <time>2015-04-01T13:31:49Z</time>
      </trkpt>
      <trkpt lat="42.87995" lon="0.13683">
        <ele>2004.9</ele>
        <time>2015-04-01T13:32:06Z</time>
      </trkpt>
      <trkpt lat="42.88" lon="0.13672">
        <ele>2004.9</ele>
        <time>2015-04-01T13:32:16Z</time>
      </trkpt>
      <trkpt lat="42.88" lon="0.13663">
        <ele>2004.4</ele>
        <time>2015-04-01T13:32:26Z</time>
      </trkpt>
      <trkpt lat="42.88003" lon="0.13654">
        <ele>2003.8</ele>
        <time>2015-04-01T13:32:36Z</time>
      </trkpt>
      <trkpt lat="42.88008" lon="0.13649">
        <ele>2003.3</ele>
        <time>2015-04-01T13:32:46Z</time>
      </trkpt>
      <trkpt lat="42.8801" lon="0.13643">
        <ele>2002.9</ele>
        <time>2015-04-01T13:32:56Z</time>
      </trkpt>
      <trkpt lat="42.88014" lon="0.13633">
        <ele>2002.1</ele>
        <time>2015-04-01T13:33:06Z</time>
      </trkpt>
      <trkpt lat="42.88019" lon="0.13626">
        <ele>2001.3</ele>
        <time>2015-04-01T13:33:17Z</time>
      </trkpt>
      <trkpt lat="42.88021" lon="0.13618">
        <ele>2000.9</ele>
        <time>2015-04-01T13:33:27Z</time>
      </trkpt>
      <trkpt lat="42.88029" lon="0.13609">
        <ele>2000.5</ele>
        <time>2015-04-01T13:33:37Z</time>
      </trkpt>
      <trkpt lat="42.88032" lon="0.136">
        <ele>1999.7</ele>
        <time>2015-04-01T13:33:47Z</time>
      </trkpt>
      <trkpt lat="42.88035" lon="0.13589">
        <ele>1999.2</ele>
        <time>2015-04-01T13:33:57Z</time>
      </trkpt>
      <trkpt lat="42.88038" lon="0.13582">
        <ele>1998.6</ele>
        <time>2015-04-01T13:34:07Z</time>
      </trkpt>
      <trkpt lat="42.88042" lon="0.13572">
        <ele>1997.7</ele>
        <time>2015-04-01T13:34:17Z</time>
      </trkpt>
      <trkpt lat="42.88044" lon="0.13562">
        <ele>1997</ele>
        <time>2015-04-01T13:34:27Z</time>
      </trkpt>
      <trkpt lat="42.88047" lon="0.13558">
        <ele>1995.8</ele>
        <time>2015-04-01T13:34:38Z</time>
      </trkpt>
      <trkpt lat="42.88049" lon="0.13552">
        <ele>1994.2</ele>
        <time>2015-04-01T13:34:50Z</time>
      </trkpt>
      <trkpt lat="42.88054" lon="0.13548">
        <ele>1993.2</ele>
        <time>2015-04-01T13:35:00Z</time>
      </trkpt>
      <trkpt lat="42.88058" lon="0.13544">
        <ele>1992</ele>
        <time>2015-04-01T13:35:10Z</time>
      </trkpt>
      <trkpt lat="42.88063" lon="0.13542">
        <ele>1990.4</ele>
        <time>2015-04-01T13:35:21Z</time>
      </trkpt>
      <trkpt lat="42.88068" lon="0.13537">
        <ele>1988.7</ele>
        <time>2015-04-01T13:35:31Z</time>
      </trkpt>
      <trkpt lat="42.88075" lon="0.13532">
        <ele>1987.3</ele>
        <time>2015-04-01T13:35:41Z</time>
      </trkpt>
      <trkpt lat="42.88078" lon="0.13525">
        <ele>1984.9</ele>
        <time>2015-04-01T13:36:02Z</time>
      </trkpt>
      <trkpt lat="42.88081" lon="0.13518">
        <ele>1984</ele>
        <time>2015-04-01T13:36:12Z</time>
      </trkpt>
      <trkpt lat="42.88086" lon="0.13509">
        <ele>1982.8</ele>
        <time>2015-04-01T13:36:22Z</time>
      </trkpt>
      <trkpt lat="42.88093" lon="0.135">
        <ele>1981.8</ele>
        <time>2015-04-01T13:36:31Z</time>
      </trkpt>
      <trkpt lat="42.88096" lon="0.13488">
        <ele>1981.1</ele>
        <time>2015-04-01T13:36:41Z</time>
      </trkpt>
      <trkpt lat="42.88096" lon="0.13478">
        <ele>1980</ele>
        <time>2015-04-01T13:36:51Z</time>
      </trkpt>
      <trkpt lat="42.88098" lon="0.13466">
        <ele>1978.9</ele>
        <time>2015-04-01T13:37:01Z</time>
      </trkpt>
      <trkpt lat="42.88098" lon="0.13456">
        <ele>1977.4</ele>
        <time>2015-04-01T13:37:11Z</time>
      </trkpt>
      <trkpt lat="42.88098" lon="0.13448">
        <ele>1976.3</ele>
        <time>2015-04-01T13:37:21Z</time>
      </trkpt>
      <trkpt lat="42.88101" lon="0.13442">
        <ele>1975.3</ele>
        <time>2015-04-01T13:37:31Z</time>
      </trkpt>
      <trkpt lat="42.88105" lon="0.13438">
        <ele>1972.2</ele>
        <time>2015-04-01T13:37:58Z</time>
      </trkpt>
      <trkpt lat="42.88103" lon="0.1343">
        <ele>1971.7</ele>
        <time>2015-04-01T13:38:08Z</time>
      </trkpt>
      <trkpt lat="42.88101" lon="0.1343">
        <ele>1971.4</ele>
        <time>2015-04-01T13:38:49Z</time>
      </trkpt>
      <trkpt lat="42.88092" lon="0.13429">
        <ele>1969.8</ele>
        <time>2015-04-01T13:39:21Z</time>
      </trkpt>
      <trkpt lat="42.88099" lon="0.13429">
        <ele>1968.9</ele>
        <time>2015-04-01T13:39:46Z</time>
      </trkpt>
      <trkpt lat="42.88101" lon="0.13417">
        <ele>1968.9</ele>
        <time>2015-04-01T13:39:56Z</time>
      </trkpt>
      <trkpt lat="42.88104" lon="0.13406">
        <ele>1968.2</ele>
        <time>2015-04-01T13:40:06Z</time>
      </trkpt>
      <trkpt lat="42.8811" lon="0.13401">
        <ele>1967.6</ele>
        <time>2015-04-01T13:40:16Z</time>
      </trkpt>
      <trkpt lat="42.88112" lon="0.13393">
        <ele>1966.7</ele>
        <time>2015-04-01T13:40:30Z</time>
      </trkpt>
      <trkpt lat="42.88113" lon="0.13381">
        <ele>1966</ele>
        <time>2015-04-01T13:40:40Z</time>
      </trkpt>
      <trkpt lat="42.88108" lon="0.13371">
        <ele>1965.3</ele>
        <time>2015-04-01T13:40:49Z</time>
      </trkpt>
      <trkpt lat="42.88109" lon="0.1336">
        <ele>1964.8</ele>
        <time>2015-04-01T13:40:59Z</time>
      </trkpt>
      <trkpt lat="42.88113" lon="0.13348">
        <ele>1964.4</ele>
        <time>2015-04-01T13:41:07Z</time>
      </trkpt>
      <trkpt lat="42.8811" lon="0.13337">
        <ele>1963.9</ele>
        <time>2015-04-01T13:41:17Z</time>
      </trkpt>
      <trkpt lat="42.88111" lon="0.13325">
        <ele>1963.1</ele>
        <time>2015-04-01T13:41:27Z</time>
      </trkpt>
      <trkpt lat="42.88114" lon="0.13317">
        <ele>1962.3</ele>
        <time>2015-04-01T13:41:37Z</time>
      </trkpt>
      <trkpt lat="42.88117" lon="0.13305">
        <ele>1961.6</ele>
        <time>2015-04-01T13:41:47Z</time>
      </trkpt>
      <trkpt lat="42.8812" lon="0.13299">
        <ele>1960.6</ele>
        <time>2015-04-01T13:41:57Z</time>
      </trkpt>
      <trkpt lat="42.8812" lon="0.1329">
        <ele>1960</ele>
        <time>2015-04-01T13:42:07Z</time>
      </trkpt>
      <trkpt lat="42.88122" lon="0.13278">
        <ele>1959.5</ele>
        <time>2015-04-01T13:42:17Z</time>
      </trkpt>
      <trkpt lat="42.88125" lon="0.13268">
        <ele>1958.6</ele>
        <time>2015-04-01T13:42:27Z</time>
      </trkpt>
      <trkpt lat="42.88131" lon="0.13261">
        <ele>1957.9</ele>
        <time>2015-04-01T13:42:37Z</time>
      </trkpt>
      <trkpt lat="42.88131" lon="0.13261">
        <ele>1957.6</ele>
        <time>2015-04-01T13:43:17Z</time>
      </trkpt>
      <trkpt lat="42.88123" lon="0.13256">
        <ele>1955.3</ele>
        <time>2015-04-01T13:43:29Z</time>
      </trkpt>
      <trkpt lat="42.88129" lon="0.13256">
        <ele>1955.3</ele>
        <time>2015-04-01T13:43:43Z</time>
      </trkpt>
      <trkpt lat="42.88133" lon="0.13247">
        <ele>1955</ele>
        <time>2015-04-01T13:43:53Z</time>
      </trkpt>
      <trkpt lat="42.88133" lon="0.13238">
        <ele>1954.7</ele>
        <time>2015-04-01T13:44:03Z</time>
      </trkpt>
      <trkpt lat="42.88132" lon="0.13228">
        <ele>1954.2</ele>
        <time>2015-04-01T13:44:13Z</time>
      </trkpt>
      <trkpt lat="42.88133" lon="0.13215">
        <ele>1953.8</ele>
        <time>2015-04-01T13:44:23Z</time>
      </trkpt>
      <trkpt lat="42.88134" lon="0.13204">
        <ele>1952.7</ele>
        <time>2015-04-01T13:44:33Z</time>
      </trkpt>
      <trkpt lat="42.88127" lon="0.13196">
        <ele>1952</ele>
        <time>2015-04-01T13:44:43Z</time>
      </trkpt>
      <trkpt lat="42.88129" lon="0.13187">
        <ele>1951.5</ele>
        <time>2015-04-01T13:44:53Z</time>
      </trkpt>
      <trkpt lat="42.88132" lon="0.13182">
        <ele>1951.1</ele>
        <time>2015-04-01T13:45:03Z</time>
      </trkpt>
      <trkpt lat="42.8814" lon="0.13179">
        <ele>1951.2</ele>
        <time>2015-04-01T13:45:36Z</time>
      </trkpt>
      <trkpt lat="42.88134" lon="0.13174">
        <ele>1951.3</ele>
        <time>2015-04-01T13:45:46Z</time>
      </trkpt>
      <trkpt lat="42.88132" lon="0.13164">
        <ele>1950.7</ele>
        <time>2015-04-01T13:45:56Z</time>
      </trkpt>
      <trkpt lat="42.88132" lon="0.13154">
        <ele>1950.1</ele>
        <time>2015-04-01T13:46:06Z</time>
      </trkpt>
      <trkpt lat="42.88133" lon="0.13148">
        <ele>1948.9</ele>
        <time>2015-04-01T13:46:31Z</time>
      </trkpt>
      <trkpt lat="42.88135" lon="0.1314">
        <ele>1948.7</ele>
        <time>2015-04-01T13:46:41Z</time>
      </trkpt>
      <trkpt lat="42.88138" lon="0.13131">
        <ele>1948.2</ele>
        <time>2015-04-01T13:46:51Z</time>
      </trkpt>
      <trkpt lat="42.88139" lon="0.13123">
        <ele>1947.7</ele>
        <time>2015-04-01T13:47:01Z</time>
      </trkpt>
      <trkpt lat="42.8814" lon="0.13114">
        <ele>1947.2</ele>
        <time>2015-04-01T13:47:11Z</time>
      </trkpt>
      <trkpt lat="42.88146" lon="0.13105">
        <ele>1946.3</ele>
        <time>2015-04-01T13:47:21Z</time>
      </trkpt>
      <trkpt lat="42.88151" lon="0.13094">
        <ele>1945.7</ele>
        <time>2015-04-01T13:47:31Z</time>
      </trkpt>
      <trkpt lat="42.88156" lon="0.13094">
        <ele>1945.8</ele>
        <time>2015-04-01T13:47:41Z</time>
      </trkpt>
      <trkpt lat="42.88159" lon="0.13082">
        <ele>1945.1</ele>
        <time>2015-04-01T13:47:50Z</time>
      </trkpt>
      <trkpt lat="42.88162" lon="0.13069">
        <ele>1944.6</ele>
        <time>2015-04-01T13:48:00Z</time>
      </trkpt>
      <trkpt lat="42.88163" lon="0.13057">
        <ele>1944.2</ele>
        <time>2015-04-01T13:48:10Z</time>
      </trkpt>
      <trkpt lat="42.88162" lon="0.13046">
        <ele>1943.7</ele>
        <time>2015-04-01T13:48:20Z</time>
      </trkpt>
      <trkpt lat="42.88162" lon="0.13037">
        <ele>1943.4</ele>
        <time>2015-04-01T13:48:30Z</time>
      </trkpt>
      <trkpt lat="42.88164" lon="0.13027">
        <ele>1943.3</ele>
        <time>2015-04-01T13:48:40Z</time>
      </trkpt>
      <trkpt lat="42.88165" lon="0.13017">
        <ele>1943.1</ele>
        <time>2015-04-01T13:48:50Z</time>
      </trkpt>
      <trkpt lat="42.88162" lon="0.13005">
        <ele>1942.6</ele>
        <time>2015-04-01T13:49:00Z</time>
      </trkpt>
      <trkpt lat="42.88162" lon="0.12993">
        <ele>1941.8</ele>
        <time>2015-04-01T13:49:10Z</time>
      </trkpt>
      <trkpt lat="42.88162" lon="0.1298">
        <ele>1941.4</ele>
        <time>2015-04-01T13:49:20Z</time>
      </trkpt>
      <trkpt lat="42.88164" lon="0.12969">
        <ele>1940.8</ele>
        <time>2015-04-01T13:49:30Z</time>
      </trkpt>
      <trkpt lat="42.88164" lon="0.12958">
        <ele>1940.3</ele>
        <time>2015-04-01T13:49:40Z</time>
      </trkpt>
      <trkpt lat="42.88167" lon="0.12948">
        <ele>1939.4</ele>
        <time>2015-04-01T13:49:50Z</time>
      </trkpt>
      <trkpt lat="42.88173" lon="0.12938">
        <ele>1939.1</ele>
        <time>2015-04-01T13:49:59Z</time>
      </trkpt>
      <trkpt lat="42.88173" lon="0.12927">
        <ele>1939</ele>
        <time>2015-04-01T13:50:09Z</time>
      </trkpt>
      <trkpt lat="42.88176" lon="0.1292">
        <ele>1938.6</ele>
        <time>2015-04-01T13:50:19Z</time>
      </trkpt>
      <trkpt lat="42.88179" lon="0.12914">
        <ele>1937.8</ele>
        <time>2015-04-01T13:50:36Z</time>
      </trkpt>
      <trkpt lat="42.88181" lon="0.12903">
        <ele>1937.8</ele>
        <time>2015-04-01T13:50:46Z</time>
      </trkpt>
      <trkpt lat="42.88179" lon="0.12892">
        <ele>1937.8</ele>
        <time>2015-04-01T13:50:56Z</time>
      </trkpt>
      <trkpt lat="42.88173" lon="0.12881">
        <ele>1937.6</ele>
        <time>2015-04-01T13:51:04Z</time>
      </trkpt>
      <trkpt lat="42.88177" lon="0.12869">
        <ele>1937.2</ele>
        <time>2015-04-01T13:51:14Z</time>
      </trkpt>
      <trkpt lat="42.88177" lon="0.12858">
        <ele>1936.3</ele>
        <time>2015-04-01T13:51:24Z</time>
      </trkpt>
      <trkpt lat="42.88177" lon="0.12846">
        <ele>1935.8</ele>
        <time>2015-04-01T13:51:34Z</time>
      </trkpt>
      <trkpt lat="42.88177" lon="0.12836">
        <ele>1935.2</ele>
        <time>2015-04-01T13:51:44Z</time>
      </trkpt>
      <trkpt lat="42.88178" lon="0.1283">
        <ele>1935.1</ele>
        <time>2015-04-01T13:51:55Z</time>
      </trkpt>
      <trkpt lat="42.88178" lon="0.12822">
        <ele>1934.8</ele>
        <time>2015-04-01T13:52:05Z</time>
      </trkpt>
      <trkpt lat="42.88177" lon="0.12813">
        <ele>1934.3</ele>
        <time>2015-04-01T13:52:15Z</time>
      </trkpt>
      <trkpt lat="42.88177" lon="0.12802">
        <ele>1933.9</ele>
        <time>2015-04-01T13:52:25Z</time>
      </trkpt>
      <trkpt lat="42.88182" lon="0.12791">
        <ele>1933.1</ele>
        <time>2015-04-01T13:52:35Z</time>
      </trkpt>
      <trkpt lat="42.88181" lon="0.12782">
        <ele>1932.3</ele>
        <time>2015-04-01T13:52:45Z</time>
      </trkpt>
      <trkpt lat="42.88185" lon="0.12771">
        <ele>1931.2</ele>
        <time>2015-04-01T13:52:55Z</time>
      </trkpt>
      <trkpt lat="42.8819" lon="0.12761">
        <ele>1930.7</ele>
        <time>2015-04-01T13:53:05Z</time>
      </trkpt>
      <trkpt lat="42.88194" lon="0.12757">
        <ele>1930.5</ele>
        <time>2015-04-01T13:53:15Z</time>
      </trkpt>
      <trkpt lat="42.88191" lon="0.12751">
        <ele>1929.7</ele>
        <time>2015-04-01T13:53:27Z</time>
      </trkpt>
      <trkpt lat="42.88193" lon="0.12742">
        <ele>1929.2</ele>
        <time>2015-04-01T13:53:37Z</time>
      </trkpt>
      <trkpt lat="42.88196" lon="0.12729">
        <ele>1928.9</ele>
        <time>2015-04-01T13:53:47Z</time>
      </trkpt>
      <trkpt lat="42.88204" lon="0.1272">
        <ele>1929.2</ele>
        <time>2015-04-01T13:53:55Z</time>
      </trkpt>
      <trkpt lat="42.88205" lon="0.12709">
        <ele>1929</ele>
        <time>2015-04-01T13:54:05Z</time>
      </trkpt>
      <trkpt lat="42.88208" lon="0.12698">
        <ele>1928.3</ele>
        <time>2015-04-01T13:54:16Z</time>
      </trkpt>
      <trkpt lat="42.88208" lon="0.12691">
        <ele>1928.1</ele>
        <time>2015-04-01T13:54:26Z</time>
      </trkpt>
      <trkpt lat="42.88208" lon="0.12684">
        <ele>1927.6</ele>
        <time>2015-04-01T13:54:37Z</time>
      </trkpt>
      <trkpt lat="42.88205" lon="0.12673">
        <ele>1926.3</ele>
        <time>2015-04-01T13:55:10Z</time>
      </trkpt>
      <trkpt lat="42.88204" lon="0.12664">
        <ele>1926.3</ele>
        <time>2015-04-01T13:55:20Z</time>
      </trkpt>
      <trkpt lat="42.88204" lon="0.12655">
        <ele>1926.3</ele>
        <time>2015-04-01T13:55:30Z</time>
      </trkpt>
      <trkpt lat="42.88204" lon="0.12647">
        <ele>1926.2</ele>
        <time>2015-04-01T13:55:40Z</time>
      </trkpt>
      <trkpt lat="42.88205" lon="0.12637">
        <ele>1925.9</ele>
        <time>2015-04-01T13:55:50Z</time>
      </trkpt>
      <trkpt lat="42.88203" lon="0.12628">
        <ele>1925.4</ele>
        <time>2015-04-01T13:56:00Z</time>
      </trkpt>
      <trkpt lat="42.88202" lon="0.12616">
        <ele>1924.7</ele>
        <time>2015-04-01T13:56:10Z</time>
      </trkpt>
      <trkpt lat="42.88201" lon="0.12605">
        <ele>1923.8</ele>
        <time>2015-04-01T13:56:20Z</time>
      </trkpt>
      <trkpt lat="42.88201" lon="0.12597">
        <ele>1923.5</ele>
        <time>2015-04-01T13:56:30Z</time>
      </trkpt>
      <trkpt lat="42.882" lon="0.12587">
        <ele>1923.2</ele>
        <time>2015-04-01T13:56:40Z</time>
      </trkpt>
      <trkpt lat="42.882" lon="0.12577">
        <ele>1922.6</ele>
        <time>2015-04-01T13:56:50Z</time>
      </trkpt>
      <trkpt lat="42.88199" lon="0.12566">
        <ele>1922</ele>
        <time>2015-04-01T13:57:00Z</time>
      </trkpt>
      <trkpt lat="42.88198" lon="0.12556">
        <ele>1921</ele>
        <time>2015-04-01T13:57:10Z</time>
      </trkpt>
      <trkpt lat="42.882" lon="0.12544">
        <ele>1919.8</ele>
        <time>2015-04-01T13:57:20Z</time>
      </trkpt>
      <trkpt lat="42.88201" lon="0.12534">
        <ele>1918.7</ele>
        <time>2015-04-01T13:57:30Z</time>
      </trkpt>
      <trkpt lat="42.88203" lon="0.12526">
        <ele>1918.2</ele>
        <time>2015-04-01T13:57:40Z</time>
      </trkpt>
      <trkpt lat="42.88204" lon="0.12515">
        <ele>1916.5</ele>
        <time>2015-04-01T13:57:50Z</time>
      </trkpt>
      <trkpt lat="42.88208" lon="0.12509">
        <ele>1915.2</ele>
        <time>2015-04-01T13:58:00Z</time>
      </trkpt>
      <trkpt lat="42.88208" lon="0.12496">
        <ele>1914.8</ele>
        <time>2015-04-01T13:58:09Z</time>
      </trkpt>
      <trkpt lat="42.8821" lon="0.12486">
        <ele>1914.4</ele>
        <time>2015-04-01T13:58:19Z</time>
      </trkpt>
      <trkpt lat="42.88209" lon="0.12473">
        <ele>1914</ele>
        <time>2015-04-01T13:58:29Z</time>
      </trkpt>
      <trkpt lat="42.88211" lon="0.12466">
        <ele>1912.7</ele>
        <time>2015-04-01T13:58:39Z</time>
      </trkpt>
      <trkpt lat="42.88215" lon="0.12461">
        <ele>1912.1</ele>
        <time>2015-04-01T13:59:14Z</time>
      </trkpt>
      <trkpt lat="42.88214" lon="0.1245">
        <ele>1912.1</ele>
        <time>2015-04-01T13:59:24Z</time>
      </trkpt>
      <trkpt lat="42.88214" lon="0.12439">
        <ele>1911.7</ele>
        <time>2015-04-01T13:59:34Z</time>
      </trkpt>
      <trkpt lat="42.88215" lon="0.1243">
        <ele>1911.2</ele>
        <time>2015-04-01T13:59:45Z</time>
      </trkpt>
      <trkpt lat="42.88214" lon="0.12419">
        <ele>1910.7</ele>
        <time>2015-04-01T13:59:55Z</time>
      </trkpt>
      <trkpt lat="42.88213" lon="0.12407">
        <ele>1910.3</ele>
        <time>2015-04-01T14:00:05Z</time>
      </trkpt>
      <trkpt lat="42.88215" lon="0.12396">
        <ele>1910.1</ele>
        <time>2015-04-01T14:00:15Z</time>
      </trkpt>
      <trkpt lat="42.88218" lon="0.12386">
        <ele>1909.6</ele>
        <time>2015-04-01T14:00:25Z</time>
      </trkpt>
      <trkpt lat="42.88219" lon="0.12375">
        <ele>1909.3</ele>
        <time>2015-04-01T14:00:35Z</time>
      </trkpt>
      <trkpt lat="42.88221" lon="0.12366">
        <ele>1909.2</ele>
        <time>2015-04-01T14:00:45Z</time>
      </trkpt>
      <trkpt lat="42.88223" lon="0.12354">
        <ele>1909.1</ele>
        <time>2015-04-01T14:00:55Z</time>
      </trkpt>
      <trkpt lat="42.88222" lon="0.12341">
        <ele>1908.8</ele>
        <time>2015-04-01T14:01:05Z</time>
      </trkpt>
      <trkpt lat="42.8822" lon="0.12331">
        <ele>1908.2</ele>
        <time>2015-04-01T14:01:15Z</time>
      </trkpt>
      <trkpt lat="42.88223" lon="0.12318">
        <ele>1907.9</ele>
        <time>2015-04-01T14:01:25Z</time>
      </trkpt>
      <trkpt lat="42.88221" lon="0.12308">
        <ele>1907.7</ele>
        <time>2015-04-01T14:01:35Z</time>
      </trkpt>
      <trkpt lat="42.88224" lon="0.12296">
        <ele>1907.6</ele>
        <time>2015-04-01T14:01:45Z</time>
      </trkpt>
      <trkpt lat="42.88225" lon="0.12284">
        <ele>1907.3</ele>
        <time>2015-04-01T14:01:54Z</time>
      </trkpt>
      <trkpt lat="42.88229" lon="0.12274">
        <ele>1907</ele>
        <time>2015-04-01T14:02:04Z</time>
      </trkpt>
      <trkpt lat="42.88232" lon="0.12265">
        <ele>1906.7</ele>
        <time>2015-04-01T14:02:14Z</time>
      </trkpt>
      <trkpt lat="42.88236" lon="0.12256">
        <ele>1906.6</ele>
        <time>2015-04-01T14:02:24Z</time>
      </trkpt>
      <trkpt lat="42.88238" lon="0.12247">
        <ele>1906.5</ele>
        <time>2015-04-01T14:02:34Z</time>
      </trkpt>
      <trkpt lat="42.88241" lon="0.12239">
        <ele>1906.2</ele>
        <time>2015-04-01T14:02:44Z</time>
      </trkpt>
      <trkpt lat="42.8824" lon="0.12232">
        <ele>1905.9</ele>
        <time>2015-04-01T14:02:54Z</time>
      </trkpt>
      <trkpt lat="42.8824" lon="0.12225">
        <ele>1905.9</ele>
        <time>2015-04-01T14:03:04Z</time>
      </trkpt>
      <trkpt lat="42.88243" lon="0.12218">
        <ele>1906.3</ele>
        <time>2015-04-01T14:03:14Z</time>
      </trkpt>
      <trkpt lat="42.88245" lon="0.12209">
        <ele>1906.4</ele>
        <time>2015-04-01T14:03:24Z</time>
      </trkpt>
      <trkpt lat="42.88249" lon="0.122">
        <ele>1906.5</ele>
        <time>2015-04-01T14:03:34Z</time>
      </trkpt>
      <trkpt lat="42.88251" lon="0.12194">
        <ele>1906.7</ele>
        <time>2015-04-01T14:03:44Z</time>
      </trkpt>
      <trkpt lat="42.88253" lon="0.12188">
        <ele>1906.7</ele>
        <time>2015-04-01T14:04:01Z</time>
      </trkpt>
      <trkpt lat="42.88256" lon="0.12183">
        <ele>1906.7</ele>
        <time>2015-04-01T14:04:11Z</time>
      </trkpt>
      <trkpt lat="42.88256" lon="0.12183">
        <ele>1906.7</ele>
        <time>2015-04-01T14:04:52Z</time>
      </trkpt>
      <trkpt lat="42.88256" lon="0.12183">
        <ele>1906.7</ele>
        <time>2015-04-01T14:05:32Z</time>
      </trkpt>
      <trkpt lat="42.88256" lon="0.12183">
        <ele>1906.7</ele>
        <time>2015-04-01T14:06:12Z</time>
      </trkpt>
      <trkpt lat="42.88256" lon="0.12183">
        <ele>1906.7</ele>
        <time>2015-04-01T14:06:52Z</time>
      </trkpt>
      <trkpt lat="42.88256" lon="0.12183">
        <ele>1906.7</ele>
        <time>2015-04-01T14:07:33Z</time>
      </trkpt>
      <trkpt lat="42.88256" lon="0.12183">
        <ele>1906.7</ele>
        <time>2015-04-01T14:08:13Z</time>
      </trkpt>
      <trkpt lat="42.88257" lon="0.12178">
        <ele>1901.4</ele>
        <time>2015-04-01T14:08:53Z</time>
      </trkpt>
      <trkpt lat="42.88258" lon="0.12171">
        <ele>1901.9</ele>
        <time>2015-04-01T14:09:07Z</time>
      </trkpt>
      <trkpt lat="42.88257" lon="0.12162">
        <ele>1901.5</ele>
        <time>2015-04-01T14:09:17Z</time>
      </trkpt>
      <trkpt lat="42.8826" lon="0.12153">
        <ele>1900.8</ele>
        <time>2015-04-01T14:09:28Z</time>
      </trkpt>
      <trkpt lat="42.88264" lon="0.12144">
        <ele>1900.5</ele>
        <time>2015-04-01T14:09:38Z</time>
      </trkpt>
      <trkpt lat="42.88259" lon="0.12138">
        <ele>1900.2</ele>
        <time>2015-04-01T14:09:48Z</time>
      </trkpt>
      <trkpt lat="42.88254" lon="0.12133">
        <ele>1899.8</ele>
        <time>2015-04-01T14:09:58Z</time>
      </trkpt>
      <trkpt lat="42.88249" lon="0.12125">
        <ele>1899.6</ele>
        <time>2015-04-01T14:10:08Z</time>
      </trkpt>
      <trkpt lat="42.88248" lon="0.12119">
        <ele>1899.4</ele>
        <time>2015-04-01T14:10:26Z</time>
      </trkpt>
      <trkpt lat="42.88245" lon="0.12112">
        <ele>1899.5</ele>
        <time>2015-04-01T14:10:36Z</time>
      </trkpt>
      <trkpt lat="42.88242" lon="0.12107">
        <ele>1899.5</ele>
        <time>2015-04-01T14:10:47Z</time>
      </trkpt>
      <trkpt lat="42.88238" lon="0.12103">
        <ele>1899.1</ele>
        <time>2015-04-01T14:10:57Z</time>
      </trkpt>
      <trkpt lat="42.88235" lon="0.12096">
        <ele>1898.8</ele>
        <time>2015-04-01T14:11:07Z</time>
      </trkpt>
      <trkpt lat="42.88235" lon="0.12083">
        <ele>1897.8</ele>
        <time>2015-04-01T14:11:17Z</time>
      </trkpt>
      <trkpt lat="42.8824" lon="0.12072">
        <ele>1896.5</ele>
        <time>2015-04-01T14:11:24Z</time>
      </trkpt>
      <trkpt lat="42.88241" lon="0.1206">
        <ele>1894</ele>
        <time>2015-04-01T14:11:34Z</time>
      </trkpt>
      <trkpt lat="42.8824" lon="0.12047">
        <ele>1891.6</ele>
        <time>2015-04-01T14:11:43Z</time>
      </trkpt>
      <trkpt lat="42.88247" lon="0.12037">
        <ele>1889.5</ele>
        <time>2015-04-01T14:11:52Z</time>
      </trkpt>
      <trkpt lat="42.88251" lon="0.12033">
        <ele>1887.1</ele>
        <time>2015-04-01T14:12:02Z</time>
      </trkpt>
      <trkpt lat="42.88253" lon="0.12021">
        <ele>1884.8</ele>
        <time>2015-04-01T14:12:10Z</time>
      </trkpt>
      <trkpt lat="42.88254" lon="0.12009">
        <ele>1882.5</ele>
        <time>2015-04-01T14:12:20Z</time>
      </trkpt>
      <trkpt lat="42.88251" lon="0.11997">
        <ele>1880.1</ele>
        <time>2015-04-01T14:12:30Z</time>
      </trkpt>
      <trkpt lat="42.88249" lon="0.11988">
        <ele>1878.5</ele>
        <time>2015-04-01T14:12:40Z</time>
      </trkpt>
      <trkpt lat="42.88246" lon="0.11979">
        <ele>1876.6</ele>
        <time>2015-04-01T14:12:50Z</time>
      </trkpt>
      <trkpt lat="42.88241" lon="0.11973">
        <ele>1874.8</ele>
        <time>2015-04-01T14:13:00Z</time>
      </trkpt>
      <trkpt lat="42.88236" lon="0.1197">
        <ele>1873</ele>
        <time>2015-04-01T14:13:18Z</time>
      </trkpt>
      <trkpt lat="42.88231" lon="0.11961">
        <ele>1872.2</ele>
        <time>2015-04-01T14:13:28Z</time>
      </trkpt>
      <trkpt lat="42.88228" lon="0.11949">
        <ele>1871.1</ele>
        <time>2015-04-01T14:13:38Z</time>
      </trkpt>
      <trkpt lat="42.88229" lon="0.11936">
        <ele>1869.6</ele>
        <time>2015-04-01T14:13:47Z</time>
      </trkpt>
      <trkpt lat="42.88229" lon="0.11926">
        <ele>1868.2</ele>
        <time>2015-04-01T14:13:57Z</time>
      </trkpt>
      <trkpt lat="42.88227" lon="0.11915">
        <ele>1866.3</ele>
        <time>2015-04-01T14:14:07Z</time>
      </trkpt>
      <trkpt lat="42.88226" lon="0.11906">
        <ele>1864.4</ele>
        <time>2015-04-01T14:14:17Z</time>
      </trkpt>
      <trkpt lat="42.88225" lon="0.11897">
        <ele>1862.9</ele>
        <time>2015-04-01T14:14:28Z</time>
      </trkpt>
      <trkpt lat="42.88224" lon="0.11887">
        <ele>1861.5</ele>
        <time>2015-04-01T14:14:38Z</time>
      </trkpt>
      <trkpt lat="42.88225" lon="0.11878">
        <ele>1860.1</ele>
        <time>2015-04-01T14:14:48Z</time>
      </trkpt>
      <trkpt lat="42.88226" lon="0.1187">
        <ele>1858.5</ele>
        <time>2015-04-01T14:14:58Z</time>
      </trkpt>
      <trkpt lat="42.88226" lon="0.1186">
        <ele>1857.1</ele>
        <time>2015-04-01T14:15:08Z</time>
      </trkpt>
      <trkpt lat="42.88225" lon="0.11851">
        <ele>1855.8</ele>
        <time>2015-04-01T14:15:18Z</time>
      </trkpt>
      <trkpt lat="42.88226" lon="0.11842">
        <ele>1854.6</ele>
        <time>2015-04-01T14:15:28Z</time>
      </trkpt>
      <trkpt lat="42.88225" lon="0.11834">
        <ele>1853.2</ele>
        <time>2015-04-01T14:15:38Z</time>
      </trkpt>
      <trkpt lat="42.88223" lon="0.11826">
        <ele>1852.1</ele>
        <time>2015-04-01T14:15:48Z</time>
      </trkpt>
      <trkpt lat="42.88224" lon="0.11817">
        <ele>1850.8</ele>
        <time>2015-04-01T14:15:58Z</time>
      </trkpt>
      <trkpt lat="42.88224" lon="0.1181">
        <ele>1849.6</ele>
        <time>2015-04-01T14:16:08Z</time>
      </trkpt>
      <trkpt lat="42.88225" lon="0.118">
        <ele>1848.3</ele>
        <time>2015-04-01T14:16:18Z</time>
      </trkpt>
      <trkpt lat="42.88224" lon="0.11792">
        <ele>1846.6</ele>
        <time>2015-04-01T14:16:28Z</time>
      </trkpt>
      <trkpt lat="42.88227" lon="0.11783">
        <ele>1844.7</ele>
        <time>2015-04-01T14:16:38Z</time>
      </trkpt>
      <trkpt lat="42.88227" lon="0.11774">
        <ele>1843.2</ele>
        <time>2015-04-01T14:16:48Z</time>
      </trkpt>
      <trkpt lat="42.88227" lon="0.11771">
        <ele>1842.1</ele>
        <time>2015-04-01T14:17:28Z</time>
      </trkpt>
      <trkpt lat="42.88229" lon="0.11759">
        <ele>1840.9</ele>
        <time>2015-04-01T14:17:35Z</time>
      </trkpt>
      <trkpt lat="42.88231" lon="0.11751">
        <ele>1840.5</ele>
        <time>2015-04-01T14:17:45Z</time>
      </trkpt>
      <trkpt lat="42.88231" lon="0.11745">
        <ele>1840.3</ele>
        <time>2015-04-01T14:17:55Z</time>
      </trkpt>
      <trkpt lat="42.88238" lon="0.11736">
        <ele>1839.4</ele>
        <time>2015-04-01T14:18:04Z</time>
      </trkpt>
      <trkpt lat="42.88233" lon="0.11728">
        <ele>1838.7</ele>
        <time>2015-04-01T14:18:14Z</time>
      </trkpt>
      <trkpt lat="42.88234" lon="0.11719">
        <ele>1838.2</ele>
        <time>2015-04-01T14:18:24Z</time>
      </trkpt>
      <trkpt lat="42.88234" lon="0.11719">
        <ele>1838.2</ele>
        <time>2015-04-01T14:19:04Z</time>
      </trkpt>
      <trkpt lat="42.88234" lon="0.11719">
        <ele>1838.2</ele>
        <time>2015-04-01T14:19:45Z</time>
      </trkpt>
      <trkpt lat="42.88241" lon="0.11725">
        <ele>1831.8</ele>
        <time>2015-04-01T14:20:23Z</time>
      </trkpt>
      <trkpt lat="42.88242" lon="0.11717">
        <ele>1830.8</ele>
        <time>2015-04-01T14:20:54Z</time>
      </trkpt>
      <trkpt lat="42.88244" lon="0.11706">
        <ele>1830.5</ele>
        <time>2015-04-01T14:21:04Z</time>
      </trkpt>
      <trkpt lat="42.88246" lon="0.11693">
        <ele>1830.1</ele>
        <time>2015-04-01T14:21:14Z</time>
      </trkpt>
      <trkpt lat="42.88244" lon="0.11681">
        <ele>1829.7</ele>
        <time>2015-04-01T14:21:24Z</time>
      </trkpt>
      <trkpt lat="42.88244" lon="0.1167">
        <ele>1829.2</ele>
        <time>2015-04-01T14:21:34Z</time>
      </trkpt>
      <trkpt lat="42.88246" lon="0.1166">
        <ele>1828.8</ele>
        <time>2015-04-01T14:21:44Z</time>
      </trkpt>
      <trkpt lat="42.88247" lon="0.11648">
        <ele>1828.3</ele>
        <time>2015-04-01T14:21:54Z</time>
      </trkpt>
      <trkpt lat="42.88249" lon="0.11638">
        <ele>1827.9</ele>
        <time>2015-04-01T14:22:04Z</time>
      </trkpt>
      <trkpt lat="42.88249" lon="0.11626">
        <ele>1827.3</ele>
        <time>2015-04-01T14:22:14Z</time>
      </trkpt>
      <trkpt lat="42.88249" lon="0.11616">
        <ele>1826.8</ele>
        <time>2015-04-01T14:22:24Z</time>
      </trkpt>
      <trkpt lat="42.88249" lon="0.11608">
        <ele>1826.4</ele>
        <time>2015-04-01T14:22:34Z</time>
      </trkpt>
      <trkpt lat="42.88249" lon="0.11595">
        <ele>1825.7</ele>
        <time>2015-04-01T14:22:43Z</time>
      </trkpt>
      <trkpt lat="42.88249" lon="0.11584">
        <ele>1825.1</ele>
        <time>2015-04-01T14:22:53Z</time>
      </trkpt>
      <trkpt lat="42.88247" lon="0.11572">
        <ele>1824.3</ele>
        <time>2015-04-01T14:23:03Z</time>
      </trkpt>
      <trkpt lat="42.88244" lon="0.11563">
        <ele>1823.7</ele>
        <time>2015-04-01T14:23:13Z</time>
      </trkpt>
      <trkpt lat="42.88243" lon="0.11553">
        <ele>1823.2</ele>
        <time>2015-04-01T14:23:23Z</time>
      </trkpt>
      <trkpt lat="42.88246" lon="0.11542">
        <ele>1822.3</ele>
        <time>2015-04-01T14:23:33Z</time>
      </trkpt>
      <trkpt lat="42.88245" lon="0.11532">
        <ele>1821.8</ele>
        <time>2015-04-01T14:23:43Z</time>
      </trkpt>
      <trkpt lat="42.88245" lon="0.11522">
        <ele>1821.1</ele>
        <time>2015-04-01T14:23:53Z</time>
      </trkpt>
      <trkpt lat="42.88247" lon="0.11513">
        <ele>1820.4</ele>
        <time>2015-04-01T14:24:03Z</time>
      </trkpt>
      <trkpt lat="42.8825" lon="0.11502">
        <ele>1819.6</ele>
        <time>2015-04-01T14:24:13Z</time>
      </trkpt>
      <trkpt lat="42.88255" lon="0.11491">
        <ele>1818.8</ele>
        <time>2015-04-01T14:24:23Z</time>
      </trkpt>
      <trkpt lat="42.88256" lon="0.1148">
        <ele>1817.8</ele>
        <time>2015-04-01T14:24:33Z</time>
      </trkpt>
      <trkpt lat="42.88259" lon="0.11477">
        <ele>1816.7</ele>
        <time>2015-04-01T14:25:14Z</time>
      </trkpt>
      <trkpt lat="42.88259" lon="0.11477">
        <ele>1816.7</ele>
        <time>2015-04-01T14:25:54Z</time>
      </trkpt>
      <trkpt lat="42.88262" lon="0.11472">
        <ele>1809.7</ele>
        <time>2015-04-01T14:26:17Z</time>
      </trkpt>
      <trkpt lat="42.88264" lon="0.11459">
        <ele>1809.2</ele>
        <time>2015-04-01T14:26:27Z</time>
      </trkpt>
      <trkpt lat="42.88265" lon="0.11448">
        <ele>1808.2</ele>
        <time>2015-04-01T14:26:37Z</time>
      </trkpt>
      <trkpt lat="42.88267" lon="0.11438">
        <ele>1807.2</ele>
        <time>2015-04-01T14:26:47Z</time>
      </trkpt>
      <trkpt lat="42.88267" lon="0.11431">
        <ele>1806.7</ele>
        <time>2015-04-01T14:26:57Z</time>
      </trkpt>
      <trkpt lat="42.8827" lon="0.11422">
        <ele>1806.1</ele>
        <time>2015-04-01T14:27:07Z</time>
      </trkpt>
      <trkpt lat="42.88275" lon="0.11412">
        <ele>1805.7</ele>
        <time>2015-04-01T14:27:17Z</time>
      </trkpt>
      <trkpt lat="42.88278" lon="0.11405">
        <ele>1805.4</ele>
        <time>2015-04-01T14:27:27Z</time>
      </trkpt>
      <trkpt lat="42.88279" lon="0.11395">
        <ele>1805.1</ele>
        <time>2015-04-01T14:27:37Z</time>
      </trkpt>
      <trkpt lat="42.88278" lon="0.11384">
        <ele>1804.8</ele>
        <time>2015-04-01T14:27:47Z</time>
      </trkpt>
      <trkpt lat="42.88276" lon="0.11373">
        <ele>1804.5</ele>
        <time>2015-04-01T14:27:57Z</time>
      </trkpt>
      <trkpt lat="42.88277" lon="0.11363">
        <ele>1804.3</ele>
        <time>2015-04-01T14:28:07Z</time>
      </trkpt>
      <trkpt lat="42.88284" lon="0.11351">
        <ele>1798.9</ele>
        <time>2015-04-01T14:28:16Z</time>
      </trkpt>
      <trkpt lat="42.88289" lon="0.1134">
        <ele>1792.3</ele>
        <time>2015-04-01T14:28:25Z</time>
      </trkpt>
      <trkpt lat="42.8829" lon="0.11333">
        <ele>1789.1</ele>
        <time>2015-04-01T14:28:35Z</time>
      </trkpt>
      <trkpt lat="42.88295" lon="0.11331">
        <ele>1785.4</ele>
        <time>2015-04-01T14:28:45Z</time>
      </trkpt>
      <trkpt lat="42.88295" lon="0.11319">
        <ele>1781.3</ele>
        <time>2015-04-01T14:28:55Z</time>
      </trkpt>
      <trkpt lat="42.88294" lon="0.11308">
        <ele>1777.7</ele>
        <time>2015-04-01T14:29:05Z</time>
      </trkpt>
      <trkpt lat="42.8829" lon="0.11302">
        <ele>1774.9</ele>
        <time>2015-04-01T14:29:15Z</time>
      </trkpt>
      <trkpt lat="42.88288" lon="0.11303">
        <ele>1773.4</ele>
        <time>2015-04-01T14:29:55Z</time>
      </trkpt>
      <trkpt lat="42.88295" lon="0.11306">
        <ele>1768.6</ele>
        <time>2015-04-01T14:30:05Z</time>
      </trkpt>
      <trkpt lat="42.88294" lon="0.11293">
        <ele>1767.3</ele>
        <time>2015-04-01T14:30:15Z</time>
      </trkpt>
      <trkpt lat="42.88294" lon="0.1128">
        <ele>1766.5</ele>
        <time>2015-04-01T14:30:23Z</time>
      </trkpt>
      <trkpt lat="42.88294" lon="0.11267">
        <ele>1765.5</ele>
        <time>2015-04-01T14:30:33Z</time>
      </trkpt>
      <trkpt lat="42.88297" lon="0.11262">
        <ele>1764.9</ele>
        <time>2015-04-01T14:30:46Z</time>
      </trkpt>
      <trkpt lat="42.88303" lon="0.11258">
        <ele>1764.3</ele>
        <time>2015-04-01T14:30:56Z</time>
      </trkpt>
      <trkpt lat="42.88309" lon="0.11248">
        <ele>1763.6</ele>
        <time>2015-04-01T14:31:06Z</time>
      </trkpt>
      <trkpt lat="42.88311" lon="0.11235">
        <ele>1763.1</ele>
        <time>2015-04-01T14:31:16Z</time>
      </trkpt>
      <trkpt lat="42.88314" lon="0.11225">
        <ele>1762.2</ele>
        <time>2015-04-01T14:31:26Z</time>
      </trkpt>
      <trkpt lat="42.8832" lon="0.11217">
        <ele>1761.3</ele>
        <time>2015-04-01T14:31:36Z</time>
      </trkpt>
      <trkpt lat="42.88326" lon="0.11207">
        <ele>1760.1</ele>
        <time>2015-04-01T14:31:46Z</time>
      </trkpt>
      <trkpt lat="42.88332" lon="0.11199">
        <ele>1759.1</ele>
        <time>2015-04-01T14:31:56Z</time>
      </trkpt>
      <trkpt lat="42.88341" lon="0.11193">
        <ele>1758</ele>
        <time>2015-04-01T14:32:06Z</time>
      </trkpt>
      <trkpt lat="42.88348" lon="0.11187">
        <ele>1757</ele>
        <time>2015-04-01T14:32:16Z</time>
      </trkpt>
      <trkpt lat="42.88356" lon="0.1118">
        <ele>1755.8</ele>
        <time>2015-04-01T14:32:26Z</time>
      </trkpt>
      <trkpt lat="42.8836" lon="0.11174">
        <ele>1754.3</ele>
        <time>2015-04-01T14:32:36Z</time>
      </trkpt>
      <trkpt lat="42.88364" lon="0.11168">
        <ele>1753.3</ele>
        <time>2015-04-01T14:32:46Z</time>
      </trkpt>
      <trkpt lat="42.88373" lon="0.11163">
        <ele>1752.2</ele>
        <time>2015-04-01T14:32:56Z</time>
      </trkpt>
      <trkpt lat="42.88379" lon="0.11161">
        <ele>1750.9</ele>
        <time>2015-04-01T14:33:06Z</time>
      </trkpt>
      <trkpt lat="42.88385" lon="0.11159">
        <ele>1749.8</ele>
        <time>2015-04-01T14:33:16Z</time>
      </trkpt>
      <trkpt lat="42.88391" lon="0.11154">
        <ele>1748.6</ele>
        <time>2015-04-01T14:33:26Z</time>
      </trkpt>
      <trkpt lat="42.8839" lon="0.11149">
        <ele>1747.1</ele>
        <time>2015-04-01T14:34:06Z</time>
      </trkpt>
      <trkpt lat="42.8839" lon="0.11149">
        <ele>1747.1</ele>
        <time>2015-04-01T14:34:46Z</time>
      </trkpt>
      <trkpt lat="42.8839" lon="0.11149">
        <ele>1747.1</ele>
        <time>2015-04-01T14:35:26Z</time>
      </trkpt>
      <trkpt lat="42.8839" lon="0.11149">
        <ele>1747.1</ele>
        <time>2015-04-01T14:36:07Z</time>
      </trkpt>
      <trkpt lat="42.8839" lon="0.11149">
        <ele>1747.1</ele>
        <time>2015-04-01T14:36:47Z</time>
      </trkpt>
      <trkpt lat="42.8839" lon="0.11149">
        <ele>1747.1</ele>
        <time>2015-04-01T14:37:27Z</time>
      </trkpt>
      <trkpt lat="42.8839" lon="0.11149">
        <ele>1747.1</ele>
        <time>2015-04-01T14:38:07Z</time>
      </trkpt>
      <trkpt lat="42.8839" lon="0.11149">
        <ele>1747.1</ele>
        <time>2015-04-01T14:38:47Z</time>
      </trkpt>
      <trkpt lat="42.8839" lon="0.11149">
        <ele>1747.1</ele>
        <time>2015-04-01T14:39:27Z</time>
      </trkpt>
      <trkpt lat="42.8839" lon="0.11149">
        <ele>1747.1</ele>
        <time>2015-04-01T14:40:07Z</time>
      </trkpt>
      <trkpt lat="42.8839" lon="0.11149">
        <ele>1747.1</ele>
        <time>2015-04-01T14:40:47Z</time>
      </trkpt>
      <trkpt lat="42.88392" lon="0.11144">
        <ele>1739.8</ele>
        <time>2015-04-01T14:41:09Z</time>
      </trkpt>
      <trkpt lat="42.88396" lon="0.11136">
        <ele>1739.6</ele>
        <time>2015-04-01T14:41:19Z</time>
      </trkpt>
      <trkpt lat="42.88403" lon="0.11129">
        <ele>1739.7</ele>
        <time>2015-04-01T14:41:30Z</time>
      </trkpt>
      <trkpt lat="42.88407" lon="0.1112">
        <ele>1739.8</ele>
        <time>2015-04-01T14:41:40Z</time>
      </trkpt>
      <trkpt lat="42.88412" lon="0.11111">
        <ele>1739.9</ele>
        <time>2015-04-01T14:41:50Z</time>
      </trkpt>
      <trkpt lat="42.88416" lon="0.11103">
        <ele>1740</ele>
        <time>2015-04-01T14:42:00Z</time>
      </trkpt>
      <trkpt lat="42.88422" lon="0.11094">
        <ele>1740</ele>
        <time>2015-04-01T14:42:10Z</time>
      </trkpt>
      <trkpt lat="42.88427" lon="0.11087">
        <ele>1739.8</ele>
        <time>2015-04-01T14:42:20Z</time>
      </trkpt>
      <trkpt lat="42.88434" lon="0.11077">
        <ele>1739.3</ele>
        <time>2015-04-01T14:42:30Z</time>
      </trkpt>
      <trkpt lat="42.8844" lon="0.11068">
        <ele>1739.1</ele>
        <time>2015-04-01T14:42:40Z</time>
      </trkpt>
      <trkpt lat="42.88446" lon="0.11061">
        <ele>1739</ele>
        <time>2015-04-01T14:42:50Z</time>
      </trkpt>
      <trkpt lat="42.88451" lon="0.11056">
        <ele>1738.4</ele>
        <time>2015-04-01T14:43:00Z</time>
      </trkpt>
      <trkpt lat="42.88455" lon="0.11047">
        <ele>1738.2</ele>
        <time>2015-04-01T14:43:10Z</time>
      </trkpt>
      <trkpt lat="42.88459" lon="0.11038">
        <ele>1738</ele>
        <time>2015-04-01T14:43:20Z</time>
      </trkpt>
      <trkpt lat="42.88465" lon="0.11028">
        <ele>1737.7</ele>
        <time>2015-04-01T14:43:28Z</time>
      </trkpt>
      <trkpt lat="42.88471" lon="0.11021">
        <ele>1737.1</ele>
        <time>2015-04-01T14:43:38Z</time>
      </trkpt>
      <trkpt lat="42.88477" lon="0.11016">
        <ele>1736.3</ele>
        <time>2015-04-01T14:43:48Z</time>
      </trkpt>
      <trkpt lat="42.88483" lon="0.11008">
        <ele>1735.5</ele>
        <time>2015-04-01T14:43:58Z</time>
      </trkpt>
      <trkpt lat="42.88488" lon="0.11001">
        <ele>1734.8</ele>
        <time>2015-04-01T14:44:08Z</time>
      </trkpt>
      <trkpt lat="42.88495" lon="0.10996">
        <ele>1734</ele>
        <time>2015-04-01T14:44:18Z</time>
      </trkpt>
      <trkpt lat="42.88504" lon="0.10991">
        <ele>1732.8</ele>
        <time>2015-04-01T14:44:28Z</time>
      </trkpt>
      <trkpt lat="42.88505" lon="0.10984">
        <ele>1732.2</ele>
        <time>2015-04-01T14:44:38Z</time>
      </trkpt>
      <trkpt lat="42.88513" lon="0.10978">
        <ele>1731.9</ele>
        <time>2015-04-01T14:44:47Z</time>
      </trkpt>
      <trkpt lat="42.88522" lon="0.10971">
        <ele>1731.2</ele>
        <time>2015-04-01T14:44:57Z</time>
      </trkpt>
      <trkpt lat="42.88527" lon="0.10963">
        <ele>1730.5</ele>
        <time>2015-04-01T14:45:07Z</time>
      </trkpt>
      <trkpt lat="42.88532" lon="0.10955">
        <ele>1730.2</ele>
        <time>2015-04-01T14:45:17Z</time>
      </trkpt>
      <trkpt lat="42.88538" lon="0.10947">
        <ele>1729.8</ele>
        <time>2015-04-01T14:45:27Z</time>
      </trkpt>
      <trkpt lat="42.88544" lon="0.1094">
        <ele>1729.5</ele>
        <time>2015-04-01T14:45:37Z</time>
      </trkpt>
      <trkpt lat="42.88551" lon="0.10933">
        <ele>1728.4</ele>
        <time>2015-04-01T14:45:47Z</time>
      </trkpt>
      <trkpt lat="42.88558" lon="0.10926">
        <ele>1727.5</ele>
        <time>2015-04-01T14:45:57Z</time>
      </trkpt>
      <trkpt lat="42.88565" lon="0.10918">
        <ele>1726.9</ele>
        <time>2015-04-01T14:46:07Z</time>
      </trkpt>
      <trkpt lat="42.8857" lon="0.10914">
        <ele>1725.8</ele>
        <time>2015-04-01T14:46:17Z</time>
      </trkpt>
      <trkpt lat="42.88578" lon="0.10909">
        <ele>1725</ele>
        <time>2015-04-01T14:46:27Z</time>
      </trkpt>
      <trkpt lat="42.88587" lon="0.10906">
        <ele>1724</ele>
        <time>2015-04-01T14:46:37Z</time>
      </trkpt>
      <trkpt lat="42.88594" lon="0.10903">
        <ele>1722.6</ele>
        <time>2015-04-01T14:46:47Z</time>
      </trkpt>
      <trkpt lat="42.88601" lon="0.10898">
        <ele>1721.4</ele>
        <time>2015-04-01T14:46:58Z</time>
      </trkpt>
      <trkpt lat="42.8861" lon="0.10895">
        <ele>1720.4</ele>
        <time>2015-04-01T14:47:07Z</time>
      </trkpt>
      <trkpt lat="42.88617" lon="0.10894">
        <ele>1719.2</ele>
        <time>2015-04-01T14:47:17Z</time>
      </trkpt>
      <trkpt lat="42.88623" lon="0.10889">
        <ele>1717.6</ele>
        <time>2015-04-01T14:47:27Z</time>
      </trkpt>
      <trkpt lat="42.88629" lon="0.10886">
        <ele>1715.9</ele>
        <time>2015-04-01T14:47:37Z</time>
      </trkpt>
      <trkpt lat="42.8863" lon="0.10879">
        <ele>1714</ele>
        <time>2015-04-01T14:47:47Z</time>
      </trkpt>
      <trkpt lat="42.88629" lon="0.10869">
        <ele>1712.5</ele>
        <time>2015-04-01T14:47:57Z</time>
      </trkpt>
      <trkpt lat="42.88633" lon="0.10859">
        <ele>1710.6</ele>
        <time>2015-04-01T14:48:07Z</time>
      </trkpt>
      <trkpt lat="42.88636" lon="0.1085">
        <ele>1709.2</ele>
        <time>2015-04-01T14:48:17Z</time>
      </trkpt>
      <trkpt lat="42.88639" lon="0.1084">
        <ele>1707.7</ele>
        <time>2015-04-01T14:48:27Z</time>
      </trkpt>
      <trkpt lat="42.88644" lon="0.10835">
        <ele>1705.6</ele>
        <time>2015-04-01T14:48:37Z</time>
      </trkpt>
      <trkpt lat="42.88647" lon="0.1083">
        <ele>1704.1</ele>
        <time>2015-04-01T14:48:47Z</time>
      </trkpt>
      <trkpt lat="42.88653" lon="0.10833">
        <ele>1702.6</ele>
        <time>2015-04-01T14:48:57Z</time>
      </trkpt>
      <trkpt lat="42.88653" lon="0.10832">
        <ele>1702.3</ele>
        <time>2015-04-01T14:49:37Z</time>
      </trkpt>
      <trkpt lat="42.88653" lon="0.10832">
        <ele>1702.3</ele>
        <time>2015-04-01T14:50:17Z</time>
      </trkpt>
      <trkpt lat="42.88653" lon="0.10832">
        <ele>1702.3</ele>
        <time>2015-04-01T14:50:57Z</time>
      </trkpt>
      <trkpt lat="42.88656" lon="0.10837">
        <ele>1698.5</ele>
        <time>2015-04-01T14:51:26Z</time>
      </trkpt>
      <trkpt lat="42.88661" lon="0.10839">
        <ele>1698.6</ele>
        <time>2015-04-01T14:51:37Z</time>
      </trkpt>
      <trkpt lat="42.88668" lon="0.10842">
        <ele>1698.1</ele>
        <time>2015-04-01T14:51:47Z</time>
      </trkpt>
      <trkpt lat="42.88675" lon="0.10842">
        <ele>1697.8</ele>
        <time>2015-04-01T14:51:57Z</time>
      </trkpt>
      <trkpt lat="42.88684" lon="0.10842">
        <ele>1697</ele>
        <time>2015-04-01T14:52:07Z</time>
      </trkpt>
      <trkpt lat="42.88692" lon="0.10842">
        <ele>1695</ele>
        <time>2015-04-01T14:52:17Z</time>
      </trkpt>
      <trkpt lat="42.88698" lon="0.10841">
        <ele>1692.9</ele>
        <time>2015-04-01T14:52:28Z</time>
      </trkpt>
      <trkpt lat="42.88706" lon="0.1084">
        <ele>1690.7</ele>
        <time>2015-04-01T14:52:38Z</time>
      </trkpt>
      <trkpt lat="42.88711" lon="0.10839">
        <ele>1688.5</ele>
        <time>2015-04-01T14:52:49Z</time>
      </trkpt>
      <trkpt lat="42.88718" lon="0.10838">
        <ele>1686.7</ele>
        <time>2015-04-01T14:52:59Z</time>
      </trkpt>
      <trkpt lat="42.88725" lon="0.10837">
        <ele>1684.8</ele>
        <time>2015-04-01T14:53:09Z</time>
      </trkpt>
      <trkpt lat="42.88734" lon="0.10837">
        <ele>1683.4</ele>
        <time>2015-04-01T14:53:19Z</time>
      </trkpt>
      <trkpt lat="42.88739" lon="0.10836">
        <ele>1681.7</ele>
        <time>2015-04-01T14:53:29Z</time>
      </trkpt>
      <trkpt lat="42.88747" lon="0.10836">
        <ele>1680.6</ele>
        <time>2015-04-01T14:53:39Z</time>
      </trkpt>
      <trkpt lat="42.88754" lon="0.10837">
        <ele>1679.6</ele>
        <time>2015-04-01T14:53:49Z</time>
      </trkpt>
      <trkpt lat="42.88762" lon="0.10836">
        <ele>1679</ele>
        <time>2015-04-01T14:53:59Z</time>
      </trkpt>
      <trkpt lat="42.88767" lon="0.10834">
        <ele>1676.9</ele>
        <time>2015-04-01T14:54:09Z</time>
      </trkpt>
      <trkpt lat="42.88777" lon="0.10832">
        <ele>1676.2</ele>
        <time>2015-04-01T14:54:19Z</time>
      </trkpt>
      <trkpt lat="42.88787" lon="0.1083">
        <ele>1675.6</ele>
        <time>2015-04-01T14:54:29Z</time>
      </trkpt>
      <trkpt lat="42.88796" lon="0.10828">
        <ele>1673.7</ele>
        <time>2015-04-01T14:54:38Z</time>
      </trkpt>
      <trkpt lat="42.88802" lon="0.10824">
        <ele>1672.9</ele>
        <time>2015-04-01T14:54:48Z</time>
      </trkpt>
      <trkpt lat="42.88807" lon="0.1082">
        <ele>1672.7</ele>
        <time>2015-04-01T14:54:58Z</time>
      </trkpt>
      <trkpt lat="42.88815" lon="0.10817">
        <ele>1672.2</ele>
        <time>2015-04-01T14:55:08Z</time>
      </trkpt>
      <trkpt lat="42.88822" lon="0.10815">
        <ele>1670.8</ele>
        <time>2015-04-01T14:55:18Z</time>
      </trkpt>
      <trkpt lat="42.88831" lon="0.10811">
        <ele>1669.6</ele>
        <time>2015-04-01T14:55:28Z</time>
      </trkpt>
      <trkpt lat="42.88838" lon="0.10809">
        <ele>1669</ele>
        <time>2015-04-01T14:55:38Z</time>
      </trkpt>
      <trkpt lat="42.88845" lon="0.10805">
        <ele>1668.6</ele>
        <time>2015-04-01T14:55:48Z</time>
      </trkpt>
      <trkpt lat="42.88853" lon="0.10802">
        <ele>1667.4</ele>
        <time>2015-04-01T14:55:58Z</time>
      </trkpt>
      <trkpt lat="42.88861" lon="0.108">
        <ele>1666.1</ele>
        <time>2015-04-01T14:56:08Z</time>
      </trkpt>
      <trkpt lat="42.88869" lon="0.10795">
        <ele>1665.3</ele>
        <time>2015-04-01T14:56:18Z</time>
      </trkpt>
      <trkpt lat="42.88878" lon="0.10791">
        <ele>1664.6</ele>
        <time>2015-04-01T14:56:28Z</time>
      </trkpt>
      <trkpt lat="42.88888" lon="0.10791">
        <ele>1663.8</ele>
        <time>2015-04-01T14:56:37Z</time>
      </trkpt>
      <trkpt lat="42.88896" lon="0.10788">
        <ele>1663.1</ele>
        <time>2015-04-01T14:56:47Z</time>
      </trkpt>
      <trkpt lat="42.88904" lon="0.1078">
        <ele>1662.4</ele>
        <time>2015-04-01T14:56:56Z</time>
      </trkpt>
      <trkpt lat="42.8891" lon="0.10773">
        <ele>1661.5</ele>
        <time>2015-04-01T14:57:06Z</time>
      </trkpt>
      <trkpt lat="42.88916" lon="0.10764">
        <ele>1660.6</ele>
        <time>2015-04-01T14:57:16Z</time>
      </trkpt>
      <trkpt lat="42.88923" lon="0.1076">
        <ele>1659.8</ele>
        <time>2015-04-01T14:57:26Z</time>
      </trkpt>
      <trkpt lat="42.8893" lon="0.10758">
        <ele>1659</ele>
        <time>2015-04-01T14:57:36Z</time>
      </trkpt>
      <trkpt lat="42.88938" lon="0.10755">
        <ele>1658.2</ele>
        <time>2015-04-01T14:57:46Z</time>
      </trkpt>
      <trkpt lat="42.88944" lon="0.10748">
        <ele>1657.1</ele>
        <time>2015-04-01T14:57:56Z</time>
      </trkpt>
      <trkpt lat="42.88948" lon="0.10739">
        <ele>1656.2</ele>
        <time>2015-04-01T14:58:07Z</time>
      </trkpt>
      <trkpt lat="42.88958" lon="0.10737">
        <ele>1655.3</ele>
        <time>2015-04-01T14:58:15Z</time>
      </trkpt>
      <trkpt lat="42.88967" lon="0.10739">
        <ele>1654.6</ele>
        <time>2015-04-01T14:58:23Z</time>
      </trkpt>
      <trkpt lat="42.88977" lon="0.10738">
        <ele>1653.4</ele>
        <time>2015-04-01T14:58:32Z</time>
      </trkpt>
      <trkpt lat="42.88984" lon="0.10739">
        <ele>1653.5</ele>
        <time>2015-04-01T14:58:42Z</time>
      </trkpt>
      <trkpt lat="42.88991" lon="0.10739">
        <ele>1653.1</ele>
        <time>2015-04-01T14:58:52Z</time>
      </trkpt>
      <trkpt lat="42.89" lon="0.10739">
        <ele>1653.6</ele>
        <time>2015-04-01T14:59:02Z</time>
      </trkpt>
      <trkpt lat="42.8901" lon="0.1074">
        <ele>1653.9</ele>
        <time>2015-04-01T14:59:32Z</time>
      </trkpt>
      <trkpt lat="42.89019" lon="0.10741">
        <ele>1653.2</ele>
        <time>2015-04-01T14:59:42Z</time>
      </trkpt>
      <trkpt lat="42.89028" lon="0.10739">
        <ele>1651.9</ele>
        <time>2015-04-01T14:59:52Z</time>
      </trkpt>
      <trkpt lat="42.89038" lon="0.10737">
        <ele>1650.5</ele>
        <time>2015-04-01T15:00:01Z</time>
      </trkpt>
      <trkpt lat="42.89047" lon="0.10736">
        <ele>1649.9</ele>
        <time>2015-04-01T15:00:10Z</time>
      </trkpt>
      <trkpt lat="42.89056" lon="0.10733">
        <ele>1649</ele>
        <time>2015-04-01T15:00:19Z</time>
      </trkpt>
      <trkpt lat="42.89064" lon="0.10729">
        <ele>1648.9</ele>
        <time>2015-04-01T15:00:29Z</time>
      </trkpt>
      <trkpt lat="42.89072" lon="0.10726">
        <ele>1649.4</ele>
        <time>2015-04-01T15:00:39Z</time>
      </trkpt>
      <trkpt lat="42.89081" lon="0.10721">
        <ele>1649</ele>
        <time>2015-04-01T15:00:48Z</time>
      </trkpt>
      <trkpt lat="42.89084" lon="0.10718">
        <ele>1648.4</ele>
        <time>2015-04-01T15:01:28Z</time>
      </trkpt>
      <trkpt lat="42.89088" lon="0.10723">
        <ele>1647.9</ele>
        <time>2015-04-01T15:01:53Z</time>
      </trkpt>
      <trkpt lat="42.89094" lon="0.10722">
        <ele>1647.4</ele>
        <time>2015-04-01T15:02:03Z</time>
      </trkpt>
      <trkpt lat="42.89104" lon="0.10722">
        <ele>1646.8</ele>
        <time>2015-04-01T15:02:13Z</time>
      </trkpt>
      <trkpt lat="42.89112" lon="0.1072">
        <ele>1644.9</ele>
        <time>2015-04-01T15:02:23Z</time>
      </trkpt>
      <trkpt lat="42.89121" lon="0.10716">
        <ele>1643.2</ele>
        <time>2015-04-01T15:02:33Z</time>
      </trkpt>
      <trkpt lat="42.89129" lon="0.10715">
        <ele>1642.3</ele>
        <time>2015-04-01T15:02:43Z</time>
      </trkpt>
      <trkpt lat="42.89133" lon="0.10712">
        <ele>1643.8</ele>
        <time>2015-04-01T15:03:12Z</time>
      </trkpt>
      <trkpt lat="42.89142" lon="0.10709">
        <ele>1643</ele>
        <time>2015-04-01T15:03:23Z</time>
      </trkpt>
      <trkpt lat="42.89152" lon="0.10707">
        <ele>1642.7</ele>
        <time>2015-04-01T15:03:33Z</time>
      </trkpt>
      <trkpt lat="42.89159" lon="0.10705">
        <ele>1641.9</ele>
        <time>2015-04-01T15:03:43Z</time>
      </trkpt>
      <trkpt lat="42.89165" lon="0.107">
        <ele>1641.2</ele>
        <time>2015-04-01T15:04:00Z</time>
      </trkpt>
      <trkpt lat="42.89168" lon="0.10695">
        <ele>1640</ele>
        <time>2015-04-01T15:04:10Z</time>
      </trkpt>
      <trkpt lat="42.89171" lon="0.10688">
        <ele>1638.7</ele>
        <time>2015-04-01T15:04:20Z</time>
      </trkpt>
      <trkpt lat="42.89174" lon="0.10678">
        <ele>1636.9</ele>
        <time>2015-04-01T15:04:30Z</time>
      </trkpt>
      <trkpt lat="42.8918" lon="0.10672">
        <ele>1635.4</ele>
        <time>2015-04-01T15:04:40Z</time>
      </trkpt>
      <trkpt lat="42.89188" lon="0.10663">
        <ele>1633.5</ele>
        <time>2015-04-01T15:04:49Z</time>
      </trkpt>
      <trkpt lat="42.89195" lon="0.10658">
        <ele>1632</ele>
        <time>2015-04-01T15:04:59Z</time>
      </trkpt>
      <trkpt lat="42.89201" lon="0.10653">
        <ele>1627</ele>
        <time>2015-04-01T15:05:38Z</time>
      </trkpt>
      <trkpt lat="42.89208" lon="0.10646">
        <ele>1625.7</ele>
        <time>2015-04-01T15:05:48Z</time>
      </trkpt>
      <trkpt lat="42.89215" lon="0.10643">
        <ele>1624.1</ele>
        <time>2015-04-01T15:05:58Z</time>
      </trkpt>
      <trkpt lat="42.89224" lon="0.10639">
        <ele>1622.5</ele>
        <time>2015-04-01T15:06:07Z</time>
      </trkpt>
      <trkpt lat="42.89232" lon="0.10633">
        <ele>1620.8</ele>
        <time>2015-04-01T15:06:17Z</time>
      </trkpt>
      <trkpt lat="42.89241" lon="0.10627">
        <ele>1619</ele>
        <time>2015-04-01T15:06:27Z</time>
      </trkpt>
      <trkpt lat="42.89245" lon="0.1062">
        <ele>1618</ele>
        <time>2015-04-01T15:06:37Z</time>
      </trkpt>
      <trkpt lat="42.89245" lon="0.10618">
        <ele>1618</ele>
        <time>2015-04-01T15:07:17Z</time>
      </trkpt>
      <trkpt lat="42.89253" lon="0.10624">
        <ele>1614.2</ele>
        <time>2015-04-01T15:07:29Z</time>
      </trkpt>
      <trkpt lat="42.89253" lon="0.10624">
        <ele>1614</ele>
        <time>2015-04-01T15:08:09Z</time>
      </trkpt>
      <trkpt lat="42.89253" lon="0.10624">
        <ele>1614</ele>
        <time>2015-04-01T15:08:50Z</time>
      </trkpt>
      <trkpt lat="42.89253" lon="0.10624">
        <ele>1614</ele>
        <time>2015-04-01T15:09:30Z</time>
      </trkpt>
      <trkpt lat="42.89253" lon="0.10624">
        <ele>1614</ele>
        <time>2015-04-01T15:10:10Z</time>
      </trkpt>
      <trkpt lat="42.89253" lon="0.10624">
        <ele>1614</ele>
        <time>2015-04-01T15:10:50Z</time>
      </trkpt>
      <trkpt lat="42.89253" lon="0.10624">
        <ele>1614</ele>
        <time>2015-04-01T15:11:30Z</time>
      </trkpt>
      <trkpt lat="42.89257" lon="0.10623">
        <ele>1602.8</ele>
        <time>2015-04-01T15:11:50Z</time>
      </trkpt>
      <trkpt lat="42.89266" lon="0.10622">
        <ele>1602.5</ele>
        <time>2015-04-01T15:12:00Z</time>
      </trkpt>
      <trkpt lat="42.89274" lon="0.10626">
        <ele>1601.9</ele>
        <time>2015-04-01T15:12:09Z</time>
      </trkpt>
      <trkpt lat="42.89284" lon="0.10627">
        <ele>1600.1</ele>
        <time>2015-04-01T15:12:19Z</time>
      </trkpt>
      <trkpt lat="42.89293" lon="0.10627">
        <ele>1596.7</ele>
        <time>2015-04-01T15:12:30Z</time>
      </trkpt>
      <trkpt lat="42.89299" lon="0.10624">
        <ele>1594.5</ele>
        <time>2015-04-01T15:12:40Z</time>
      </trkpt>
      <trkpt lat="42.89309" lon="0.10624">
        <ele>1592.1</ele>
        <time>2015-04-01T15:12:50Z</time>
      </trkpt>
      <trkpt lat="42.89318" lon="0.10625">
        <ele>1589.7</ele>
        <time>2015-04-01T15:13:00Z</time>
      </trkpt>
      <trkpt lat="42.89325" lon="0.10624">
        <ele>1587.5</ele>
        <time>2015-04-01T15:13:10Z</time>
      </trkpt>
      <trkpt lat="42.89332" lon="0.10624">
        <ele>1586.2</ele>
        <time>2015-04-01T15:13:20Z</time>
      </trkpt>
      <trkpt lat="42.8934" lon="0.10621">
        <ele>1583.1</ele>
        <time>2015-04-01T15:13:30Z</time>
      </trkpt>
      <trkpt lat="42.89349" lon="0.10625">
        <ele>1581.1</ele>
        <time>2015-04-01T15:13:40Z</time>
      </trkpt>
      <trkpt lat="42.89357" lon="0.10625">
        <ele>1578.4</ele>
        <time>2015-04-01T15:13:50Z</time>
      </trkpt>
      <trkpt lat="42.89367" lon="0.10625">
        <ele>1577.2</ele>
        <time>2015-04-01T15:14:00Z</time>
      </trkpt>
      <trkpt lat="42.89376" lon="0.10625">
        <ele>1579.1</ele>
        <time>2015-04-01T15:14:10Z</time>
      </trkpt>
      <trkpt lat="42.89386" lon="0.10625">
        <ele>1579.6</ele>
        <time>2015-04-01T15:14:20Z</time>
      </trkpt>
      <trkpt lat="42.89395" lon="0.10625">
        <ele>1579.6</ele>
        <time>2015-04-01T15:14:28Z</time>
      </trkpt>
      <trkpt lat="42.894" lon="0.10622">
        <ele>1579.6</ele>
        <time>2015-04-01T15:14:38Z</time>
      </trkpt>
      <trkpt lat="42.89405" lon="0.10619">
        <ele>1578.3</ele>
        <time>2015-04-01T15:14:48Z</time>
      </trkpt>
      <trkpt lat="42.89413" lon="0.10612">
        <ele>1575.1</ele>
        <time>2015-04-01T15:14:58Z</time>
      </trkpt>
      <trkpt lat="42.89421" lon="0.10603">
        <ele>1573.5</ele>
        <time>2015-04-01T15:15:07Z</time>
      </trkpt>
      <trkpt lat="42.89429" lon="0.10597">
        <ele>1573.1</ele>
        <time>2015-04-01T15:15:15Z</time>
      </trkpt>
      <trkpt lat="42.89434" lon="0.10587">
        <ele>1573.6</ele>
        <time>2015-04-01T15:15:25Z</time>
      </trkpt>
      <trkpt lat="42.8944" lon="0.10586">
        <ele>1573.3</ele>
        <time>2015-04-01T15:15:35Z</time>
      </trkpt>
      <trkpt lat="42.89446" lon="0.10585">
        <ele>1573.6</ele>
        <time>2015-04-01T15:15:45Z</time>
      </trkpt>
      <trkpt lat="42.89449" lon="0.10576">
        <ele>1573.4</ele>
        <time>2015-04-01T15:15:55Z</time>
      </trkpt>
      <trkpt lat="42.89453" lon="0.10572">
        <ele>1572.5</ele>
        <time>2015-04-01T15:16:14Z</time>
      </trkpt>
      <trkpt lat="42.89462" lon="0.10568">
        <ele>1572.2</ele>
        <time>2015-04-01T15:16:23Z</time>
      </trkpt>
      <trkpt lat="42.8947" lon="0.10562">
        <ele>1572.9</ele>
        <time>2015-04-01T15:16:31Z</time>
      </trkpt>
      <trkpt lat="42.89479" lon="0.10558">
        <ele>1573.5</ele>
        <time>2015-04-01T15:16:39Z</time>
      </trkpt>
      <trkpt lat="42.89486" lon="0.1055">
        <ele>1573.3</ele>
        <time>2015-04-01T15:16:49Z</time>
      </trkpt>
      <trkpt lat="42.89495" lon="0.10545">
        <ele>1572.4</ele>
        <time>2015-04-01T15:16:58Z</time>
      </trkpt>
      <trkpt lat="42.89499" lon="0.10548">
        <ele>1570.6</ele>
        <time>2015-04-01T15:17:13Z</time>
      </trkpt>
      <trkpt lat="42.89502" lon="0.10542">
        <ele>1570.9</ele>
        <time>2015-04-01T15:17:34Z</time>
      </trkpt>
      <trkpt lat="42.89511" lon="0.10535">
        <ele>1567.8</ele>
        <time>2015-04-01T15:17:44Z</time>
      </trkpt>
      <trkpt lat="42.89518" lon="0.10528">
        <ele>1567.2</ele>
        <time>2015-04-01T15:17:51Z</time>
      </trkpt>
      <trkpt lat="42.89524" lon="0.10518">
        <ele>1565.9</ele>
        <time>2015-04-01T15:18:01Z</time>
      </trkpt>
      <trkpt lat="42.8953" lon="0.10512">
        <ele>1565.8</ele>
        <time>2015-04-01T15:18:11Z</time>
      </trkpt>
      <trkpt lat="42.8954" lon="0.10509">
        <ele>1564.9</ele>
        <time>2015-04-01T15:18:19Z</time>
      </trkpt>
      <trkpt lat="42.89545" lon="0.10507">
        <ele>1564.2</ele>
        <time>2015-04-01T15:18:30Z</time>
      </trkpt>
      <trkpt lat="42.89554" lon="0.10503">
        <ele>1562.5</ele>
        <time>2015-04-01T15:18:38Z</time>
      </trkpt>
      <trkpt lat="42.8956" lon="0.10496">
        <ele>1562.1</ele>
        <time>2015-04-01T15:18:48Z</time>
      </trkpt>
      <trkpt lat="42.89555" lon="0.10496">
        <ele>1560.4</ele>
        <time>2015-04-01T15:19:14Z</time>
      </trkpt>
      <trkpt lat="42.89553" lon="0.10492">
        <ele>1556.9</ele>
        <time>2015-04-01T15:19:54Z</time>
      </trkpt>
      <trkpt lat="42.89557" lon="0.10488">
        <ele>1557</ele>
        <time>2015-04-01T15:20:04Z</time>
      </trkpt>
      <trkpt lat="42.89558" lon="0.10487">
        <ele>1554.2</ele>
        <time>2015-04-01T15:20:44Z</time>
      </trkpt>
      <trkpt lat="42.89558" lon="0.10476">
        <ele>1553.5</ele>
        <time>2015-04-01T15:20:54Z</time>
      </trkpt>
      <trkpt lat="42.89559" lon="0.10467">
        <ele>1552.5</ele>
        <time>2015-04-01T15:21:04Z</time>
      </trkpt>
      <trkpt lat="42.89564" lon="0.1046">
        <ele>1551.8</ele>
        <time>2015-04-01T15:21:14Z</time>
      </trkpt>
      <trkpt lat="42.89569" lon="0.10458">
        <ele>1551.2</ele>
        <time>2015-04-01T15:21:24Z</time>
      </trkpt>
      <trkpt lat="42.89576" lon="0.10462">
        <ele>1550.4</ele>
        <time>2015-04-01T15:21:34Z</time>
      </trkpt>
      <trkpt lat="42.89585" lon="0.10464">
        <ele>1550.2</ele>
        <time>2015-04-01T15:21:43Z</time>
      </trkpt>
      <trkpt lat="42.89593" lon="0.10466">
        <ele>1549.9</ele>
        <time>2015-04-01T15:21:54Z</time>
      </trkpt>
      <trkpt lat="42.89601" lon="0.10472">
        <ele>1549.6</ele>
        <time>2015-04-01T15:22:04Z</time>
      </trkpt>
      <trkpt lat="42.89608" lon="0.10475">
        <ele>1549.5</ele>
        <time>2015-04-01T15:22:14Z</time>
      </trkpt>
      <trkpt lat="42.89614" lon="0.1048">
        <ele>1549.7</ele>
        <time>2015-04-01T15:22:24Z</time>
      </trkpt>
      <trkpt lat="42.89619" lon="0.10482">
        <ele>1549</ele>
        <time>2015-04-01T15:22:34Z</time>
      </trkpt>
      <trkpt lat="42.89624" lon="0.10482">
        <ele>1548.9</ele>
        <time>2015-04-01T15:22:44Z</time>
      </trkpt>
      <trkpt lat="42.89634" lon="0.10481">
        <ele>1548.5</ele>
        <time>2015-04-01T15:22:54Z</time>
      </trkpt>
      <trkpt lat="42.89643" lon="0.10483">
        <ele>1548.1</ele>
        <time>2015-04-01T15:23:02Z</time>
      </trkpt>
      <trkpt lat="42.89652" lon="0.10482">
        <ele>1547.7</ele>
        <time>2015-04-01T15:23:07Z</time>
      </trkpt>
      <trkpt lat="42.89661" lon="0.1048">
        <ele>1547.2</ele>
        <time>2015-04-01T15:23:11Z</time>
      </trkpt>
      <trkpt lat="42.89671" lon="0.10479">
        <ele>1546.8</ele>
        <time>2015-04-01T15:23:18Z</time>
      </trkpt>
      <trkpt lat="42.8968" lon="0.1048">
        <ele>1546.1</ele>
        <time>2015-04-01T15:23:28Z</time>
      </trkpt>
      <trkpt lat="42.89686" lon="0.10476">
        <ele>1545.3</ele>
        <time>2015-04-01T15:23:38Z</time>
      </trkpt>
      <trkpt lat="42.89695" lon="0.10473">
        <ele>1544.9</ele>
        <time>2015-04-01T15:23:46Z</time>
      </trkpt>
      <trkpt lat="42.89705" lon="0.1047">
        <ele>1544.6</ele>
        <time>2015-04-01T15:23:54Z</time>
      </trkpt>
      <trkpt lat="42.89715" lon="0.10468">
        <ele>1543.7</ele>
        <time>2015-04-01T15:24:03Z</time>
      </trkpt>
      <trkpt lat="42.8972" lon="0.10465">
        <ele>1543</ele>
        <time>2015-04-01T15:24:13Z</time>
      </trkpt>
      <trkpt lat="42.89729" lon="0.10463">
        <ele>1542.5</ele>
        <time>2015-04-01T15:24:21Z</time>
      </trkpt>
      <trkpt lat="42.89738" lon="0.10461">
        <ele>1541.9</ele>
        <time>2015-04-01T15:24:30Z</time>
      </trkpt>
      <trkpt lat="42.89748" lon="0.10461">
        <ele>1541.4</ele>
        <time>2015-04-01T15:24:39Z</time>
      </trkpt>
      <trkpt lat="42.89758" lon="0.10459">
        <ele>1541.2</ele>
        <time>2015-04-01T15:24:49Z</time>
      </trkpt>
      <trkpt lat="42.89767" lon="0.10456">
        <ele>1540.6</ele>
        <time>2015-04-01T15:24:56Z</time>
      </trkpt>
      <trkpt lat="42.89773" lon="0.10459">
        <ele>1539.9</ele>
        <time>2015-04-01T15:25:06Z</time>
      </trkpt>
      <trkpt lat="42.89779" lon="0.10459">
        <ele>1539.3</ele>
        <time>2015-04-01T15:25:16Z</time>
      </trkpt>
      <trkpt lat="42.89785" lon="0.10453">
        <ele>1538.4</ele>
        <time>2015-04-01T15:25:26Z</time>
      </trkpt>
      <trkpt lat="42.89795" lon="0.10449">
        <ele>1538.3</ele>
        <time>2015-04-01T15:25:34Z</time>
      </trkpt>
      <trkpt lat="42.89805" lon="0.10446">
        <ele>1538.3</ele>
        <time>2015-04-01T15:25:41Z</time>
      </trkpt>
      <trkpt lat="42.89815" lon="0.10445">
        <ele>1538.2</ele>
        <time>2015-04-01T15:25:48Z</time>
      </trkpt>
      <trkpt lat="42.89823" lon="0.10442">
        <ele>1537.8</ele>
        <time>2015-04-01T15:25:58Z</time>
      </trkpt>
      <trkpt lat="42.89828" lon="0.10438">
        <ele>1536.8</ele>
        <time>2015-04-01T15:26:11Z</time>
      </trkpt>
      <trkpt lat="42.89834" lon="0.10429">
        <ele>1536.4</ele>
        <time>2015-04-01T15:26:18Z</time>
      </trkpt>
      <trkpt lat="42.89843" lon="0.10424">
        <ele>1536.3</ele>
        <time>2015-04-01T15:26:25Z</time>
      </trkpt>
      <trkpt lat="42.89852" lon="0.10419">
        <ele>1536.1</ele>
        <time>2015-04-01T15:26:33Z</time>
      </trkpt>
      <trkpt lat="42.89859" lon="0.10416">
        <ele>1535.8</ele>
        <time>2015-04-01T15:26:43Z</time>
      </trkpt>
      <trkpt lat="42.89866" lon="0.1041">
        <ele>1535</ele>
        <time>2015-04-01T15:26:53Z</time>
      </trkpt>
      <trkpt lat="42.89874" lon="0.10407">
        <ele>1534.1</ele>
        <time>2015-04-01T15:27:03Z</time>
      </trkpt>
      <trkpt lat="42.89881" lon="0.10408">
        <ele>1533.7</ele>
        <time>2015-04-01T15:27:13Z</time>
      </trkpt>
      <trkpt lat="42.8989" lon="0.1041">
        <ele>1533.1</ele>
        <time>2015-04-01T15:27:23Z</time>
      </trkpt>
      <trkpt lat="42.89895" lon="0.10404">
        <ele>1532.5</ele>
        <time>2015-04-01T15:27:33Z</time>
      </trkpt>
      <trkpt lat="42.89904" lon="0.10399">
        <ele>1532.1</ele>
        <time>2015-04-01T15:27:41Z</time>
      </trkpt>
      <trkpt lat="42.89913" lon="0.10395">
        <ele>1531.7</ele>
        <time>2015-04-01T15:27:49Z</time>
      </trkpt>
      <trkpt lat="42.89918" lon="0.10386">
        <ele>1531.3</ele>
        <time>2015-04-01T15:27:59Z</time>
      </trkpt>
      <trkpt lat="42.89925" lon="0.1038">
        <ele>1530.9</ele>
        <time>2015-04-01T15:28:09Z</time>
      </trkpt>
      <trkpt lat="42.89936" lon="0.10376">
        <ele>1530.6</ele>
        <time>2015-04-01T15:28:15Z</time>
      </trkpt>
      <trkpt lat="42.89946" lon="0.10369">
        <ele>1530.3</ele>
        <time>2015-04-01T15:28:22Z</time>
      </trkpt>
      <trkpt lat="42.89955" lon="0.10367">
        <ele>1529.6</ele>
        <time>2015-04-01T15:28:32Z</time>
      </trkpt>
      <trkpt lat="42.89964" lon="0.10364">
        <ele>1529.1</ele>
        <time>2015-04-01T15:28:42Z</time>
      </trkpt>
      <trkpt lat="42.89974" lon="0.10364">
        <ele>1528.7</ele>
        <time>2015-04-01T15:28:52Z</time>
      </trkpt>
      <trkpt lat="42.89983" lon="0.10361">
        <ele>1528.3</ele>
        <time>2015-04-01T15:29:02Z</time>
      </trkpt>
      <trkpt lat="42.89988" lon="0.10362">
        <ele>1527.9</ele>
        <time>2015-04-01T15:29:12Z</time>
      </trkpt>
      <trkpt lat="42.89998" lon="0.10361">
        <ele>1527.6</ele>
        <time>2015-04-01T15:29:20Z</time>
      </trkpt>
      <trkpt lat="42.90006" lon="0.10355">
        <ele>1527.2</ele>
        <time>2015-04-01T15:29:25Z</time>
      </trkpt>
      <trkpt lat="42.90016" lon="0.10352">
        <ele>1527.1</ele>
        <time>2015-04-01T15:29:30Z</time>
      </trkpt>
      <trkpt lat="42.90025" lon="0.10348">
        <ele>1526.9</ele>
        <time>2015-04-01T15:29:35Z</time>
      </trkpt>
      <trkpt lat="42.90032" lon="0.10349">
        <ele>1526.7</ele>
        <time>2015-04-01T15:29:45Z</time>
      </trkpt>
      <trkpt lat="42.90037" lon="0.10346">
        <ele>1526.3</ele>
        <time>2015-04-01T15:29:57Z</time>
      </trkpt>
      <trkpt lat="42.90046" lon="0.10339">
        <ele>1526</ele>
        <time>2015-04-01T15:30:03Z</time>
      </trkpt>
      <trkpt lat="42.90055" lon="0.10335">
        <ele>1525.8</ele>
        <time>2015-04-01T15:30:07Z</time>
      </trkpt>
      <trkpt lat="42.90065" lon="0.1033">
        <ele>1525.4</ele>
        <time>2015-04-01T15:30:14Z</time>
      </trkpt>
      <trkpt lat="42.90071" lon="0.10324">
        <ele>1524.8</ele>
        <time>2015-04-01T15:30:24Z</time>
      </trkpt>
      <trkpt lat="42.9008" lon="0.10321">
        <ele>1524.1</ele>
        <time>2015-04-01T15:30:34Z</time>
      </trkpt>
      <trkpt lat="42.90088" lon="0.10313">
        <ele>1523.3</ele>
        <time>2015-04-01T15:30:40Z</time>
      </trkpt>
      <trkpt lat="42.90096" lon="0.10306">
        <ele>1522.7</ele>
        <time>2015-04-01T15:30:49Z</time>
      </trkpt>
      <trkpt lat="42.90106" lon="0.10303">
        <ele>1522</ele>
        <time>2015-04-01T15:30:59Z</time>
      </trkpt>
      <trkpt lat="42.90115" lon="0.103">
        <ele>1521.7</ele>
        <time>2015-04-01T15:31:07Z</time>
      </trkpt>
      <trkpt lat="42.90125" lon="0.10296">
        <ele>1521.1</ele>
        <time>2015-04-01T15:31:15Z</time>
      </trkpt>
      <trkpt lat="42.90134" lon="0.10297">
        <ele>1520.6</ele>
        <time>2015-04-01T15:31:22Z</time>
      </trkpt>
      <trkpt lat="42.90143" lon="0.10296">
        <ele>1520.1</ele>
        <time>2015-04-01T15:31:30Z</time>
      </trkpt>
      <trkpt lat="42.90151" lon="0.10288">
        <ele>1519.4</ele>
        <time>2015-04-01T15:31:39Z</time>
      </trkpt>
      <trkpt lat="42.90159" lon="0.10279">
        <ele>1518.7</ele>
        <time>2015-04-01T15:31:46Z</time>
      </trkpt>
      <trkpt lat="42.90169" lon="0.10274">
        <ele>1517.9</ele>
        <time>2015-04-01T15:31:53Z</time>
      </trkpt>
      <trkpt lat="42.90176" lon="0.10264">
        <ele>1517</ele>
        <time>2015-04-01T15:32:02Z</time>
      </trkpt>
      <trkpt lat="42.90182" lon="0.10254">
        <ele>1516.3</ele>
        <time>2015-04-01T15:32:08Z</time>
      </trkpt>
      <trkpt lat="42.9019" lon="0.10247">
        <ele>1515.7</ele>
        <time>2015-04-01T15:32:16Z</time>
      </trkpt>
      <trkpt lat="42.90197" lon="0.10239">
        <ele>1515.3</ele>
        <time>2015-04-01T15:32:23Z</time>
      </trkpt>
      <trkpt lat="42.90206" lon="0.10233">
        <ele>1514.9</ele>
        <time>2015-04-01T15:32:30Z</time>
      </trkpt>
      <trkpt lat="42.90213" lon="0.10225">
        <ele>1514.3</ele>
        <time>2015-04-01T15:32:37Z</time>
      </trkpt>
      <trkpt lat="42.90221" lon="0.10217">
        <ele>1513.6</ele>
        <time>2015-04-01T15:32:47Z</time>
      </trkpt>
      <trkpt lat="42.90229" lon="0.10211">
        <ele>1512.7</ele>
        <time>2015-04-01T15:32:55Z</time>
      </trkpt>
      <trkpt lat="42.90233" lon="0.10205">
        <ele>1511.6</ele>
        <time>2015-04-01T15:33:05Z</time>
      </trkpt>
      <trkpt lat="42.90238" lon="0.10193">
        <ele>1510.7</ele>
        <time>2015-04-01T15:33:13Z</time>
      </trkpt>
      <trkpt lat="42.90246" lon="0.10186">
        <ele>1509.6</ele>
        <time>2015-04-01T15:33:22Z</time>
      </trkpt>
      <trkpt lat="42.90251" lon="0.10175">
        <ele>1508.5</ele>
        <time>2015-04-01T15:33:30Z</time>
      </trkpt>
      <trkpt lat="42.90258" lon="0.10167">
        <ele>1507.3</ele>
        <time>2015-04-01T15:33:37Z</time>
      </trkpt>
      <trkpt lat="42.90262" lon="0.10156">
        <ele>1506.1</ele>
        <time>2015-04-01T15:33:47Z</time>
      </trkpt>
      <trkpt lat="42.90264" lon="0.10149">
        <ele>1504.9</ele>
        <time>2015-04-01T15:33:57Z</time>
      </trkpt>
      <trkpt lat="42.90267" lon="0.10137">
        <ele>1503.9</ele>
        <time>2015-04-01T15:34:06Z</time>
      </trkpt>
      <trkpt lat="42.90274" lon="0.1013">
        <ele>1503</ele>
        <time>2015-04-01T15:34:15Z</time>
      </trkpt>
      <trkpt lat="42.90282" lon="0.10121">
        <ele>1502.2</ele>
        <time>2015-04-01T15:34:24Z</time>
      </trkpt>
      <trkpt lat="42.90288" lon="0.1011">
        <ele>1500.9</ele>
        <time>2015-04-01T15:34:32Z</time>
      </trkpt>
      <trkpt lat="42.90293" lon="0.10098">
        <ele>1500.1</ele>
        <time>2015-04-01T15:34:41Z</time>
      </trkpt>
      <trkpt lat="42.90298" lon="0.10087">
        <ele>1499.5</ele>
        <time>2015-04-01T15:34:49Z</time>
      </trkpt>
      <trkpt lat="42.90304" lon="0.10078">
        <ele>1498.8</ele>
        <time>2015-04-01T15:34:55Z</time>
      </trkpt>
      <trkpt lat="42.90313" lon="0.10074">
        <ele>1497.7</ele>
        <time>2015-04-01T15:34:59Z</time>
      </trkpt>
      <trkpt lat="42.90318" lon="0.10061">
        <ele>1496.5</ele>
        <time>2015-04-01T15:35:06Z</time>
      </trkpt>
      <trkpt lat="42.90321" lon="0.10051">
        <ele>1495.2</ele>
        <time>2015-04-01T15:35:16Z</time>
      </trkpt>
      <trkpt lat="42.90328" lon="0.10043">
        <ele>1494.2</ele>
        <time>2015-04-01T15:35:25Z</time>
      </trkpt>
      <trkpt lat="42.90335" lon="0.10032">
        <ele>1492.7</ele>
        <time>2015-04-01T15:35:35Z</time>
      </trkpt>
      <trkpt lat="42.90343" lon="0.10023">
        <ele>1491.3</ele>
        <time>2015-04-01T15:35:43Z</time>
      </trkpt>
      <trkpt lat="42.90348" lon="0.1001">
        <ele>1490.1</ele>
        <time>2015-04-01T15:35:50Z</time>
      </trkpt>
      <trkpt lat="42.90354" lon="0.1001">
        <ele>1488.9</ele>
        <time>2015-04-01T15:36:00Z</time>
      </trkpt>
      <trkpt lat="42.90352" lon="0.10016">
        <ele>1486.1</ele>
        <time>2015-04-01T15:36:10Z</time>
      </trkpt>
      <trkpt lat="42.90346" lon="0.10027">
        <ele>1484.7</ele>
        <time>2015-04-01T15:36:19Z</time>
      </trkpt>
      <trkpt lat="42.90339" lon="0.10035">
        <ele>1483.7</ele>
        <time>2015-04-01T15:36:27Z</time>
      </trkpt>
      <trkpt lat="42.90333" lon="0.10046">
        <ele>1483.2</ele>
        <time>2015-04-01T15:36:35Z</time>
      </trkpt>
      <trkpt lat="42.9033" lon="0.10059">
        <ele>1483.1</ele>
        <time>2015-04-01T15:36:43Z</time>
      </trkpt>
      <trkpt lat="42.90327" lon="0.10072">
        <ele>1482.3</ele>
        <time>2015-04-01T15:36:49Z</time>
      </trkpt>
      <trkpt lat="42.90327" lon="0.10083">
        <ele>1482.2</ele>
        <time>2015-04-01T15:36:59Z</time>
      </trkpt>
      <trkpt lat="42.90326" lon="0.10095">
        <ele>1481.8</ele>
        <time>2015-04-01T15:37:08Z</time>
      </trkpt>
      <trkpt lat="42.90323" lon="0.10103">
        <ele>1481.5</ele>
        <time>2015-04-01T15:37:18Z</time>
      </trkpt>
      <trkpt lat="42.9033" lon="0.10101">
        <ele>1480.9</ele>
        <time>2015-04-01T15:37:28Z</time>
      </trkpt>
      <trkpt lat="42.90338" lon="0.10093">
        <ele>1480</ele>
        <time>2015-04-01T15:37:46Z</time>
      </trkpt>
      <trkpt lat="42.90329" lon="0.10099">
        <ele>1479.2</ele>
        <time>2015-04-01T15:37:56Z</time>
      </trkpt>
      <trkpt lat="42.90331" lon="0.10112">
        <ele>1478.1</ele>
        <time>2015-04-01T15:38:05Z</time>
      </trkpt>
      <trkpt lat="42.90336" lon="0.10124">
        <ele>1477.4</ele>
        <time>2015-04-01T15:38:15Z</time>
      </trkpt>
      <trkpt lat="42.90342" lon="0.10135">
        <ele>1477.1</ele>
        <time>2015-04-01T15:38:23Z</time>
      </trkpt>
      <trkpt lat="42.90348" lon="0.10143">
        <ele>1475.8</ele>
        <time>2015-04-01T15:38:33Z</time>
      </trkpt>
      <trkpt lat="42.90354" lon="0.10147">
        <ele>1471.4</ele>
        <time>2015-04-01T15:38:55Z</time>
      </trkpt>
      <trkpt lat="42.90355" lon="0.10147">
        <ele>1470.5</ele>
        <time>2015-04-01T15:39:35Z</time>
      </trkpt>
      <trkpt lat="42.90355" lon="0.10147">
        <ele>1470.5</ele>
        <time>2015-04-01T15:40:15Z</time>
      </trkpt>
    </trkseg>
  </trk>
</gpx>